<?xml version='1.0' encoding='UTF-8'?><gpx version="1.1" creator="JPX - https://github.com/jenetics/jpx" xmlns="http://www.topografix.com/GPX/1/1"><trk><trkseg><trkpt lat="43.34460991519591" lon="11.905854002695412"><ele>260.0</ele><time>2026-04-11T08:09:11.997Z</time></trkpt><trkpt lat="43.34459161833576" lon="11.905768989394131"><ele>260.0</ele><time>2026-04-11T08:10:34Z</time></trkpt><trkpt lat="43.34460462214346" lon="11.90568393353318"><ele>260.0</ele><time>2026-04-11T08:10:56.999Z</time></trkpt><trkpt lat="43.34463374965521" lon="11.905593713042322"><ele>260.0</ele><time>2026-04-11T08:10:58.999Z</time></trkpt><trkpt lat="43.34470378145226" lon="11.905626008837086"><ele>260.0</ele><time>2026-04-11T08:11:11Z</time></trkpt><trkpt lat="43.34473322704068" lon="11.905721457155702"><ele>260.0</ele><time>2026-04-11T08:11:13Z</time></trkpt><trkpt lat="43.344695167316466" lon="11.905877871309174"><ele>260.28571428571433</ele><time>2026-04-11T08:11:15Z</time></trkpt><trkpt lat="43.34466023820126" lon="11.905957366454341"><ele>260.57142857142856</ele><time>2026-04-11T08:11:16Z</time></trkpt><trkpt lat="43.34462521062576" lon="11.906041265970133"><ele>260.8571428571429</ele><time>2026-04-11T08:11:17Z</time></trkpt><trkpt lat="43.34460417047738" lon="11.906138829337323"><ele>261.14285714285717</ele><time>2026-04-11T08:11:18Z</time></trkpt><trkpt lat="43.344607999495516" lon="11.90623982659656"><ele>261.42857142857144</ele><time>2026-04-11T08:11:19Z</time></trkpt><trkpt lat="43.34462944903908" lon="11.906337070953171"><ele>261.7142857142857</ele><time>2026-04-11T08:11:20Z</time></trkpt><trkpt lat="43.3446719474872" lon="11.906422201832736"><ele>262.0</ele><time>2026-04-11T08:11:21Z</time></trkpt><trkpt lat="43.34473969891464" lon="11.906462258473342"><ele>262.0</ele><time>2026-04-11T08:11:22Z</time></trkpt><trkpt lat="43.34478880927789" lon="11.906521633719944"><ele>262.0</ele><time>2026-04-11T08:11:23Z</time></trkpt><trkpt lat="43.34483641814569" lon="11.906579193633839"><ele>262.0</ele><time>2026-04-11T08:11:24Z</time></trkpt><trkpt lat="43.34480121599624" lon="11.906746050021612"><ele>262.0</ele><time>2026-04-11T08:11:25Z</time></trkpt><trkpt lat="43.344791327531894" lon="11.906838720919797"><ele>262.0</ele><time>2026-04-11T08:11:26Z</time></trkpt><trkpt lat="43.34476166928174" lon="11.90692534330101"><ele>262.0</ele><time>2026-04-11T08:11:27Z</time></trkpt><trkpt lat="43.344727537985015" lon="11.907005266677848"><ele>262.16666666666663</ele><time>2026-04-11T08:11:28Z</time></trkpt><trkpt lat="43.34469150887371" lon="11.907085575079916"><ele>262.3333333333333</ele><time>2026-04-11T08:11:29Z</time></trkpt><trkpt lat="43.34464001497208" lon="11.907173820529401"><ele>262.5</ele><time>2026-04-11T08:11:30Z</time></trkpt><trkpt lat="43.34458997084943" lon="11.90726853493933"><ele>262.6666666666667</ele><time>2026-04-11T08:11:31Z</time></trkpt><trkpt lat="43.34454790479535" lon="11.907360872848825"><ele>262.83333333333337</ele><time>2026-04-11T08:11:32Z</time></trkpt><trkpt lat="43.34449400192586" lon="11.907440669962392"><ele>263.0</ele><time>2026-04-11T08:11:33Z</time></trkpt><trkpt lat="43.34443728310378" lon="11.907523849718123"><ele>263.1666666666667</ele><time>2026-04-11T08:11:34Z</time></trkpt><trkpt lat="43.34439607070724" lon="11.9076162974816"><ele>263.33333333333337</ele><time>2026-04-11T08:11:35Z</time></trkpt><trkpt lat="43.34434694835002" lon="11.907699463595279"><ele>263.5</ele><time>2026-04-11T08:11:36Z</time></trkpt><trkpt lat="43.34429956866421" lon="11.907788984470054"><ele>263.6666666666667</ele><time>2026-04-11T08:11:37Z</time></trkpt><trkpt lat="43.34425842055858" lon="11.907876263352769"><ele>263.8333333333333</ele><time>2026-04-11T08:11:38Z</time></trkpt><trkpt lat="43.34421410692717" lon="11.907960057682661"><ele>264.0</ele><time>2026-04-11T08:11:39Z</time></trkpt><trkpt lat="43.344166046056706" lon="11.908029447866069"><ele>264.0</ele><time>2026-04-11T08:11:40Z</time></trkpt><trkpt lat="43.34409915376719" lon="11.908140357209293"><ele>264.0</ele><time>2026-04-11T08:11:42Z</time></trkpt><trkpt lat="43.344057507423805" lon="11.908240037252432"><ele>264.0</ele><time>2026-04-11T08:11:44Z</time></trkpt><trkpt lat="43.34400481492055" lon="11.908337073454907"><ele>264.0</ele><time>2026-04-11T08:11:46Z</time></trkpt><trkpt lat="43.34410228079184" lon="11.908430621494636"><ele>264.0</ele><time>2026-04-11T08:11:48Z</time></trkpt><trkpt lat="43.34417538988573" lon="11.90857076295024"><ele>264.1666666666667</ele><time>2026-04-11T08:11:50Z</time></trkpt><trkpt lat="43.34422054377885" lon="11.908635175670415"><ele>264.3333333333333</ele><time>2026-04-11T08:11:51Z</time></trkpt><trkpt lat="43.34426438498055" lon="11.908699755878787"><ele>264.5</ele><time>2026-04-11T08:11:52Z</time></trkpt><trkpt lat="43.34435298688724" lon="11.908820243305243"><ele>264.66666666666663</ele><time>2026-04-11T08:11:54Z</time></trkpt><trkpt lat="43.34440831478577" lon="11.90887528114825"><ele>264.8333333333333</ele><time>2026-04-11T08:11:55Z</time></trkpt><trkpt lat="43.34445606134719" lon="11.908935810148684"><ele>265.0</ele><time>2026-04-11T08:11:56Z</time></trkpt><trkpt lat="43.344550110435684" lon="11.909039617453736"><ele>265.0</ele><time>2026-04-11T08:11:58Z</time></trkpt><trkpt lat="43.344638107251875" lon="11.909149926588194"><ele>265.0</ele><time>2026-04-11T08:12:00Z</time></trkpt><trkpt lat="43.34468375544709" lon="11.909210420143802"><ele>265.0</ele><time>2026-04-11T08:12:01Z</time></trkpt><trkpt lat="43.34473183540602" lon="11.909275022848085"><ele>265.0</ele><time>2026-04-11T08:12:02Z</time></trkpt><trkpt lat="43.34478160285822" lon="11.909339982005616"><ele>265.0</ele><time>2026-04-11T08:12:03Z</time></trkpt><trkpt lat="43.344830778832" lon="11.909406174379914"><ele>265.0</ele><time>2026-04-11T08:12:04Z</time></trkpt><trkpt lat="43.344882246043554" lon="11.909474828500995"><ele>265.2857142857143</ele><time>2026-04-11T08:12:05Z</time></trkpt><trkpt lat="43.34493240814585" lon="11.90954386728019"><ele>265.57142857142856</ele><time>2026-04-11T08:12:06Z</time></trkpt><trkpt lat="43.344982436571854" lon="11.909612145858317"><ele>265.8571428571429</ele><time>2026-04-11T08:12:07Z</time></trkpt><trkpt lat="43.34503616658559" lon="11.909681297033552"><ele>266.1428571428571</ele><time>2026-04-11T08:12:08Z</time></trkpt><trkpt lat="43.345089018368334" lon="11.909754463523083"><ele>266.42857142857144</ele><time>2026-04-11T08:12:09Z</time></trkpt><trkpt lat="43.3451386490686" lon="11.9098239060234"><ele>266.7142857142857</ele><time>2026-04-11T08:12:10Z</time></trkpt><trkpt lat="43.34519378005521" lon="11.90989338116108"><ele>267.0</ele><time>2026-04-11T08:12:11Z</time></trkpt><trkpt lat="43.3452462360351" lon="11.909960820756936"><ele>267.0</ele><time>2026-04-11T08:12:12Z</time></trkpt><trkpt lat="43.345298464375524" lon="11.910038210750622"><ele>267.0</ele><time>2026-04-11T08:12:13Z</time></trkpt><trkpt lat="43.34535590386196" lon="11.910111859478478"><ele>267.0</ele><time>2026-04-11T08:12:14Z</time></trkpt><trkpt lat="43.34540924605408" lon="11.910180104048711"><ele>267.0</ele><time>2026-04-11T08:12:15Z</time></trkpt><trkpt lat="43.345463481635605" lon="11.910256497786262"><ele>267.0</ele><time>2026-04-11T08:12:16Z</time></trkpt><trkpt lat="43.34551452573014" lon="11.910332818027333"><ele>267.0</ele><time>2026-04-11T08:12:17Z</time></trkpt><trkpt lat="43.34555966466532" lon="11.91040767775419"><ele>267.42857142857144</ele><time>2026-04-11T08:12:18Z</time></trkpt><trkpt lat="43.34560784266858" lon="11.910474974477413"><ele>267.8571428571429</ele><time>2026-04-11T08:12:19Z</time></trkpt><trkpt lat="43.34566473956768" lon="11.910539908432625"><ele>268.2857142857143</ele><time>2026-04-11T08:12:20Z</time></trkpt><trkpt lat="43.3457186305311" lon="11.910607378751155"><ele>268.7142857142857</ele><time>2026-04-11T08:12:21Z</time></trkpt><trkpt lat="43.34577993991538" lon="11.910673771271783"><ele>269.1428571428571</ele><time>2026-04-11T08:12:22Z</time></trkpt><trkpt lat="43.34584290817362" lon="11.910738745058971"><ele>269.57142857142856</ele><time>2026-04-11T08:12:23Z</time></trkpt><trkpt lat="43.34590492221907" lon="11.91079625278425"><ele>270.0</ele><time>2026-04-11T08:12:24Z</time></trkpt><trkpt lat="43.3459622138926" lon="11.91086878090595"><ele>270.5</ele><time>2026-04-11T08:12:25Z</time></trkpt><trkpt lat="43.34601798489448" lon="11.910944668198415"><ele>271.0</ele><time>2026-04-11T08:12:26Z</time></trkpt><trkpt lat="43.34607682899466" lon="11.911019740489268"><ele>271.5</ele><time>2026-04-11T08:12:27Z</time></trkpt><trkpt lat="43.346138004817064" lon="11.911089599498489"><ele>272.0</ele><time>2026-04-11T08:12:28Z</time></trkpt><trkpt lat="43.346200018002186" lon="11.911158614491583"><ele>272.5</ele><time>2026-04-11T08:12:29Z</time></trkpt><trkpt lat="43.346267904347" lon="11.911218221268104"><ele>273.0</ele><time>2026-04-11T08:12:30Z</time></trkpt><trkpt lat="43.34632722282396" lon="11.911285931408969"><ele>274.2</ele><time>2026-04-11T08:12:31Z</time></trkpt><trkpt lat="43.34639035794233" lon="11.911361057577308"><ele>275.4</ele><time>2026-04-11T08:12:32Z</time></trkpt><trkpt lat="43.34643883421913" lon="11.911433801709347"><ele>276.59999999999997</ele><time>2026-04-11T08:12:33Z</time></trkpt><trkpt lat="43.34647410030866" lon="11.911520654370012"><ele>277.8</ele><time>2026-04-11T08:12:34Z</time></trkpt><trkpt lat="43.34654984727308" lon="11.911645695437205"><ele>279.0</ele><time>2026-04-11T08:12:36Z</time></trkpt><trkpt lat="43.34649821492481" lon="11.911816077939493"><ele>280.8</ele><time>2026-04-11T08:12:37.999Z</time></trkpt><trkpt lat="43.34647899228983" lon="11.911995749183866"><ele>282.59999999999997</ele><time>2026-04-11T08:12:53.999Z</time></trkpt><trkpt lat="43.34646635643715" lon="11.912084688592842"><ele>284.4</ele><time>2026-04-11T08:12:54.999Z</time></trkpt><trkpt lat="43.34645419311919" lon="11.912247668676768"><ele>286.2</ele><time>2026-04-11T08:12:56.999Z</time></trkpt><trkpt lat="43.34643581768023" lon="11.912404293119899"><ele>288.0</ele><time>2026-04-11T08:12:58.999Z</time></trkpt><trkpt lat="43.34641390420599" lon="11.912554205329723"><ele>286.8</ele><time>2026-04-11T08:13:00.999Z</time></trkpt><trkpt lat="43.34638121229013" lon="11.912718831640127"><ele>285.6</ele><time>2026-04-11T08:13:02.999Z</time></trkpt><trkpt lat="43.34637015063284" lon="11.91287298298359"><ele>284.4</ele><time>2026-04-11T08:13:04.999Z</time></trkpt><trkpt lat="43.34631753447815" lon="11.913031012258948"><ele>283.2</ele><time>2026-04-11T08:13:06.999Z</time></trkpt><trkpt lat="43.346295371925066" lon="11.91311567377175"><ele>282.0</ele><time>2026-04-11T08:13:07.999Z</time></trkpt><trkpt lat="43.34629018533265" lon="11.913211413002916"><ele>282.0</ele><time>2026-04-11T08:13:08.999Z</time></trkpt><trkpt lat="43.34630849524841" lon="11.91330483597515"><ele>282.0</ele><time>2026-04-11T08:13:09.999Z</time></trkpt><trkpt lat="43.346330367724754" lon="11.913391870406247"><ele>282.0</ele><time>2026-04-11T08:13:10.999Z</time></trkpt><trkpt lat="43.34635434528762" lon="11.913490540069597"><ele>282.0</ele><time>2026-04-11T08:13:12Z</time></trkpt><trkpt lat="43.3463722818581" lon="11.913586419368952"><ele>282.0</ele><time>2026-04-11T08:13:13Z</time></trkpt><trkpt lat="43.34638594023752" lon="11.913681548665224"><ele>282.0</ele><time>2026-04-11T08:13:14Z</time></trkpt><trkpt lat="43.34640192096048" lon="11.913781630142552"><ele>282.0</ele><time>2026-04-11T08:13:15Z</time></trkpt><trkpt lat="43.346423616721424" lon="11.913872050863647"><ele>284.3333333333333</ele><time>2026-04-11T08:13:16Z</time></trkpt><trkpt lat="43.34644065873273" lon="11.913958099149252"><ele>286.6666666666667</ele><time>2026-04-11T08:13:17Z</time></trkpt><trkpt lat="43.346446449247814" lon="11.914048918325198"><ele>289.0</ele><time>2026-04-11T08:13:18Z</time></trkpt><trkpt lat="43.34647392306607" lon="11.914202836745249"><ele>291.33333333333337</ele><time>2026-04-11T08:13:20Z</time></trkpt><trkpt lat="43.34650025138029" lon="11.914312613003297"><ele>293.6666666666667</ele><time>2026-04-11T08:13:22Z</time></trkpt><trkpt lat="43.346563606523986" lon="11.9143325809697"><ele>296.0</ele><time>2026-04-11T08:13:26Z</time></trkpt><trkpt lat="43.34662161495174" lon="11.914187002538608"><ele>296.42857142857144</ele><time>2026-04-11T08:13:28Z</time></trkpt><trkpt lat="43.34663546825126" lon="11.914098412471226"><ele>296.85714285714283</ele><time>2026-04-11T08:13:29Z</time></trkpt><trkpt lat="43.34665236292645" lon="11.914005069099742"><ele>297.2857142857143</ele><time>2026-04-11T08:13:30Z</time></trkpt><trkpt lat="43.34667198322912" lon="11.913909501989249"><ele>297.7142857142857</ele><time>2026-04-11T08:13:31Z</time></trkpt><trkpt lat="43.34667714097037" lon="11.913809193230003"><ele>298.14285714285717</ele><time>2026-04-11T08:13:32Z</time></trkpt><trkpt lat="43.34670558845331" lon="11.91370949934157"><ele>298.57142857142856</ele><time>2026-04-11T08:13:33Z</time></trkpt><trkpt lat="43.34673818920486" lon="11.913619406656467"><ele>299.0</ele><time>2026-04-11T08:13:34Z</time></trkpt><trkpt lat="43.34676942806754" lon="11.9135390122771"><ele>299.0</ele><time>2026-04-11T08:13:35Z</time></trkpt><trkpt lat="43.346807909176555" lon="11.913456341829777"><ele>299.0</ele><time>2026-04-11T08:13:36Z</time></trkpt><trkpt lat="43.346847630484625" lon="11.913388542006393"><ele>299.0</ele><time>2026-04-11T08:13:37Z</time></trkpt><trkpt lat="43.346910144992705" lon="11.913273474882319"><ele>299.0</ele><time>2026-04-11T08:13:39Z</time></trkpt><trkpt lat="43.34695826624081" lon="11.913159112087369"><ele>299.0</ele><time>2026-04-11T08:13:41Z</time></trkpt><trkpt lat="43.34701595355334" lon="11.91310147785683"><ele>299.0</ele><time>2026-04-11T08:14:56Z</time></trkpt><trkpt lat="43.34707432390798" lon="11.91304946382923"><ele>299.33333333333337</ele><time>2026-04-11T08:14:58Z</time></trkpt><trkpt lat="43.34716520320173" lon="11.912995100043762"><ele>299.6666666666667</ele><time>2026-04-11T08:15:00Z</time></trkpt><trkpt lat="43.347278400246836" lon="11.912958093283157"><ele>300.0</ele><time>2026-04-11T08:15:02Z</time></trkpt><trkpt lat="43.347345076635754" lon="11.912952803806474"><ele>300.3333333333333</ele><time>2026-04-11T08:15:03Z</time></trkpt><trkpt lat="43.34740792282981" lon="11.912981380910733"><ele>300.66666666666663</ele><time>2026-04-11T08:15:04Z</time></trkpt><trkpt lat="43.347471692688806" lon="11.913013562051919"><ele>301.0</ele><time>2026-04-11T08:15:04.999Z</time></trkpt><trkpt lat="43.34760210822705" lon="11.913105859051928"><ele>301.0</ele><time>2026-04-11T08:15:06.999Z</time></trkpt><trkpt lat="43.34764482066287" lon="11.913186289809014"><ele>301.0</ele><time>2026-04-11T08:15:07.999Z</time></trkpt><trkpt lat="43.34772990370529" lon="11.913275907863019"><ele>301.0</ele><time>2026-04-11T08:15:09.999Z</time></trkpt><trkpt lat="43.34780661917569" lon="11.913398641023054"><ele>301.0</ele><time>2026-04-11T08:15:11.999Z</time></trkpt><trkpt lat="43.347882092524735" lon="11.913519125608346"><ele>301.0</ele><time>2026-04-11T08:15:13.999Z</time></trkpt><trkpt lat="43.34796367998284" lon="11.913623559835"><ele>301.0</ele><time>2026-04-11T08:15:15.999Z</time></trkpt><trkpt lat="43.3478961817394" lon="11.913480024756737"><ele>301.0</ele><time>2026-04-11T08:15:21Z</time></trkpt><trkpt lat="43.347820840573206" lon="11.913381962182829"><ele>301.0</ele><time>2026-04-11T08:15:22Z</time></trkpt><trkpt lat="43.34769171413413" lon="11.91341285271031"><ele>301.0</ele><time>2026-04-11T08:15:23Z</time></trkpt><trkpt lat="43.347611556579075" lon="11.913363384049164"><ele>301.0</ele><time>2026-04-11T08:15:24Z</time></trkpt><trkpt lat="43.34752765467116" lon="11.913311946168069"><ele>301.0</ele><time>2026-04-11T08:15:25Z</time></trkpt><trkpt lat="43.347447483611546" lon="11.913255340094883"><ele>301.0</ele><time>2026-04-11T08:15:26Z</time></trkpt><trkpt lat="43.3474136830365" lon="11.913171393279857"><ele>301.0</ele><time>2026-04-11T08:15:28Z</time></trkpt><trkpt lat="43.34752916394095" lon="11.913040773517052"><ele>301.0</ele><time>2026-04-11T08:15:32Z</time></trkpt><trkpt lat="43.34762797785891" lon="11.913145979396148"><ele>301.0</ele><time>2026-04-11T08:15:42.999Z</time></trkpt><trkpt lat="43.34767482007586" lon="11.91321157547557"><ele>301.0</ele><time>2026-04-11T08:15:44.999Z</time></trkpt><trkpt lat="43.3477204493016" lon="11.913294833383132"><ele>301.0</ele><time>2026-04-11T08:15:46.999Z</time></trkpt><trkpt lat="43.347777643408776" lon="11.913373200982262"><ele>301.0</ele><time>2026-04-11T08:15:48.999Z</time></trkpt><trkpt lat="43.34785960329169" lon="11.913473164389943"><ele>301.0</ele><time>2026-04-11T08:15:50.999Z</time></trkpt><trkpt lat="43.34793456371152" lon="11.913574171403987"><ele>301.0</ele><time>2026-04-11T08:15:52.999Z</time></trkpt><trkpt lat="43.348014788847884" lon="11.913695455551276"><ele>301.8</ele><time>2026-04-11T08:15:54.999Z</time></trkpt><trkpt lat="43.34808600238924" lon="11.91379943688249"><ele>302.6</ele><time>2026-04-11T08:15:56.999Z</time></trkpt><trkpt lat="43.34814337188982" lon="11.913905519622382"><ele>303.4</ele><time>2026-04-11T08:15:58.999Z</time></trkpt><trkpt lat="43.348208232630924" lon="11.914020644317619"><ele>304.2</ele><time>2026-04-11T08:16:00.999Z</time></trkpt><trkpt lat="43.34828586219911" lon="11.914147749538396"><ele>305.0</ele><time>2026-04-11T08:16:02.999Z</time></trkpt><trkpt lat="43.34836587021741" lon="11.914270175194853"><ele>308.6</ele><time>2026-04-11T08:16:04.999Z</time></trkpt><trkpt lat="43.34843881577232" lon="11.914379189787768"><ele>312.2</ele><time>2026-04-11T08:16:06.999Z</time></trkpt><trkpt lat="43.34851354121549" lon="11.91448692191891"><ele>315.79999999999995</ele><time>2026-04-11T08:16:08.999Z</time></trkpt><trkpt lat="43.348579353270125" lon="11.91453451517134"><ele>319.4</ele><time>2026-04-11T08:16:10.999Z</time></trkpt><trkpt lat="43.348686925147575" lon="11.914547781610867"><ele>323.0</ele><time>2026-04-11T08:16:12.999Z</time></trkpt><trkpt lat="43.34876521096418" lon="11.914548134977801"><ele>323.0</ele><time>2026-04-11T08:16:13.999Z</time></trkpt><trkpt lat="43.348836115918395" lon="11.914580022131307"><ele>323.0</ele><time>2026-04-11T08:16:14.999Z</time></trkpt><trkpt lat="43.34891033724123" lon="11.91457468926916"><ele>323.0</ele><time>2026-04-11T08:16:15.999Z</time></trkpt><trkpt lat="43.348985681562105" lon="11.914600867936693"><ele>323.0</ele><time>2026-04-11T08:16:16.999Z</time></trkpt><trkpt lat="43.34907100409519" lon="11.91461932413818"><ele>323.0</ele><time>2026-04-11T08:16:17.999Z</time></trkpt><trkpt lat="43.34915066036009" lon="11.914634394762224"><ele>323.0</ele><time>2026-04-11T08:16:18.999Z</time></trkpt><trkpt lat="43.349233550155404" lon="11.91465931022431"><ele>322.1666666666667</ele><time>2026-04-11T08:16:19.999Z</time></trkpt><trkpt lat="43.349316278814634" lon="11.914692421235333"><ele>321.33333333333337</ele><time>2026-04-11T08:16:20.999Z</time></trkpt><trkpt lat="43.34939550183227" lon="11.914741780665711"><ele>320.5</ele><time>2026-04-11T08:16:21.999Z</time></trkpt><trkpt lat="43.349469624575036" lon="11.914802012689014"><ele>319.6666666666667</ele><time>2026-04-11T08:16:22.999Z</time></trkpt><trkpt lat="43.34954054809098" lon="11.914854229376571"><ele>318.8333333333333</ele><time>2026-04-11T08:16:23.999Z</time></trkpt><trkpt lat="43.349613179703546" lon="11.914897533238701"><ele>318.0</ele><time>2026-04-11T08:16:24.999Z</time></trkpt><trkpt lat="43.349690208476794" lon="11.914928061935946"><ele>317.1428571428571</ele><time>2026-04-11T08:16:25.999Z</time></trkpt><trkpt lat="43.349754376648754" lon="11.914943477163128"><ele>316.28571428571433</ele><time>2026-04-11T08:16:26.999Z</time></trkpt><trkpt lat="43.34981914607145" lon="11.914942107588377"><ele>315.42857142857144</ele><time>2026-04-11T08:16:27.999Z</time></trkpt><trkpt lat="43.349890579577746" lon="11.91493980770389"><ele>314.57142857142856</ele><time>2026-04-11T08:16:28.999Z</time></trkpt><trkpt lat="43.34995564455329" lon="11.914951073293306"><ele>313.71428571428567</ele><time>2026-04-11T08:16:29.999Z</time></trkpt><trkpt lat="43.35002372362494" lon="11.914956863414684"><ele>312.8571428571429</ele><time>2026-04-11T08:16:30.999Z</time></trkpt><trkpt lat="43.35008674048646" lon="11.914978189239413"><ele>312.0</ele><time>2026-04-11T08:16:31.999Z</time></trkpt><trkpt lat="43.3501529508599" lon="11.91500652320671"><ele>312.0</ele><time>2026-04-11T08:16:32.999Z</time></trkpt><trkpt lat="43.350211928779714" lon="11.91505232635781"><ele>312.0</ele><time>2026-04-11T08:16:33.999Z</time></trkpt><trkpt lat="43.3502633420964" lon="11.915118067073324"><ele>312.0</ele><time>2026-04-11T08:16:34.999Z</time></trkpt><trkpt lat="43.35031968961101" lon="11.915187489122989"><ele>312.0</ele><time>2026-04-11T08:16:35.999Z</time></trkpt><trkpt lat="43.35038042146046" lon="11.915251656144779"><ele>312.0</ele><time>2026-04-11T08:16:36.999Z</time></trkpt><trkpt lat="43.35044188401866" lon="11.915310298444057"><ele>312.0</ele><time>2026-04-11T08:16:37.999Z</time></trkpt><trkpt lat="43.35055675820988" lon="11.915409880924017"><ele>314.0</ele><time>2026-04-11T08:16:39.999Z</time></trkpt><trkpt lat="43.35062239995486" lon="11.91546940141306"><ele>316.0</ele><time>2026-04-11T08:16:40.999Z</time></trkpt><trkpt lat="43.35068923261743" lon="11.915518681688768"><ele>318.0</ele><time>2026-04-11T08:16:41.999Z</time></trkpt><trkpt lat="43.35076248799683" lon="11.915545906378403"><ele>320.0</ele><time>2026-04-11T08:16:42.999Z</time></trkpt><trkpt lat="43.35083680605115" lon="11.915581103889854"><ele>322.0</ele><time>2026-04-11T08:16:43.999Z</time></trkpt><trkpt lat="43.35091373822505" lon="11.915596793721694"><ele>324.0</ele><time>2026-04-11T08:16:44.999Z</time></trkpt><trkpt lat="43.350993363844324" lon="11.915592121683595"><ele>324.0</ele><time>2026-04-11T08:16:45.999Z</time></trkpt><trkpt lat="43.35107190579488" lon="11.91561337076186"><ele>324.0</ele><time>2026-04-11T08:16:46.999Z</time></trkpt><trkpt lat="43.35114912346427" lon="11.915634388657715"><ele>324.0</ele><time>2026-04-11T08:16:47.999Z</time></trkpt><trkpt lat="43.351232347618286" lon="11.915651758251155"><ele>324.0</ele><time>2026-04-11T08:16:48.999Z</time></trkpt><trkpt lat="43.35131637234888" lon="11.915666071830191"><ele>324.0</ele><time>2026-04-11T08:16:49.999Z</time></trkpt><trkpt lat="43.35139589601726" lon="11.915672214111826"><ele>324.0</ele><time>2026-04-11T08:16:50.999Z</time></trkpt><trkpt lat="43.351477030971886" lon="11.91568042106054"><ele>322.0</ele><time>2026-04-11T08:16:51.999Z</time></trkpt><trkpt lat="43.351556876729305" lon="11.915695181291316"><ele>320.0</ele><time>2026-04-11T08:16:52.999Z</time></trkpt><trkpt lat="43.35164071627602" lon="11.91571129289005"><ele>318.0</ele><time>2026-04-11T08:16:53.999Z</time></trkpt><trkpt lat="43.351724162104446" lon="11.915732179926268"><ele>316.0</ele><time>2026-04-11T08:16:54.999Z</time></trkpt><trkpt lat="43.35180496681878" lon="11.915750257713345"><ele>314.0</ele><time>2026-04-11T08:16:55.999Z</time></trkpt><trkpt lat="43.35188876086619" lon="11.91575026014591"><ele>312.0</ele><time>2026-04-11T08:16:56.999Z</time></trkpt><trkpt lat="43.35196902179559" lon="11.915736802220692"><ele>312.0</ele><time>2026-04-11T08:16:57.999Z</time></trkpt><trkpt lat="43.352052753968586" lon="11.915732077816013"><ele>312.0</ele><time>2026-04-11T08:16:58.999Z</time></trkpt><trkpt lat="43.35213865027588" lon="11.91573270832387"><ele>312.0</ele><time>2026-04-11T08:16:59.999Z</time></trkpt><trkpt lat="43.35222737382861" lon="11.91574025001064"><ele>312.0</ele><time>2026-04-11T08:17:00.999Z</time></trkpt><trkpt lat="43.35231485848346" lon="11.915750084883287"><ele>312.0</ele><time>2026-04-11T08:17:01.999Z</time></trkpt><trkpt lat="43.35239546781578" lon="11.915767626825687"><ele>312.0</ele><time>2026-04-11T08:17:02.999Z</time></trkpt><trkpt lat="43.35247500295236" lon="11.915794116536173"><ele>311.8333333333333</ele><time>2026-04-11T08:17:03.999Z</time></trkpt><trkpt lat="43.35254969067253" lon="11.915818848119532"><ele>311.6666666666667</ele><time>2026-04-11T08:17:04.999Z</time></trkpt><trkpt lat="43.3526158776305" lon="11.915848667595101"><ele>311.5</ele><time>2026-04-11T08:17:05.999Z</time></trkpt><trkpt lat="43.35272219691787" lon="11.915920655482008"><ele>311.33333333333337</ele><time>2026-04-11T08:17:07.999Z</time></trkpt><trkpt lat="43.35281378436856" lon="11.915958906426628"><ele>311.1666666666667</ele><time>2026-04-11T08:17:09.999Z</time></trkpt><trkpt lat="43.352862241962775" lon="11.916022320397287"><ele>311.0</ele><time>2026-04-11T08:17:12.999Z</time></trkpt><trkpt lat="43.35294146123482" lon="11.91605935643639"><ele>313.6666666666667</ele><time>2026-04-11T08:17:16.999Z</time></trkpt><trkpt lat="43.353024434428846" lon="11.916100842730037"><ele>316.3333333333333</ele><time>2026-04-11T08:17:19.999Z</time></trkpt><trkpt lat="43.35299150075613" lon="11.916390242361672"><ele>319.0</ele><time>2026-04-11T08:17:20.999Z</time></trkpt><trkpt lat="43.35313728737529" lon="11.916167275134182"><ele>319.5</ele><time>2026-04-11T08:17:22.999Z</time></trkpt><trkpt lat="43.35314870216622" lon="11.916727726430956"><ele>320.0</ele><time>2026-04-11T08:17:26Z</time></trkpt><trkpt lat="43.35318989831187" lon="11.916797001354105"><ele>321.8</ele><time>2026-04-11T08:17:27Z</time></trkpt><trkpt lat="43.35325000542438" lon="11.916930443369555"><ele>323.6</ele><time>2026-04-11T08:17:29Z</time></trkpt><trkpt lat="43.353320061883025" lon="11.917024076237476"><ele>325.4</ele><time>2026-04-11T08:17:31Z</time></trkpt><trkpt lat="43.353358729237925" lon="11.917153747663288"><ele>327.2</ele><time>2026-04-11T08:17:33Z</time></trkpt><trkpt lat="43.353406878934905" lon="11.91726161333999"><ele>329.0</ele><time>2026-04-11T08:17:35Z</time></trkpt><trkpt lat="43.35342069261234" lon="11.917363497931005"><ele>329.0</ele><time>2026-04-11T08:17:39Z</time></trkpt><trkpt lat="43.35340169460546" lon="11.917455571647922"><ele>329.0</ele><time>2026-04-11T08:17:42Z</time></trkpt><trkpt lat="43.35335554385961" lon="11.917533665996082"><ele>329.0</ele><time>2026-04-11T08:17:45Z</time></trkpt><trkpt lat="43.3532971109737" lon="11.917592716133463"><ele>329.0</ele><time>2026-04-11T08:17:47Z</time></trkpt><trkpt lat="43.353258962449914" lon="11.91766877949396"><ele>329.0</ele><time>2026-04-11T08:17:50Z</time></trkpt><trkpt lat="43.353250381753924" lon="11.91778067813082"><ele>329.0</ele><time>2026-04-11T08:17:53Z</time></trkpt><trkpt lat="43.35328769818517" lon="11.917869608862977"><ele>329.0</ele><time>2026-04-11T08:17:56Z</time></trkpt><trkpt lat="43.35333366049131" lon="11.917958598953772"><ele>331.83333333333337</ele><time>2026-04-11T08:17:59Z</time></trkpt><trkpt lat="43.35337801026892" lon="11.918068935171597"><ele>334.6666666666667</ele><time>2026-04-11T08:18:02Z</time></trkpt><trkpt lat="43.35340995577456" lon="11.918170554002847"><ele>337.5</ele><time>2026-04-11T08:18:04Z</time></trkpt><trkpt lat="43.353445196535915" lon="11.918260639321353"><ele>340.3333333333333</ele><time>2026-04-11T08:18:06Z</time></trkpt><trkpt lat="43.353447238581765" lon="11.918348907771751"><ele>343.16666666666663</ele><time>2026-04-11T08:18:08Z</time></trkpt><trkpt lat="43.35338991763456" lon="11.91841098810044"><ele>346.0</ele><time>2026-04-11T08:18:09.999Z</time></trkpt><trkpt lat="43.353307116078554" lon="11.918422347970761"><ele>347.66666666666663</ele><time>2026-04-11T08:18:12.999Z</time></trkpt><trkpt lat="43.353219461288646" lon="11.91843292756972"><ele>349.3333333333333</ele><time>2026-04-11T08:18:15.999Z</time></trkpt><trkpt lat="43.35314639963879" lon="11.918441293597366"><ele>351.0</ele><time>2026-04-11T08:18:17.999Z</time></trkpt><trkpt lat="43.35308298237712" lon="11.918425025335841"><ele>352.6666666666667</ele><time>2026-04-11T08:18:19.999Z</time></trkpt><trkpt lat="43.35301146281904" lon="11.918388704859161"><ele>354.33333333333337</ele><time>2026-04-11T08:18:21.999Z</time></trkpt><trkpt lat="43.35293527938991" lon="11.91835464868734"><ele>356.0</ele><time>2026-04-11T08:18:23.999Z</time></trkpt><trkpt lat="43.35286605240937" lon="11.918354594443212"><ele>360.1428571428571</ele><time>2026-04-11T08:18:25.999Z</time></trkpt><trkpt lat="43.352825548719885" lon="11.918430970545447"><ele>364.2857142857143</ele><time>2026-04-11T08:18:28.999Z</time></trkpt><trkpt lat="43.35277253882165" lon="11.91847826402456"><ele>368.42857142857144</ele><time>2026-04-11T08:18:31.999Z</time></trkpt><trkpt lat="43.352702013624814" lon="11.918526949207841"><ele>372.57142857142856</ele><time>2026-04-11T08:18:34.999Z</time></trkpt><trkpt lat="43.35266757357977" lon="11.91860084867628"><ele>376.7142857142857</ele><time>2026-04-11T08:18:36.999Z</time></trkpt><trkpt lat="43.352608874491146" lon="11.918661225402134"><ele>380.85714285714283</ele><time>2026-04-11T08:18:40.999Z</time></trkpt><trkpt lat="43.35253413953576" lon="11.918658042664413"><ele>385.0</ele><time>2026-04-11T08:18:44.999Z</time></trkpt><trkpt lat="43.35244126914861" lon="11.918640800772858"><ele>385.0</ele><time>2026-04-11T08:18:48.999Z</time></trkpt><trkpt lat="43.352339216312764" lon="11.918626719754084"><ele>385.0</ele><time>2026-04-11T08:18:51.999Z</time></trkpt><trkpt lat="43.35226577942839" lon="11.918617582469617"><ele>385.0</ele><time>2026-04-11T08:18:53.999Z</time></trkpt><trkpt lat="43.35220707222467" lon="11.918652254109809"><ele>385.0</ele><time>2026-04-11T08:18:56.999Z</time></trkpt><trkpt lat="43.3521772696162" lon="11.91873802836698"><ele>385.0</ele><time>2026-04-11T08:20:08Z</time></trkpt><trkpt lat="43.35216457536206" lon="11.918827616018168"><ele>385.0</ele><time>2026-04-11T08:20:16Z</time></trkpt><trkpt lat="43.3521911333952" lon="11.918910238393613"><ele>385.0</ele><time>2026-04-11T08:20:49.999Z</time></trkpt><trkpt lat="43.352251372829336" lon="11.918967830444165"><ele>385.0</ele><time>2026-04-11T08:20:53.999Z</time></trkpt><trkpt lat="43.35231659609024" lon="11.919011276031473"><ele>385.0</ele><time>2026-04-11T08:20:56.999Z</time></trkpt><trkpt lat="43.352305585588425" lon="11.919108457325436"><ele>385.0</ele><time>2026-04-11T08:20:59.999Z</time></trkpt><trkpt lat="43.352241901270126" lon="11.919105033736383"><ele>385.0</ele><time>2026-04-11T08:21:01.999Z</time></trkpt><trkpt lat="43.3521819207502" lon="11.919180896308035"><ele>385.0</ele><time>2026-04-11T08:22:09Z</time></trkpt><trkpt lat="43.3521469451681" lon="11.919253579960834"><ele>385.0</ele><time>2026-04-11T08:22:12Z</time></trkpt><trkpt lat="43.35220651791041" lon="11.919308399218433"><ele>385.0</ele><time>2026-04-11T08:22:15Z</time></trkpt><trkpt lat="43.35227400233888" lon="11.919352084119419"><ele>388.6666666666667</ele><time>2026-04-11T08:22:19Z</time></trkpt><trkpt lat="43.35231874659116" lon="11.919437429920626"><ele>392.33333333333337</ele><time>2026-04-11T08:22:23Z</time></trkpt><trkpt lat="43.35224940043366" lon="11.919460573708587"><ele>396.0</ele><time>2026-04-11T08:22:41Z</time></trkpt><trkpt lat="43.35218053021253" lon="11.919529674003302"><ele>399.66666666666663</ele><time>2026-04-11T08:22:43.999Z</time></trkpt><trkpt lat="43.352200430511886" lon="11.919624202215832"><ele>403.3333333333333</ele><time>2026-04-11T08:22:47.999Z</time></trkpt><trkpt lat="43.352241526215145" lon="11.919705625703841"><ele>407.0</ele><time>2026-04-11T08:22:51.999Z</time></trkpt><trkpt lat="43.35229611883495" lon="11.919803032004602"><ele>406.99999999999994</ele><time>2026-04-11T08:22:56.999Z</time></trkpt><trkpt lat="43.35222845733355" lon="11.919878996306236"><ele>407.0</ele><time>2026-04-11T08:23:01.999Z</time></trkpt><trkpt lat="43.35225950398388" lon="11.919961417253948"><ele>407.0</ele><time>2026-04-11T08:23:06.999Z</time></trkpt><trkpt lat="43.35234290918805" lon="11.919972161264296"><ele>407.0</ele><time>2026-04-11T08:23:52Z</time></trkpt><trkpt lat="43.352426959639075" lon="11.91999871865247"><ele>406.99999999999994</ele><time>2026-04-11T08:23:55Z</time></trkpt><trkpt lat="43.35249350683356" lon="11.920010550274911"><ele>407.0</ele><time>2026-04-11T08:23:57Z</time></trkpt><trkpt lat="43.3525616917347" lon="11.920019930297375"><ele>407.00000000000006</ele><time>2026-04-11T08:23:59Z</time></trkpt><trkpt lat="43.3526297448887" lon="11.920025302667804"><ele>407.0</ele><time>2026-04-11T08:24:01Z</time></trkpt><trkpt lat="43.352698285148534" lon="11.920076415082628"><ele>407.0</ele><time>2026-04-11T08:24:03Z</time></trkpt><trkpt lat="43.35276742793901" lon="11.920126317570313"><ele>407.0</ele><time>2026-04-11T08:24:05Z</time></trkpt><trkpt lat="43.352826849752915" lon="11.92017120224374"><ele>407.0</ele><time>2026-04-11T08:24:07Z</time></trkpt><trkpt lat="43.35287940274226" lon="11.920226597135702"><ele>407.00000000000006</ele><time>2026-04-11T08:24:10Z</time></trkpt><trkpt lat="43.35281759996671" lon="11.920270560143228"><ele>407.0</ele><time>2026-04-11T08:24:13Z</time></trkpt><trkpt lat="43.352745720026306" lon="11.92022348019141"><ele>410.42857142857144</ele><time>2026-04-11T08:24:15Z</time></trkpt><trkpt lat="43.35270164127249" lon="11.920292085170804"><ele>413.8571428571429</ele><time>2026-04-11T08:24:18Z</time></trkpt><trkpt lat="43.35275282388225" lon="11.920351515669484"><ele>417.28571428571433</ele><time>2026-04-11T08:24:20Z</time></trkpt><trkpt lat="43.35279807897887" lon="11.920421001553455"><ele>420.7142857142857</ele><time>2026-04-11T08:24:23Z</time></trkpt><trkpt lat="43.3527346101809" lon="11.920440755775212"><ele>424.1428571428571</ele><time>2026-04-11T08:24:26Z</time></trkpt><trkpt lat="43.35267401738826" lon="11.920363156231923"><ele>427.5714285714286</ele><time>2026-04-11T08:24:29Z</time></trkpt><trkpt lat="43.35259722936862" lon="11.92030263130714"><ele>431.0</ele><time>2026-04-11T08:24:32Z</time></trkpt><trkpt lat="43.35253646776356" lon="11.920265815992844"><ele>431.0</ele><time>2026-04-11T08:24:35Z</time></trkpt><trkpt lat="43.352497952906624" lon="11.920347592452606"><ele>431.0</ele><time>2026-04-11T08:24:39Z</time></trkpt><trkpt lat="43.35253548774823" lon="11.920432855772148"><ele>431.0</ele><time>2026-04-11T08:24:42Z</time></trkpt><trkpt lat="43.35260375917711" lon="11.920511609936613"><ele>431.0</ele><time>2026-04-11T08:24:45Z</time></trkpt><trkpt lat="43.35264489897888" lon="11.920579006547296"><ele>431.0</ele><time>2026-04-11T08:24:47Z</time></trkpt><trkpt lat="43.352657829420636" lon="11.920683691131567"><ele>431.0</ele><time>2026-04-11T08:24:51Z</time></trkpt><trkpt lat="43.3526906062373" lon="11.920765632224828"><ele>431.0</ele><time>2026-04-11T08:24:53Z</time></trkpt><trkpt lat="43.352743475726434" lon="11.920826462816093"><ele>430.99999999999994</ele><time>2026-04-11T08:24:55Z</time></trkpt><trkpt lat="43.35268356927215" lon="11.920894407168536"><ele>431.0</ele><time>2026-04-11T08:24:58.999Z</time></trkpt><trkpt lat="43.3526044143333" lon="11.920862670427972"><ele>431.0</ele><time>2026-04-11T08:25:01.999Z</time></trkpt><trkpt lat="43.352574329003936" lon="11.920965779438037"><ele>431.0</ele><time>2026-04-11T08:25:05.999Z</time></trkpt><trkpt lat="43.352496406206946" lon="11.921023200689358"><ele>430.99999999999994</ele><time>2026-04-11T08:25:10.999Z</time></trkpt><trkpt lat="43.352426934715815" lon="11.921017137380911"><ele>431.0</ele><time>2026-04-11T08:25:13.999Z</time></trkpt><trkpt lat="43.35233745321936" lon="11.92098783390229"><ele>432.7142857142857</ele><time>2026-04-11T08:25:16.999Z</time></trkpt><trkpt lat="43.35225427997269" lon="11.920970051100053"><ele>434.4285714285714</ele><time>2026-04-11T08:25:19.999Z</time></trkpt><trkpt lat="43.35217454591484" lon="11.920929590515605"><ele>436.1428571428571</ele><time>2026-04-11T08:25:22.999Z</time></trkpt><trkpt lat="43.35211018831359" lon="11.920935020589267"><ele>437.8571428571429</ele><time>2026-04-11T08:25:24.999Z</time></trkpt><trkpt lat="43.35204301097165" lon="11.92095164519131"><ele>439.57142857142856</ele><time>2026-04-11T08:25:26.999Z</time></trkpt><trkpt lat="43.35206863697953" lon="11.921054340603328"><ele>441.2857142857143</ele><time>2026-04-11T08:25:30.999Z</time></trkpt><trkpt lat="43.352127938426435" lon="11.921086455506693"><ele>443.0</ele><time>2026-04-11T08:25:32.999Z</time></trkpt><trkpt lat="43.35210130003362" lon="11.921170039997037"><ele>443.0</ele><time>2026-04-11T08:25:35.999Z</time></trkpt><trkpt lat="43.35203409316529" lon="11.921195600534398"><ele>443.0</ele><time>2026-04-11T08:25:38.999Z</time></trkpt><trkpt lat="43.35204694153007" lon="11.921295960188184"><ele>443.0</ele><time>2026-04-11T08:25:44.999Z</time></trkpt><trkpt lat="43.35205725512133" lon="11.921401103898773"><ele>443.0</ele><time>2026-04-11T08:25:48Z</time></trkpt><trkpt lat="43.35197130079707" lon="11.921417217978773"><ele>443.0</ele><time>2026-04-11T08:25:52Z</time></trkpt><trkpt lat="43.35195580984703" lon="11.921511233056394"><ele>443.0</ele><time>2026-04-11T08:25:56Z</time></trkpt><trkpt lat="43.35201382813376" lon="11.921549235523013"><ele>443.0</ele><time>2026-04-11T08:28:38Z</time></trkpt><trkpt lat="43.35208051209002" lon="11.921623852754536"><ele>442.99999999999994</ele><time>2026-04-11T08:28:41Z</time></trkpt><trkpt lat="43.352141545464406" lon="11.921667043812779"><ele>443.0</ele><time>2026-04-11T08:28:43Z</time></trkpt><trkpt lat="43.35221900624011" lon="11.921727436357124"><ele>443.0</ele><time>2026-04-11T08:28:45Z</time></trkpt><trkpt lat="43.35231106202772" lon="11.9217925872946"><ele>443.0</ele><time>2026-04-11T08:28:47Z</time></trkpt><trkpt lat="43.35236623951648" lon="11.92183673975151"><ele>442.99999999999994</ele><time>2026-04-11T08:28:48Z</time></trkpt><trkpt lat="43.35245255323162" lon="11.921909598702312"><ele>443.0</ele><time>2026-04-11T08:28:50Z</time></trkpt><trkpt lat="43.35250322433353" lon="11.92200234258123"><ele>443.79999999999995</ele><time>2026-04-11T08:28:53Z</time></trkpt><trkpt lat="43.35255580122229" lon="11.9220858059056"><ele>444.59999999999997</ele><time>2026-04-11T08:28:55Z</time></trkpt><trkpt lat="43.352654666403474" lon="11.922199134396294"><ele>445.40000000000003</ele><time>2026-04-11T08:28:57Z</time></trkpt><trkpt lat="43.35270990987303" lon="11.922249871641732"><ele>446.20000000000005</ele><time>2026-04-11T08:28:58Z</time></trkpt><trkpt lat="43.3527722000568" lon="11.922286002778154"><ele>447.0</ele><time>2026-04-11T08:28:59Z</time></trkpt><trkpt lat="43.352886305620046" lon="11.922333367797401"><ele>446.99999999999994</ele><time>2026-04-11T08:29:01Z</time></trkpt><trkpt lat="43.35295316657309" lon="11.922354180544593"><ele>447.0</ele><time>2026-04-11T08:29:02Z</time></trkpt><trkpt lat="43.35302465817265" lon="11.922373701948771"><ele>447.0</ele><time>2026-04-11T08:29:03Z</time></trkpt><trkpt lat="43.353093928094296" lon="11.922402441645069"><ele>447.0</ele><time>2026-04-11T08:29:04Z</time></trkpt><trkpt lat="43.35316061905414" lon="11.92242427561565"><ele>447.0</ele><time>2026-04-11T08:29:05Z</time></trkpt><trkpt lat="43.3532323699867" lon="11.92244142689698"><ele>446.99999999999994</ele><time>2026-04-11T08:29:06Z</time></trkpt><trkpt lat="43.353298867120145" lon="11.922469750883453"><ele>447.0</ele><time>2026-04-11T08:29:07Z</time></trkpt><trkpt lat="43.35336297231328" lon="11.922515249157556"><ele>446.3333333333333</ele><time>2026-04-11T08:29:08Z</time></trkpt><trkpt lat="43.35341865834156" lon="11.92258288504128"><ele>445.66666666666663</ele><time>2026-04-11T08:29:09Z</time></trkpt><trkpt lat="43.353476613035596" lon="11.922650226535511"><ele>445.0</ele><time>2026-04-11T08:29:10Z</time></trkpt><trkpt lat="43.35354032510032" lon="11.922705273981016"><ele>444.3333333333333</ele><time>2026-04-11T08:29:11Z</time></trkpt><trkpt lat="43.35361097624089" lon="11.922744317590473"><ele>443.66666666666663</ele><time>2026-04-11T08:29:12Z</time></trkpt><trkpt lat="43.35368368643822" lon="11.922777264033018"><ele>443.0</ele><time>2026-04-11T08:29:13Z</time></trkpt><trkpt lat="43.35375655398931" lon="11.922812889743847"><ele>442.99999999999994</ele><time>2026-04-11T08:29:14Z</time></trkpt><trkpt lat="43.353830153165156" lon="11.922842495944536"><ele>443.0</ele><time>2026-04-11T08:29:15Z</time></trkpt><trkpt lat="43.35389932389391" lon="11.922896816058127"><ele>443.0</ele><time>2026-04-11T08:29:16Z</time></trkpt><trkpt lat="43.35397160937883" lon="11.922937285278355"><ele>443.0</ele><time>2026-04-11T08:29:16.999Z</time></trkpt><trkpt lat="43.354040144835565" lon="11.922978162027604"><ele>442.99999999999994</ele><time>2026-04-11T08:29:17.999Z</time></trkpt><trkpt lat="43.35410216675862" lon="11.923015895853249"><ele>443.0</ele><time>2026-04-11T08:29:18.999Z</time></trkpt><trkpt lat="43.35421137841394" lon="11.923067250593432"><ele>446.79999999999995</ele><time>2026-04-11T08:29:20.999Z</time></trkpt><trkpt lat="43.3542935395792" lon="11.923145079116455"><ele>450.59999999999997</ele><time>2026-04-11T08:29:22.999Z</time></trkpt><trkpt lat="43.3543774913898" lon="11.92320950411154"><ele>454.40000000000003</ele><time>2026-04-11T08:29:24.999Z</time></trkpt><trkpt lat="43.35444634633982" lon="11.92327156279127"><ele>458.20000000000005</ele><time>2026-04-11T08:29:26.999Z</time></trkpt><trkpt lat="43.354521130971385" lon="11.923331206568916"><ele>462.0</ele><time>2026-04-11T08:29:28.999Z</time></trkpt><trkpt lat="43.35456744673001" lon="11.923435544519895"><ele>462.0</ele><time>2026-04-11T08:29:30.999Z</time></trkpt><trkpt lat="43.35462517584697" lon="11.923552804190802"><ele>462.00000000000006</ele><time>2026-04-11T08:29:32.999Z</time></trkpt><trkpt lat="43.354697602529704" lon="11.923662968936709"><ele>462.00000000000006</ele><time>2026-04-11T08:29:34.999Z</time></trkpt><trkpt lat="43.35477966726662" lon="11.923764409773158"><ele>462.0</ele><time>2026-04-11T08:29:36.999Z</time></trkpt><trkpt lat="43.35483299685544" lon="11.923874282154612"><ele>462.0</ele><time>2026-04-11T08:29:38.999Z</time></trkpt><trkpt lat="43.35488898049558" lon="11.923981233546588"><ele>466.2857142857143</ele><time>2026-04-11T08:29:40.999Z</time></trkpt><trkpt lat="43.354923410414735" lon="11.924060407037189"><ele>470.57142857142856</ele><time>2026-04-11T08:29:42.999Z</time></trkpt><trkpt lat="43.35494213956611" lon="11.924155576319045"><ele>474.8571428571429</ele><time>2026-04-11T08:29:45.999Z</time></trkpt><trkpt lat="43.354983151827575" lon="11.924229895021936"><ele>479.14285714285717</ele><time>2026-04-11T08:29:49.999Z</time></trkpt><trkpt lat="43.35500109132367" lon="11.924319109954373"><ele>483.42857142857144</ele><time>2026-04-11T08:29:53.999Z</time></trkpt><trkpt lat="43.35501220290857" lon="11.924415286019437"><ele>487.7142857142858</ele><time>2026-04-11T08:29:57.999Z</time></trkpt><trkpt lat="43.35505744373797" lon="11.924488808735479"><ele>492.00000000000006</ele><time>2026-04-11T08:30:02Z</time></trkpt><trkpt lat="43.35509825166801" lon="11.92458225689893"><ele>492.00000000000006</ele><time>2026-04-11T08:30:05Z</time></trkpt><trkpt lat="43.35512520616116" lon="11.924665581905298"><ele>492.0</ele><time>2026-04-11T08:30:09Z</time></trkpt><trkpt lat="43.35519207656319" lon="11.924733620780247"><ele>492.00000000000006</ele><time>2026-04-11T08:30:13Z</time></trkpt><trkpt lat="43.35523914639384" lon="11.924797394540576"><ele>492.00000000000006</ele><time>2026-04-11T08:30:17Z</time></trkpt><trkpt lat="43.35528553490808" lon="11.924864789700912"><ele>492.0</ele><time>2026-04-11T08:30:20Z</time></trkpt><trkpt lat="43.35533950463093" lon="11.92491043896752"><ele>492.00000000000006</ele><time>2026-04-11T08:30:24Z</time></trkpt><trkpt lat="43.355410219255376" lon="11.925002281590173"><ele>492.00000000000006</ele><time>2026-04-11T08:30:28Z</time></trkpt><trkpt lat="43.35546163340024" lon="11.925081761191988"><ele>490.0</ele><time>2026-04-11T08:30:31Z</time></trkpt><trkpt lat="43.35552559543824" lon="11.925142938386898"><ele>488.0</ele><time>2026-04-11T08:30:34Z</time></trkpt><trkpt lat="43.35560039446513" lon="11.925182060410297"><ele>486.0</ele><time>2026-04-11T08:30:37Z</time></trkpt><trkpt lat="43.35566202820119" lon="11.925221057449226"><ele>484.0</ele><time>2026-04-11T08:30:40Z</time></trkpt><trkpt lat="43.35574175250074" lon="11.925258062996127"><ele>482.0</ele><time>2026-04-11T08:30:44Z</time></trkpt><trkpt lat="43.35580122965592" lon="11.925320951069402"><ele>480.0</ele><time>2026-04-11T08:30:47Z</time></trkpt><trkpt lat="43.35586841151486" lon="11.925338299816122"><ele>484.1666666666667</ele><time>2026-04-11T08:30:50Z</time></trkpt><trkpt lat="43.35594955191608" lon="11.92533384135422"><ele>488.33333333333337</ele><time>2026-04-11T08:30:54Z</time></trkpt><trkpt lat="43.356026568785396" lon="11.92538024766496"><ele>492.5</ele><time>2026-04-11T08:30:57Z</time></trkpt><trkpt lat="43.35609431414053" lon="11.925404982065984"><ele>496.6666666666667</ele><time>2026-04-11T08:31:00Z</time></trkpt><trkpt lat="43.35617113764328" lon="11.925454229009633"><ele>500.83333333333337</ele><time>2026-04-11T08:31:05Z</time></trkpt><trkpt lat="43.35623344130466" lon="11.92546990735738"><ele>505.0</ele><time>2026-04-11T08:31:07Z</time></trkpt><trkpt lat="43.356325073051885" lon="11.925496709527803"><ele>508.83333333333337</ele><time>2026-04-11T08:31:10Z</time></trkpt><trkpt lat="43.35639041198001" lon="11.925481177172825"><ele>512.6666666666667</ele><time>2026-04-11T08:31:12Z</time></trkpt><trkpt lat="43.35647420618413" lon="11.92550770036643"><ele>516.5</ele><time>2026-04-11T08:31:15Z</time></trkpt><trkpt lat="43.3565417412299" lon="11.925555285984759"><ele>520.3333333333334</ele><time>2026-04-11T08:31:17Z</time></trkpt><trkpt lat="43.3566313628232" lon="11.925614354143033"><ele>524.1666666666666</ele><time>2026-04-11T08:31:20Z</time></trkpt><trkpt lat="43.35671013984769" lon="11.925626611819036"><ele>528.0</ele><time>2026-04-11T08:31:22Z</time></trkpt><trkpt lat="43.35677836495632" lon="11.92564416878021"><ele>528.0</ele><time>2026-04-11T08:31:24Z</time></trkpt><trkpt lat="43.356862775971486" lon="11.925658906126282"><ele>528.0</ele><time>2026-04-11T08:31:26Z</time></trkpt><trkpt lat="43.35694895157197" lon="11.92568765616194"><ele>528.0</ele><time>2026-04-11T08:31:29Z</time></trkpt><trkpt lat="43.3570202023586" lon="11.925710471743923"><ele>528.0</ele><time>2026-04-11T08:31:32Z</time></trkpt><trkpt lat="43.357089639265396" lon="11.925756970102507"><ele>528.0</ele><time>2026-04-11T08:31:35Z</time></trkpt><trkpt lat="43.3571642262279" lon="11.925814421253772"><ele>528.0</ele><time>2026-04-11T08:31:39Z</time></trkpt><trkpt lat="43.35723381550095" lon="11.925830537619328"><ele>527.1666666666666</ele><time>2026-04-11T08:31:41.999Z</time></trkpt><trkpt lat="43.35730997744538" lon="11.92584864865091"><ele>526.3333333333334</ele><time>2026-04-11T08:31:44.999Z</time></trkpt><trkpt lat="43.357392515825765" lon="11.925844695562995"><ele>525.5</ele><time>2026-04-11T08:31:47.999Z</time></trkpt><trkpt lat="43.35745879033292" lon="11.92585242093026"><ele>524.6666666666667</ele><time>2026-04-11T08:31:50.999Z</time></trkpt><trkpt lat="43.35754004613419" lon="11.925866339153522"><ele>523.8333333333334</ele><time>2026-04-11T08:31:53.999Z</time></trkpt><trkpt lat="43.35762744668416" lon="11.925891439472226"><ele>523.0</ele><time>2026-04-11T08:31:56.999Z</time></trkpt><trkpt lat="43.35771835807733" lon="11.92593031003576"><ele>523.0</ele><time>2026-04-11T08:31:59.999Z</time></trkpt><trkpt lat="43.35779828514321" lon="11.925933540062555"><ele>523.0</ele><time>2026-04-11T08:32:01.999Z</time></trkpt><trkpt lat="43.35786535390044" lon="11.925931860384672"><ele>523.0</ele><time>2026-04-11T08:32:03.999Z</time></trkpt><trkpt lat="43.35794023510372" lon="11.925937191461083"><ele>523.0</ele><time>2026-04-11T08:32:07Z</time></trkpt><trkpt lat="43.358024798193554" lon="11.92591618977539"><ele>523.0</ele><time>2026-04-11T08:32:10Z</time></trkpt><trkpt lat="43.35809033588976" lon="11.925914077662398"><ele>523.0</ele><time>2026-04-11T08:32:12Z</time></trkpt><trkpt lat="43.358172627849704" lon="11.9259156106822"><ele>524.6666666666667</ele><time>2026-04-11T08:32:16Z</time></trkpt><trkpt lat="43.35823887981231" lon="11.925924824787426"><ele>526.3333333333334</ele><time>2026-04-11T08:32:19Z</time></trkpt><trkpt lat="43.35831876776335" lon="11.925912812032536"><ele>528.0</ele><time>2026-04-11T08:32:22Z</time></trkpt><trkpt lat="43.358406298028626" lon="11.925917871773377"><ele>529.6666666666666</ele><time>2026-04-11T08:32:25Z</time></trkpt><trkpt lat="43.358473390994014" lon="11.925903911697539"><ele>531.3333333333333</ele><time>2026-04-11T08:32:27Z</time></trkpt><trkpt lat="43.35853941636233" lon="11.925922408881501"><ele>533.0</ele><time>2026-04-11T08:32:29Z</time></trkpt><trkpt lat="43.3586141242999" lon="11.925990241191744"><ele>533.0</ele><time>2026-04-11T08:32:32Z</time></trkpt><trkpt lat="43.35866494973712" lon="11.926053813956534"><ele>533.0</ele><time>2026-04-11T08:32:34Z</time></trkpt><trkpt lat="43.358729144714644" lon="11.92612795358715"><ele>533.0</ele><time>2026-04-11T08:32:36Z</time></trkpt><trkpt lat="43.35878232653254" lon="11.926213393223794"><ele>533.0</ele><time>2026-04-11T08:32:38Z</time></trkpt><trkpt lat="43.35884027547486" lon="11.92630812268257"><ele>533.0</ele><time>2026-04-11T08:32:40Z</time></trkpt><trkpt lat="43.35890065991934" lon="11.926406632700777"><ele>533.0</ele><time>2026-04-11T08:32:42Z</time></trkpt><trkpt lat="43.35897156460641" lon="11.926524615197604"><ele>536.0</ele><time>2026-04-11T08:32:44Z</time></trkpt><trkpt lat="43.359045803491824" lon="11.926660402826613"><ele>539.0</ele><time>2026-04-11T08:32:46Z</time></trkpt><trkpt lat="43.35911579620183" lon="11.92678592792555"><ele>542.0</ele><time>2026-04-11T08:32:48Z</time></trkpt><trkpt lat="43.359192062074555" lon="11.926908256933455"><ele>545.0</ele><time>2026-04-11T08:32:50Z</time></trkpt><trkpt lat="43.35926298164045" lon="11.927038769308648"><ele>545.0</ele><time>2026-04-11T08:32:52Z</time></trkpt><trkpt lat="43.35932755271312" lon="11.927161072603687"><ele>545.0</ele><time>2026-04-11T08:32:54Z</time></trkpt><trkpt lat="43.359381469193714" lon="11.927272532458634"><ele>545.0</ele><time>2026-04-11T08:32:56Z</time></trkpt><trkpt lat="43.35945090971807" lon="11.927350883517505"><ele>545.0</ele><time>2026-04-11T08:32:58Z</time></trkpt><trkpt lat="43.359527316963245" lon="11.927403835989379"><ele>545.0</ele><time>2026-04-11T08:33:00Z</time></trkpt><trkpt lat="43.35959464047801" lon="11.927494509978132"><ele>543.2</ele><time>2026-04-11T08:33:02Z</time></trkpt><trkpt lat="43.35967695206472" lon="11.927593536750651"><ele>541.4</ele><time>2026-04-11T08:33:04Z</time></trkpt><trkpt lat="43.35975971622764" lon="11.927693159247914"><ele>539.6</ele><time>2026-04-11T08:33:06Z</time></trkpt><trkpt lat="43.35984662337648" lon="11.927799369508008"><ele>537.8</ele><time>2026-04-11T08:33:08Z</time></trkpt><trkpt lat="43.35993013930369" lon="11.927901435255297"><ele>536.0</ele><time>2026-04-11T08:33:10Z</time></trkpt><trkpt lat="43.35999155860342" lon="11.927968129671822"><ele>541.2</ele><time>2026-04-11T08:33:11Z</time></trkpt><trkpt lat="43.360054149070955" lon="11.928069890332434"><ele>546.4000000000001</ele><time>2026-04-11T08:33:13Z</time></trkpt><trkpt lat="43.360095271354574" lon="11.928136748213015"><ele>551.6</ele><time>2026-04-11T08:33:14Z</time></trkpt><trkpt lat="43.360161859228405" lon="11.92823352550985"><ele>556.8000000000001</ele><time>2026-04-11T08:33:16Z</time></trkpt><trkpt lat="43.36023220253373" lon="11.928307577555014"><ele>562.0</ele><time>2026-04-11T08:33:18Z</time></trkpt><trkpt lat="43.360547867999486" lon="11.928722661264935"><ele>566.4285714285714</ele><time>2026-04-11T08:33:43Z</time></trkpt><trkpt lat="43.36061492096026" lon="11.928763761047312"><ele>570.8571428571429</ele><time>2026-04-11T08:33:47Z</time></trkpt><trkpt lat="43.36068507075587" lon="11.92880448316896"><ele>575.2857142857142</ele><time>2026-04-11T08:33:51Z</time></trkpt><trkpt lat="43.36075053358299" lon="11.928801892832363"><ele>579.7142857142858</ele><time>2026-04-11T08:33:55Z</time></trkpt><trkpt lat="43.36080489328448" lon="11.928849933028225"><ele>584.1428571428571</ele><time>2026-04-11T08:33:58Z</time></trkpt><trkpt lat="43.36087132154433" lon="11.92888320066343"><ele>588.5714285714286</ele><time>2026-04-11T08:34:00.999Z</time></trkpt><trkpt lat="43.36092629414767" lon="11.928933526366146"><ele>593.0</ele><time>2026-04-11T08:34:03.999Z</time></trkpt><trkpt lat="43.36098801669614" lon="11.929010677251691"><ele>592.9999999999999</ele><time>2026-04-11T08:34:06.999Z</time></trkpt><trkpt lat="43.36098902310298" lon="11.929110536142323"><ele>593.0</ele><time>2026-04-11T08:35:12Z</time></trkpt><trkpt lat="43.360973855446225" lon="11.929225092674857"><ele>593.0</ele><time>2026-04-11T08:35:17Z</time></trkpt><trkpt lat="43.360956530727655" lon="11.929312353996757"><ele>593.0</ele><time>2026-04-11T08:35:19Z</time></trkpt><trkpt lat="43.3609900831308" lon="11.929423328159947"><ele>593.0</ele><time>2026-04-11T08:35:22Z</time></trkpt><trkpt lat="43.361047355182976" lon="11.92946479997911"><ele>592.9999999999999</ele><time>2026-04-11T08:35:24Z</time></trkpt><trkpt lat="43.36111524148003" lon="11.929487012186241"><ele>593.0</ele><time>2026-04-11T08:35:27Z</time></trkpt><trkpt lat="43.36115977897582" lon="11.929562827065874"><ele>592.8333333333333</ele><time>2026-04-11T08:35:30Z</time></trkpt><trkpt lat="43.36121353917294" lon="11.929660132644873"><ele>592.6666666666666</ele><time>2026-04-11T08:35:33Z</time></trkpt><trkpt lat="43.36123517870851" lon="11.929746228384447"><ele>592.5</ele><time>2026-04-11T08:35:35Z</time></trkpt><trkpt lat="43.36123556014638" lon="11.929854847590775"><ele>592.3333333333334</ele><time>2026-04-11T08:35:37Z</time></trkpt><trkpt lat="43.36122077542724" lon="11.929953034813014"><ele>592.1666666666667</ele><time>2026-04-11T08:35:39Z</time></trkpt><trkpt lat="43.361235636840824" lon="11.930051763635678"><ele>592.0</ele><time>2026-04-11T08:35:41Z</time></trkpt><trkpt lat="43.36127380516239" lon="11.930137944926617"><ele>593.0</ele><time>2026-04-11T08:35:43Z</time></trkpt><trkpt lat="43.36131986247741" lon="11.930227707895877"><ele>594.0</ele><time>2026-04-11T08:35:45Z</time></trkpt><trkpt lat="43.361366727930815" lon="11.930319105960471"><ele>595.0</ele><time>2026-04-11T08:35:48Z</time></trkpt><trkpt lat="43.3614008308742" lon="11.930399784730499"><ele>596.0</ele><time>2026-04-11T08:35:50Z</time></trkpt><trkpt lat="43.36145340044387" lon="11.93051513879866"><ele>597.0</ele><time>2026-04-11T08:35:53Z</time></trkpt><trkpt lat="43.361476317338244" lon="11.930618833662914"><ele>598.0</ele><time>2026-04-11T08:35:55Z</time></trkpt><trkpt lat="43.3614621499461" lon="11.930743030208117"><ele>600.5</ele><time>2026-04-11T08:35:57Z</time></trkpt><trkpt lat="43.36152138454584" lon="11.93082826627035"><ele>603.0</ele><time>2026-04-11T08:36:00Z</time></trkpt><trkpt lat="43.36158170617935" lon="11.930867450676303"><ele>605.5</ele><time>2026-04-11T08:36:02Z</time></trkpt><trkpt lat="43.361608444712765" lon="11.930980566091312"><ele>608.0</ele><time>2026-04-11T08:36:04Z</time></trkpt><trkpt lat="43.36159155542433" lon="11.931074635855936"><ele>610.5</ele><time>2026-04-11T08:36:06Z</time></trkpt><trkpt lat="43.36157173045715" lon="11.931159284077209"><ele>613.0</ele><time>2026-04-11T08:36:08Z</time></trkpt><trkpt lat="43.361568631099274" lon="11.931263262941053"><ele>614.3333333333334</ele><time>2026-04-11T08:36:10Z</time></trkpt><trkpt lat="43.361579770429245" lon="11.931387410973748"><ele>615.6666666666667</ele><time>2026-04-11T08:36:12Z</time></trkpt><trkpt lat="43.36156371008463" lon="11.93148938210357"><ele>617.0</ele><time>2026-04-11T08:36:15Z</time></trkpt><trkpt lat="43.36154813178288" lon="11.931620345674009"><ele>618.3333333333334</ele><time>2026-04-11T08:36:18.001Z</time></trkpt><trkpt lat="43.361561954643776" lon="11.931730610754983"><ele>619.6666666666666</ele><time>2026-04-11T08:36:21.001Z</time></trkpt><trkpt lat="43.36159465158988" lon="11.931828044024776"><ele>621.0</ele><time>2026-04-11T08:36:24.001Z</time></trkpt><trkpt lat="43.361587955068785" lon="11.931919203599037"><ele>622.1666666666666</ele><time>2026-04-11T08:36:26.001Z</time></trkpt><trkpt lat="43.361576785266145" lon="11.93201733518106"><ele>623.3333333333334</ele><time>2026-04-11T08:36:29.001Z</time></trkpt><trkpt lat="43.36160701353116" lon="11.93211585354346"><ele>624.5</ele><time>2026-04-11T08:36:33.001Z</time></trkpt><trkpt lat="43.3616129474477" lon="11.93223953814978"><ele>625.6666666666667</ele><time>2026-04-11T08:36:36.001Z</time></trkpt><trkpt lat="43.36161163610735" lon="11.932327546433207"><ele>626.8333333333334</ele><time>2026-04-11T08:36:38.001Z</time></trkpt><trkpt lat="43.361604908116284" lon="11.932415264965513"><ele>628.0</ele><time>2026-04-11T08:36:40Z</time></trkpt><trkpt lat="43.36155563617984" lon="11.932507027384974"><ele>629.3333333333334</ele><time>2026-04-11T08:36:43Z</time></trkpt><trkpt lat="43.36151699743165" lon="11.932602397326624"><ele>630.6666666666667</ele><time>2026-04-11T08:36:45Z</time></trkpt><trkpt lat="43.36151326728724" lon="11.932694317492833"><ele>632.0</ele><time>2026-04-11T08:36:47Z</time></trkpt><trkpt lat="43.361534483850235" lon="11.932781551330358"><ele>633.3333333333334</ele><time>2026-04-11T08:36:50Z</time></trkpt><trkpt lat="43.36145930714149" lon="11.932861381639777"><ele>634.6666666666666</ele><time>2026-04-11T08:36:53Z</time></trkpt><trkpt lat="43.3613987896683" lon="11.932918008261451"><ele>636.0</ele><time>2026-04-11T08:36:54.999Z</time></trkpt><trkpt lat="43.36140041039812" lon="11.933033178709353"><ele>636.1666666666666</ele><time>2026-04-11T08:36:57.999Z</time></trkpt><trkpt lat="43.36133745252013" lon="11.933117188276228"><ele>636.3333333333334</ele><time>2026-04-11T08:36:59.999Z</time></trkpt><trkpt lat="43.3612803955282" lon="11.93319256033124"><ele>636.5</ele><time>2026-04-11T08:37:01.999Z</time></trkpt><trkpt lat="43.361208709268936" lon="11.93325885743117"><ele>636.6666666666667</ele><time>2026-04-11T08:37:03.999Z</time></trkpt><trkpt lat="43.361143479202426" lon="11.933308430296345"><ele>636.8333333333334</ele><time>2026-04-11T08:37:05.999Z</time></trkpt><trkpt lat="43.361086026327875" lon="11.933363535469464"><ele>637.0</ele><time>2026-04-11T08:37:07.999Z</time></trkpt><trkpt lat="43.36107145597099" lon="11.933474331682383"><ele>638.5</ele><time>2026-04-11T08:37:09.999Z</time></trkpt><trkpt lat="43.3610742782694" lon="11.933572172051768"><ele>640.0</ele><time>2026-04-11T08:37:12.999Z</time></trkpt><trkpt lat="43.361107237280216" lon="11.933677103553594"><ele>641.5</ele><time>2026-04-11T08:37:15.999Z</time></trkpt><trkpt lat="43.36106984691066" lon="11.93379863995516"><ele>643.0</ele><time>2026-04-11T08:37:20.999Z</time></trkpt><trkpt lat="43.36104637708065" lon="11.933897778466706"><ele>644.5</ele><time>2026-04-11T08:37:23.999Z</time></trkpt><trkpt lat="43.36102313452863" lon="11.933983812724597"><ele>646.0</ele><time>2026-04-11T08:37:25.999Z</time></trkpt><trkpt lat="43.36100677557157" lon="11.934113400296644"><ele>646.0</ele><time>2026-04-11T08:37:28.999Z</time></trkpt><trkpt lat="43.36102630538531" lon="11.934236879190388"><ele>646.0</ele><time>2026-04-11T08:37:31.999Z</time></trkpt><trkpt lat="43.361053870719864" lon="11.934335043298107"><ele>646.0</ele><time>2026-04-11T08:37:33.999Z</time></trkpt><trkpt lat="43.36110883305312" lon="11.934428143277234"><ele>646.0</ele><time>2026-04-11T08:37:38.999Z</time></trkpt><trkpt lat="43.361153729023215" lon="11.93452150587024"><ele>646.0</ele><time>2026-04-11T08:37:41.999Z</time></trkpt><trkpt lat="43.36120979742943" lon="11.934595807165229"><ele>646.0</ele><time>2026-04-11T08:37:43.999Z</time></trkpt><trkpt lat="43.36124938440397" lon="11.93466894641817"><ele>646.0000000000001</ele><time>2026-04-11T08:37:45.999Z</time></trkpt><trkpt lat="43.36126929384792" lon="11.934780437905687"><ele>646.0</ele><time>2026-04-11T08:37:48.999Z</time></trkpt><trkpt lat="43.361294831293485" lon="11.93486209790993"><ele>646.0</ele><time>2026-04-11T08:37:50.999Z</time></trkpt><trkpt lat="43.361333366039695" lon="11.934946621971317"><ele>646.0</ele><time>2026-04-11T08:37:52.999Z</time></trkpt><trkpt lat="43.361365390565425" lon="11.935031678430416"><ele>646.0</ele><time>2026-04-11T08:37:54.999Z</time></trkpt><trkpt lat="43.3614023017124" lon="11.935115815170224"><ele>646.0000000000001</ele><time>2026-04-11T08:37:56.999Z</time></trkpt><trkpt lat="43.36143372288165" lon="11.935214944701793"><ele>646.0</ele><time>2026-04-11T08:37:58.999Z</time></trkpt><trkpt lat="43.36147672932938" lon="11.935326971839432"><ele>649.1666666666667</ele><time>2026-04-11T08:38:00.999Z</time></trkpt><trkpt lat="43.36152759981564" lon="11.935423518375751"><ele>652.3333333333334</ele><time>2026-04-11T08:38:02.999Z</time></trkpt><trkpt lat="43.36158149295824" lon="11.9355192952563"><ele>655.5</ele><time>2026-04-11T08:38:04.999Z</time></trkpt><trkpt lat="43.36162833413517" lon="11.935586887287513"><ele>658.6666666666666</ele><time>2026-04-11T08:38:06.999Z</time></trkpt><trkpt lat="43.361697032255954" lon="11.935668772850743"><ele>661.8333333333333</ele><time>2026-04-11T08:38:09.999Z</time></trkpt><trkpt lat="43.36174066587215" lon="11.935738565807942"><ele>665.0</ele><time>2026-04-11T08:38:12.999Z</time></trkpt><trkpt lat="43.36178349384215" lon="11.935823929027046"><ele>666.0</ele><time>2026-04-11T08:38:15.999Z</time></trkpt><trkpt lat="43.361829563409785" lon="11.935890767987113"><ele>667.0</ele><time>2026-04-11T08:38:18.999Z</time></trkpt><trkpt lat="43.36189237508916" lon="11.935969932238516"><ele>668.0</ele><time>2026-04-11T08:38:21.999Z</time></trkpt><trkpt lat="43.361929136307616" lon="11.936040788256314"><ele>669.0</ele><time>2026-04-11T08:38:24Z</time></trkpt><trkpt lat="43.36195066938109" lon="11.936131550227971"><ele>670.0</ele><time>2026-04-11T08:38:27Z</time></trkpt><trkpt lat="43.36200479598799" lon="11.936188839242913"><ele>671.0</ele><time>2026-04-11T08:38:50Z</time></trkpt><trkpt lat="43.36204293696081" lon="11.936297417744083"><ele>672.0</ele><time>2026-04-11T08:38:55Z</time></trkpt><trkpt lat="43.362081134942784" lon="11.936380996586426"><ele>672.0</ele><time>2026-04-11T08:38:57.999Z</time></trkpt><trkpt lat="43.36210065254563" lon="11.93647214765753"><ele>672.0</ele><time>2026-04-11T08:39:00.999Z</time></trkpt><trkpt lat="43.36214491115152" lon="11.936561871101327"><ele>672.0</ele><time>2026-04-11T08:39:03.999Z</time></trkpt><trkpt lat="43.36216185838368" lon="11.93665911988596"><ele>672.0</ele><time>2026-04-11T08:39:05.999Z</time></trkpt><trkpt lat="43.36218466166296" lon="11.93674014032585"><ele>672.0</ele><time>2026-04-11T08:39:07.999Z</time></trkpt><trkpt lat="43.362236908709974" lon="11.936836540140378"><ele>672.0</ele><time>2026-04-11T08:39:09.999Z</time></trkpt><trkpt lat="43.36228316111315" lon="11.936944083212282"><ele>674.5714285714286</ele><time>2026-04-11T08:39:11.999Z</time></trkpt><trkpt lat="43.362318445251645" lon="11.937016786129512"><ele>677.1428571428571</ele><time>2026-04-11T08:39:13.999Z</time></trkpt><trkpt lat="43.36235651496242" lon="11.937097715419451"><ele>679.7142857142858</ele><time>2026-04-11T08:39:15.999Z</time></trkpt><trkpt lat="43.36237734081209" lon="11.937218490758868"><ele>682.2857142857142</ele><time>2026-04-11T08:39:18.999Z</time></trkpt><trkpt lat="43.36240276040579" lon="11.937314843299038"><ele>684.8571428571429</ele><time>2026-04-11T08:39:20.999Z</time></trkpt><trkpt lat="43.36243175528068" lon="11.937421634298486"><ele>687.4285714285714</ele><time>2026-04-11T08:39:23.999Z</time></trkpt><trkpt lat="43.36245590787571" lon="11.93750869457818"><ele>690.0</ele><time>2026-04-11T08:39:25.999Z</time></trkpt><trkpt lat="43.36250991412594" lon="11.937589383135862"><ele>690.0</ele><time>2026-04-11T08:39:27.999Z</time></trkpt><trkpt lat="43.3625634805769" lon="11.937641196643495"><ele>690.0</ele><time>2026-04-11T08:39:30.999Z</time></trkpt><trkpt lat="43.362629365865615" lon="11.937718516266235"><ele>690.0</ele><time>2026-04-11T08:39:32.999Z</time></trkpt><trkpt lat="43.36268616517434" lon="11.937822420456364"><ele>690.0</ele><time>2026-04-11T08:39:34.999Z</time></trkpt><trkpt lat="43.362728158841364" lon="11.937914769892217"><ele>690.0</ele><time>2026-04-11T08:39:36.999Z</time></trkpt><trkpt lat="43.362782402838256" lon="11.93798155281088"><ele>690.0</ele><time>2026-04-11T08:39:38.999Z</time></trkpt><trkpt lat="43.362864921498186" lon="11.938045163853339"><ele>690.0</ele><time>2026-04-11T08:39:40.999Z</time></trkpt><trkpt lat="43.36293509917056" lon="11.938095265010082"><ele>690.0</ele><time>2026-04-11T08:39:43.999Z</time></trkpt><trkpt lat="43.36299043412783" lon="11.938174232543687"><ele>690.0</ele><time>2026-04-11T08:39:45.999Z</time></trkpt><trkpt lat="43.36304469155806" lon="11.938260918332428"><ele>690.0</ele><time>2026-04-11T08:39:48.999Z</time></trkpt><trkpt lat="43.36310018557231" lon="11.938340706672005"><ele>690.0</ele><time>2026-04-11T08:39:51.999Z</time></trkpt><trkpt lat="43.36316234826088" lon="11.93841981124616"><ele>690.0</ele><time>2026-04-11T08:39:54.999Z</time></trkpt><trkpt lat="43.36321810288392" lon="11.938480555010742"><ele>691.5714285714286</ele><time>2026-04-11T08:39:57.999Z</time></trkpt><trkpt lat="43.36326624257909" lon="11.938540216212324"><ele>693.1428571428571</ele><time>2026-04-11T08:39:59.999Z</time></trkpt><trkpt lat="43.363314977577836" lon="11.938622614874213"><ele>694.7142857142858</ele><time>2026-04-11T08:40:02.999Z</time></trkpt><trkpt lat="43.363372862663596" lon="11.938661952915455"><ele>696.2857142857142</ele><time>2026-04-11T08:40:04.999Z</time></trkpt><trkpt lat="43.36341745855512" lon="11.938731463673404"><ele>697.8571428571428</ele><time>2026-04-11T08:40:07.999Z</time></trkpt><trkpt lat="43.36347116809902" lon="11.938810191434767"><ele>699.4285714285714</ele><time>2026-04-11T08:40:09.999Z</time></trkpt><trkpt lat="43.363515303371216" lon="11.938881108814863"><ele>701.0</ele><time>2026-04-11T08:40:11.999Z</time></trkpt><trkpt lat="43.36359392468558" lon="11.938907373214509"><ele>701.0</ele><time>2026-04-11T08:40:14.999Z</time></trkpt><trkpt lat="43.363680054774576" lon="11.938893557340219"><ele>701.0</ele><time>2026-04-11T08:40:17.999Z</time></trkpt><trkpt lat="43.36377220896642" lon="11.93889065321498"><ele>701.0</ele><time>2026-04-11T08:40:20.999Z</time></trkpt><trkpt lat="43.363848588427686" lon="11.93890398573381"><ele>701.0</ele><time>2026-04-11T08:40:22.999Z</time></trkpt><trkpt lat="43.36393989279482" lon="11.93889432203912"><ele>701.0</ele><time>2026-04-11T08:40:25.999Z</time></trkpt><trkpt lat="43.36403191573312" lon="11.938876532315238"><ele>701.0</ele><time>2026-04-11T08:40:29Z</time></trkpt><trkpt lat="43.36410207840335" lon="11.938876600894906"><ele>704.5</ele><time>2026-04-11T08:40:33Z</time></trkpt><trkpt lat="43.36415594062093" lon="11.938944880667956"><ele>708.0</ele><time>2026-04-11T08:40:37Z</time></trkpt><trkpt lat="43.36422065932291" lon="11.939007699487394"><ele>711.5</ele><time>2026-04-11T08:40:41Z</time></trkpt><trkpt lat="43.364297520757844" lon="11.939021332752574"><ele>715.0</ele><time>2026-04-11T08:40:44Z</time></trkpt><trkpt lat="43.364374583489834" lon="11.939016060017819"><ele>718.5</ele><time>2026-04-11T08:40:48Z</time></trkpt><trkpt lat="43.36444649553636" lon="11.939035410233098"><ele>722.0</ele><time>2026-04-11T08:40:52Z</time></trkpt><trkpt lat="43.36451725676269" lon="11.939036721029751"><ele>722.0</ele><time>2026-04-11T08:40:54Z</time></trkpt><trkpt lat="43.364592571890384" lon="11.939047627361273"><ele>722.0</ele><time>2026-04-11T08:40:57Z</time></trkpt><trkpt lat="43.364648304407986" lon="11.939004805536186"><ele>722.0</ele><time>2026-04-11T08:40:59Z</time></trkpt><trkpt lat="43.36472517057166" lon="11.938975714395266"><ele>722.0</ele><time>2026-04-11T08:41:02Z</time></trkpt><trkpt lat="43.36478812954108" lon="11.938943643289061"><ele>722.0</ele><time>2026-04-11T08:41:04Z</time></trkpt><trkpt lat="43.3648246211881" lon="11.938865979475704"><ele>722.0</ele><time>2026-04-11T08:41:06Z</time></trkpt><trkpt lat="43.36483010902952" lon="11.938751628944257"><ele>722.0</ele><time>2026-04-11T08:41:09Z</time></trkpt><trkpt lat="43.36488579748831" lon="11.93870779745118"><ele>724.8571428571429</ele><time>2026-04-11T08:41:11.999Z</time></trkpt><trkpt lat="43.364953452887185" lon="11.938673954439258"><ele>727.7142857142857</ele><time>2026-04-11T08:41:15.999Z</time></trkpt><trkpt lat="43.3650172980885" lon="11.938700388619123"><ele>730.5714285714286</ele><time>2026-04-11T08:41:18.999Z</time></trkpt><trkpt lat="43.36508737750295" lon="11.938686393369693"><ele>733.4285714285714</ele><time>2026-04-11T08:41:21.999Z</time></trkpt><trkpt lat="43.365161468173135" lon="11.938659234169505"><ele>736.2857142857142</ele><time>2026-04-11T08:41:25.999Z</time></trkpt><trkpt lat="43.36523602639395" lon="11.93863996107766"><ele>739.1428571428571</ele><time>2026-04-11T08:41:29.999Z</time></trkpt><trkpt lat="43.36531278679036" lon="11.93861728114369"><ele>742.0</ele><time>2026-04-11T08:41:32.999Z</time></trkpt><trkpt lat="43.36537724884143" lon="11.938607723868971"><ele>742.0</ele><time>2026-04-11T08:41:35.999Z</time></trkpt><trkpt lat="43.36546612931197" lon="11.938615323478517"><ele>742.0</ele><time>2026-04-11T08:41:38.999Z</time></trkpt><trkpt lat="43.365549858572045" lon="11.938652042115839"><ele>742.0</ele><time>2026-04-11T08:41:41.999Z</time></trkpt><trkpt lat="43.36562721576276" lon="11.938672653176207"><ele>742.0</ele><time>2026-04-11T08:41:43.999Z</time></trkpt><trkpt lat="43.365706168547604" lon="11.938702512692874"><ele>742.0</ele><time>2026-04-11T08:41:46.999Z</time></trkpt><trkpt lat="43.365765876000005" lon="11.938747649059355"><ele>742.0</ele><time>2026-04-11T08:41:48.999Z</time></trkpt><trkpt lat="43.365820899823625" lon="11.938795522432033"><ele>743.0</ele><time>2026-04-11T08:41:51.999Z</time></trkpt><trkpt lat="43.36588921279995" lon="11.938848680035044"><ele>744.0</ele><time>2026-04-11T08:41:54.999Z</time></trkpt><trkpt lat="43.36595669876326" lon="11.938897387305811"><ele>745.0</ele><time>2026-04-11T08:41:57.999Z</time></trkpt><trkpt lat="43.36603939094329" lon="11.938959142297874"><ele>746.0</ele><time>2026-04-11T08:42:01.999Z</time></trkpt><trkpt lat="43.366117170216455" lon="11.9389810454403"><ele>747.0</ele><time>2026-04-11T08:42:04.999Z</time></trkpt><trkpt lat="43.366180438067275" lon="11.93898498412156"><ele>748.0</ele><time>2026-04-11T08:42:07.999Z</time></trkpt><trkpt lat="43.366247049916076" lon="11.938990135658182"><ele>748.0</ele><time>2026-04-11T08:42:10.999Z</time></trkpt><trkpt lat="43.36632207702452" lon="11.93899867200014"><ele>748.0</ele><time>2026-04-11T08:42:14.999Z</time></trkpt><trkpt lat="43.36638672646221" lon="11.939006185253609"><ele>748.0</ele><time>2026-04-11T08:42:17.999Z</time></trkpt><trkpt lat="43.36647628719292" lon="11.939021751391788"><ele>748.0</ele><time>2026-04-11T08:42:20.999Z</time></trkpt><trkpt lat="43.36654981361728" lon="11.939032841895614"><ele>748.0</ele><time>2026-04-11T08:42:23.999Z</time></trkpt><trkpt lat="43.36663782269808" lon="11.93905952265669"><ele>748.0</ele><time>2026-04-11T08:42:26.999Z</time></trkpt><trkpt lat="43.36670761314295" lon="11.939074538503169"><ele>747.1666666666667</ele><time>2026-04-11T08:42:29.999Z</time></trkpt><trkpt lat="43.366776252950494" lon="11.939081091878146"><ele>746.3333333333334</ele><time>2026-04-11T08:42:32.999Z</time></trkpt><trkpt lat="43.366853117373026" lon="11.939081188521225"><ele>745.5</ele><time>2026-04-11T08:42:36Z</time></trkpt><trkpt lat="43.366925759998466" lon="11.939082028724206"><ele>744.6666666666666</ele><time>2026-04-11T08:42:40Z</time></trkpt><trkpt lat="43.367018681433855" lon="11.939077621495947"><ele>743.8333333333333</ele><time>2026-04-11T08:42:43Z</time></trkpt><trkpt lat="43.36708140653217" lon="11.939040846047929"><ele>743.0</ele><time>2026-04-11T08:42:45Z</time></trkpt><trkpt lat="43.367168222499096" lon="11.939000037972871"><ele>743.0</ele><time>2026-04-11T08:42:47Z</time></trkpt><trkpt lat="43.36727057918302" lon="11.93904376718718"><ele>743.0</ele><time>2026-04-11T08:42:49Z</time></trkpt><trkpt lat="43.36734886940611" lon="11.939064977463012"><ele>743.0</ele><time>2026-04-11T08:42:51Z</time></trkpt><trkpt lat="43.367428178722015" lon="11.939054258294224"><ele>743.0</ele><time>2026-04-11T08:42:54Z</time></trkpt><trkpt lat="43.3674946014528" lon="11.939048305077527"><ele>743.0</ele><time>2026-04-11T08:42:56Z</time></trkpt><trkpt lat="43.36756225495313" lon="11.93905592740241"><ele>743.0</ele><time>2026-04-11T08:42:59Z</time></trkpt><trkpt lat="43.36764032458383" lon="11.939079394713078"><ele>743.0</ele><time>2026-04-11T08:43:02Z</time></trkpt><trkpt lat="43.36772112327506" lon="11.939090945454234"><ele>743.0</ele><time>2026-04-11T08:43:05Z</time></trkpt><trkpt lat="43.36780270626975" lon="11.939073812719483"><ele>743.0</ele><time>2026-04-11T08:43:08Z</time></trkpt><trkpt lat="43.36786682259796" lon="11.939009751311799"><ele>743.0</ele><time>2026-04-11T08:43:11Z</time></trkpt><trkpt lat="43.36791539243284" lon="11.938938311623218"><ele>743.0</ele><time>2026-04-11T08:43:14Z</time></trkpt><trkpt lat="43.36799683145978" lon="11.938864884237988"><ele>743.0</ele><time>2026-04-11T08:43:16.999Z</time></trkpt><trkpt lat="43.368087313031005" lon="11.9388451932174"><ele>741.1666666666666</ele><time>2026-04-11T08:43:19.999Z</time></trkpt><trkpt lat="43.36818445655193" lon="11.938857913239206"><ele>739.3333333333333</ele><time>2026-04-11T08:43:22.999Z</time></trkpt><trkpt lat="43.368257847664104" lon="11.938855924429916"><ele>737.5</ele><time>2026-04-11T08:43:24.999Z</time></trkpt><trkpt lat="43.36834267510802" lon="11.93885386471574"><ele>735.6666666666666</ele><time>2026-04-11T08:43:26.999Z</time></trkpt><trkpt lat="43.36842719815088" lon="11.93883114882622"><ele>733.8333333333334</ele><time>2026-04-11T08:43:28.999Z</time></trkpt><trkpt lat="43.36851284083485" lon="11.93881210721345"><ele>732.0</ele><time>2026-04-11T08:43:30.999Z</time></trkpt><trkpt lat="43.36858733361354" lon="11.938794039177209"><ele>732.0</ele><time>2026-04-11T08:43:32.999Z</time></trkpt><trkpt lat="43.368650976145176" lon="11.938755370992565"><ele>732.0</ele><time>2026-04-11T08:43:35.999Z</time></trkpt><trkpt lat="43.368729883227246" lon="11.938719635575794"><ele>732.0</ele><time>2026-04-11T08:43:36.999Z</time></trkpt><trkpt lat="43.368810798190424" lon="11.938679608599703"><ele>732.0</ele><time>2026-04-11T08:43:38.999Z</time></trkpt><trkpt lat="43.36889372143558" lon="11.93864101111239"><ele>732.0</ele><time>2026-04-11T08:43:40.999Z</time></trkpt><trkpt lat="43.36898491504178" lon="11.938607554767009"><ele>732.0</ele><time>2026-04-11T08:43:42.999Z</time></trkpt><trkpt lat="43.3690787305664" lon="11.938567840810666"><ele>732.0</ele><time>2026-04-11T08:43:44.999Z</time></trkpt><trkpt lat="43.36916906374544" lon="11.938513199548414"><ele>732.0</ele><time>2026-04-11T08:43:46.999Z</time></trkpt><trkpt lat="43.36924851793253" lon="11.938473363323931"><ele>732.0</ele><time>2026-04-11T08:43:48.999Z</time></trkpt><trkpt lat="43.369310480749334" lon="11.938387647144575"><ele>732.0</ele><time>2026-04-11T08:43:50.999Z</time></trkpt><trkpt lat="43.36939660180259" lon="11.938341491918123"><ele>732.0</ele><time>2026-04-11T08:43:52.999Z</time></trkpt><trkpt lat="43.36949571450287" lon="11.938327345058731"><ele>731.3333333333334</ele><time>2026-04-11T08:43:54.999Z</time></trkpt><trkpt lat="43.369579368252495" lon="11.938329043642968"><ele>730.6666666666666</ele><time>2026-04-11T08:43:56.999Z</time></trkpt><trkpt lat="43.36963928796241" lon="11.938360516790688"><ele>730.0</ele><time>2026-04-11T08:43:57.999Z</time></trkpt><trkpt lat="43.3697330884629" lon="11.938416748676175"><ele>729.3333333333333</ele><time>2026-04-11T08:43:59.999Z</time></trkpt><trkpt lat="43.36981224546036" lon="11.938458503263899"><ele>728.6666666666666</ele><time>2026-04-11T08:44:01.999Z</time></trkpt><trkpt lat="43.36989239139271" lon="11.938454514349507"><ele>728.0</ele><time>2026-04-11T08:44:03.999Z</time></trkpt><trkpt lat="43.369953288037074" lon="11.938547182960813"><ele>728.0</ele><time>2026-04-11T08:44:05.999Z</time></trkpt><trkpt lat="43.37002938779366" lon="11.938564600748188"><ele>728.0</ele><time>2026-04-11T08:44:07.999Z</time></trkpt><trkpt lat="43.37010341373476" lon="11.938561058095964"><ele>728.0</ele><time>2026-04-11T08:44:09.999Z</time></trkpt><trkpt lat="43.37018545401379" lon="11.938531505848818"><ele>728.0</ele><time>2026-04-11T08:44:11.999Z</time></trkpt><trkpt lat="43.370262126551616" lon="11.938463025403156"><ele>728.0</ele><time>2026-04-11T08:44:13.999Z</time></trkpt><trkpt lat="43.37035806678973" lon="11.93834740080608"><ele>728.0</ele><time>2026-04-11T08:44:17.999Z</time></trkpt><trkpt lat="43.37042083282265" lon="11.938306116925943"><ele>728.0</ele><time>2026-04-11T08:44:19.999Z</time></trkpt><trkpt lat="43.370477706497496" lon="11.938257141724531"><ele>728.0</ele><time>2026-04-11T08:44:21.999Z</time></trkpt><trkpt lat="43.37054326872057" lon="11.938203141773291"><ele>728.0</ele><time>2026-04-11T08:44:23.999Z</time></trkpt><trkpt lat="43.370616450045716" lon="11.938182703538246"><ele>728.0</ele><time>2026-04-11T08:44:25.999Z</time></trkpt><trkpt lat="43.37069895159374" lon="11.938167965670017"><ele>728.0</ele><time>2026-04-11T08:44:28.999Z</time></trkpt><trkpt lat="43.37083526972391" lon="11.938162940024315"><ele>727.5</ele><time>2026-04-11T08:44:30.999Z</time></trkpt><trkpt lat="43.37091747224492" lon="11.938196074962809"><ele>727.0</ele><time>2026-04-11T08:44:32.999Z</time></trkpt><trkpt lat="43.37099553363261" lon="11.938226360269057"><ele>726.5</ele><time>2026-04-11T08:44:34.999Z</time></trkpt><trkpt lat="43.37106856212894" lon="11.938251232639097"><ele>726.0</ele><time>2026-04-11T08:44:36.999Z</time></trkpt><trkpt lat="43.371135317730854" lon="11.93826529478822"><ele>725.5</ele><time>2026-04-11T08:44:38.999Z</time></trkpt><trkpt lat="43.3712129160011" lon="11.93827355699729"><ele>725.0</ele><time>2026-04-11T08:44:42Z</time></trkpt><trkpt lat="43.37128075680164" lon="11.93828079120322"><ele>725.0</ele><time>2026-04-11T08:44:45Z</time></trkpt><trkpt lat="43.37134371089977" lon="11.938294797203566"><ele>725.0</ele><time>2026-04-11T08:44:48Z</time></trkpt><trkpt lat="43.371424063810075" lon="11.9382969116016"><ele>725.0</ele><time>2026-04-11T08:44:53Z</time></trkpt><trkpt lat="43.371512849070875" lon="11.938298471765206"><ele>725.0</ele><time>2026-04-11T08:44:55Z</time></trkpt><trkpt lat="43.3715849658935" lon="11.938294166928978"><ele>725.0</ele><time>2026-04-11T08:44:57Z</time></trkpt><trkpt lat="43.37165382870132" lon="11.938264433202308"><ele>725.0</ele><time>2026-04-11T08:45:00Z</time></trkpt><trkpt lat="43.37166506485007" lon="11.938361034977097"><ele>725.0</ele><time>2026-04-11T08:56:36Z</time></trkpt><trkpt lat="43.371625520243896" lon="11.938461022401974"><ele>723.1666666666666</ele><time>2026-04-11T08:56:38Z</time></trkpt><trkpt lat="43.37163632431645" lon="11.93856717265903"><ele>721.3333333333333</ele><time>2026-04-11T08:56:41Z</time></trkpt><trkpt lat="43.37169935083272" lon="11.938638756389691"><ele>719.5</ele><time>2026-04-11T08:56:44Z</time></trkpt><trkpt lat="43.37178323752009" lon="11.938614408581481"><ele>717.6666666666666</ele><time>2026-04-11T08:56:46Z</time></trkpt><trkpt lat="43.37184916093705" lon="11.938616755684276"><ele>715.8333333333334</ele><time>2026-04-11T08:56:48Z</time></trkpt><trkpt lat="43.37191349659638" lon="11.938690055477185"><ele>714.0</ele><time>2026-04-11T08:56:50Z</time></trkpt><trkpt lat="43.371911481981066" lon="11.938808243610373"><ele>714.0</ele><time>2026-04-11T08:56:52Z</time></trkpt><trkpt lat="43.3719030320797" lon="11.93890615734782"><ele>714.0</ele><time>2026-04-11T08:56:54Z</time></trkpt><trkpt lat="43.3718781907369" lon="11.939000236897781"><ele>714.0</ele><time>2026-04-11T08:56:56Z</time></trkpt><trkpt lat="43.37184640768433" lon="11.939091140078586"><ele>714.0</ele><time>2026-04-11T08:56:58Z</time></trkpt><trkpt lat="43.371808584378265" lon="11.939195886521151"><ele>714.0</ele><time>2026-04-11T08:57:00Z</time></trkpt><trkpt lat="43.371804443300654" lon="11.939287112614192"><ele>714.0</ele><time>2026-04-11T08:57:02Z</time></trkpt><trkpt lat="43.37177675598722" lon="11.939389716598917"><ele>714.0</ele><time>2026-04-11T08:57:04Z</time></trkpt><trkpt lat="43.37173460069892" lon="11.939468750773031"><ele>713.0</ele><time>2026-04-11T08:57:06Z</time></trkpt><trkpt lat="43.37168467464578" lon="11.939576718613889"><ele>712.0</ele><time>2026-04-11T08:57:08Z</time></trkpt><trkpt lat="43.371659103165754" lon="11.939674494998526"><ele>711.0</ele><time>2026-04-11T08:57:10Z</time></trkpt><trkpt lat="43.371604755395026" lon="11.939782251195194"><ele>710.0</ele><time>2026-04-11T08:57:12Z</time></trkpt><trkpt lat="43.3715687193702" lon="11.939903822544444"><ele>709.0</ele><time>2026-04-11T08:57:14Z</time></trkpt><trkpt lat="43.37155137313787" lon="11.940055454053917"><ele>706.0</ele><time>2026-04-11T08:57:16Z</time></trkpt><trkpt lat="43.37154521247799" lon="11.940215108809166"><ele>703.0</ele><time>2026-04-11T08:57:18.001Z</time></trkpt><trkpt lat="43.371556360067174" lon="11.940359637908193"><ele>700.0</ele><time>2026-04-11T08:57:20.001Z</time></trkpt><trkpt lat="43.371599070895705" lon="11.940488279183162"><ele>697.0</ele><time>2026-04-11T08:57:22.001Z</time></trkpt><trkpt lat="43.371647218541334" lon="11.940634691132036"><ele>694.0</ele><time>2026-04-11T08:57:24.001Z</time></trkpt><trkpt lat="43.371682597715065" lon="11.940771722079262"><ele>694.0</ele><time>2026-04-11T08:57:26.001Z</time></trkpt><trkpt lat="43.37173258262232" lon="11.940824395234545"><ele>694.0</ele><time>2026-04-11T08:57:27.001Z</time></trkpt><trkpt lat="43.371779031527566" lon="11.940883580705748"><ele>694.0</ele><time>2026-04-11T08:57:28.001Z</time></trkpt><trkpt lat="43.371863028132736" lon="11.940987553410622"><ele>694.0</ele><time>2026-04-11T08:57:30.001Z</time></trkpt><trkpt lat="43.37195234461597" lon="11.941073605960307"><ele>694.0</ele><time>2026-04-11T08:57:32.001Z</time></trkpt><trkpt lat="43.37203091449237" lon="11.941148390909957"><ele>694.0</ele><time>2026-04-11T08:57:34Z</time></trkpt><trkpt lat="43.372112716196675" lon="11.941237513609357"><ele>691.6</ele><time>2026-04-11T08:57:36Z</time></trkpt><trkpt lat="43.37216769744764" lon="11.941381300931354"><ele>689.2</ele><time>2026-04-11T08:57:38Z</time></trkpt><trkpt lat="43.37217811994237" lon="11.941498319686902"><ele>686.8000000000001</ele><time>2026-04-11T08:57:40Z</time></trkpt><trkpt lat="43.37213186582843" lon="11.941641260212254"><ele>684.4000000000001</ele><time>2026-04-11T08:57:42Z</time></trkpt><trkpt lat="43.37208648649328" lon="11.941787340146368"><ele>682.0</ele><time>2026-04-11T08:57:44Z</time></trkpt><trkpt lat="43.37203274687751" lon="11.941912670837082"><ele>680.0</ele><time>2026-04-11T08:57:46Z</time></trkpt><trkpt lat="43.37196766464595" lon="11.942008735185984"><ele>678.0</ele><time>2026-04-11T08:57:48Z</time></trkpt><trkpt lat="43.371897561149005" lon="11.942108116095937"><ele>676.0</ele><time>2026-04-11T08:57:50Z</time></trkpt><trkpt lat="43.37188315634321" lon="11.942233337386776"><ele>674.0</ele><time>2026-04-11T08:57:52Z</time></trkpt><trkpt lat="43.37189969508263" lon="11.942373334611261"><ele>672.0</ele><time>2026-04-11T08:57:54Z</time></trkpt><trkpt lat="43.37193734111574" lon="11.942504825454431"><ele>670.8333333333334</ele><time>2026-04-11T08:57:56Z</time></trkpt><trkpt lat="43.37198819144126" lon="11.942623385675581"><ele>669.6666666666666</ele><time>2026-04-11T08:57:58Z</time></trkpt><trkpt lat="43.37205341786891" lon="11.942646106941222"><ele>668.5</ele><time>2026-04-11T08:58:00Z</time></trkpt><trkpt lat="43.37209219920419" lon="11.942716009264442"><ele>667.3333333333333</ele><time>2026-04-11T08:58:02Z</time></trkpt><trkpt lat="43.37208425972084" lon="11.942833258022887"><ele>666.1666666666666</ele><time>2026-04-11T08:58:04Z</time></trkpt><trkpt lat="43.3720562821512" lon="11.942943696388209"><ele>665.0</ele><time>2026-04-11T08:58:06Z</time></trkpt><trkpt lat="43.372048682048494" lon="11.94306243285394"><ele>665.0</ele><time>2026-04-11T08:58:08Z</time></trkpt><trkpt lat="43.37209297877323" lon="11.943152277339568"><ele>665.0</ele><time>2026-04-11T08:58:10Z</time></trkpt><trkpt lat="43.37213017552857" lon="11.943249575360595"><ele>665.0</ele><time>2026-04-11T08:58:12Z</time></trkpt><trkpt lat="43.372067708812814" lon="11.943344464908039"><ele>665.0</ele><time>2026-04-11T08:58:14Z</time></trkpt><trkpt lat="43.372000473684146" lon="11.943362896493138"><ele>665.0</ele><time>2026-04-11T08:58:16Z</time></trkpt><trkpt lat="43.37191277038574" lon="11.943392990046794"><ele>665.0</ele><time>2026-04-11T08:58:19Z</time></trkpt><trkpt lat="43.371830141424134" lon="11.94342151579915"><ele>668.0</ele><time>2026-04-11T08:58:21Z</time></trkpt><trkpt lat="43.37176088458838" lon="11.943434777497746"><ele>671.0</ele><time>2026-04-11T08:58:23Z</time></trkpt><trkpt lat="43.371675032651325" lon="11.943453362084744"><ele>674.0</ele><time>2026-04-11T08:58:25Z</time></trkpt><trkpt lat="43.37156872578311" lon="11.94349695474586"><ele>677.0</ele><time>2026-04-11T08:58:27Z</time></trkpt><trkpt lat="43.37148774143778" lon="11.94355899402859"><ele>680.0</ele><time>2026-04-11T08:58:29Z</time></trkpt><trkpt lat="43.37139132577834" lon="11.943636972897433"><ele>675.2</ele><time>2026-04-11T08:58:31Z</time></trkpt><trkpt lat="43.3713121159961" lon="11.943736059212203"><ele>670.4</ele><time>2026-04-11T08:58:33Z</time></trkpt><trkpt lat="43.37124096006766" lon="11.943852878032882"><ele>665.5999999999999</ele><time>2026-04-11T08:58:35Z</time></trkpt><trkpt lat="43.37118146599917" lon="11.943962430948615"><ele>660.8</ele><time>2026-04-11T08:58:37Z</time></trkpt><trkpt lat="43.37112102553369" lon="11.944000549363512"><ele>656.0</ele><time>2026-04-11T08:58:38Z</time></trkpt><trkpt lat="43.371054250704034" lon="11.944005193386003"><ele>656.0</ele><time>2026-04-11T08:58:39Z</time></trkpt><trkpt lat="43.37099051147339" lon="11.94399983574832"><ele>656.0</ele><time>2026-04-11T08:58:40Z</time></trkpt><trkpt lat="43.370874839054146" lon="11.943988245787324"><ele>656.0</ele><time>2026-04-11T08:58:42Z</time></trkpt><trkpt lat="43.37076122717809" lon="11.944020020911426"><ele>656.0</ele><time>2026-04-11T08:58:44Z</time></trkpt><trkpt lat="43.37067291245557" lon="11.944071706427707"><ele>656.0</ele><time>2026-04-11T08:58:46Z</time></trkpt><trkpt lat="43.37063215661294" lon="11.944168674234529"><ele>655.8333333333333</ele><time>2026-04-11T08:58:48Z</time></trkpt><trkpt lat="43.3706454089925" lon="11.944279902989951"><ele>655.6666666666666</ele><time>2026-04-11T08:58:50Z</time></trkpt><trkpt lat="43.37063744392679" lon="11.944375965228641"><ele>655.5</ele><time>2026-04-11T08:58:52Z</time></trkpt><trkpt lat="43.37056803529333" lon="11.94444161482892"><ele>655.3333333333334</ele><time>2026-04-11T08:58:55Z</time></trkpt><trkpt lat="43.37051108894008" lon="11.94434439575143"><ele>655.1666666666667</ele><time>2026-04-11T08:58:56.999Z</time></trkpt><trkpt lat="43.37044471354246" lon="11.944267067702315"><ele>655.0</ele><time>2026-04-11T08:58:58.999Z</time></trkpt><trkpt lat="43.37037557252312" lon="11.944224657110349"><ele>649.8333333333334</ele><time>2026-04-11T08:59:00.999Z</time></trkpt><trkpt lat="43.37030456075169" lon="11.944168210246328"><ele>644.6666666666667</ele><time>2026-04-11T08:59:02.999Z</time></trkpt><trkpt lat="43.370246573974434" lon="11.944113063039682"><ele>639.5</ele><time>2026-04-11T08:59:04.999Z</time></trkpt><trkpt lat="43.37018150383015" lon="11.944029483046801"><ele>634.3333333333334</ele><time>2026-04-11T08:59:06.999Z</time></trkpt><trkpt lat="43.37011448403607" lon="11.943974133480506"><ele>629.1666666666666</ele><time>2026-04-11T08:59:08.999Z</time></trkpt><trkpt lat="43.37007158047531" lon="11.9439088783966"><ele>624.0</ele><time>2026-04-11T08:59:10.999Z</time></trkpt><trkpt lat="43.370076828007306" lon="11.943775606236676"><ele>624.0</ele><time>2026-04-11T08:59:12.999Z</time></trkpt><trkpt lat="43.37010104185505" lon="11.943656023963342"><ele>624.0</ele><time>2026-04-11T08:59:14.999Z</time></trkpt><trkpt lat="43.37014814668046" lon="11.943543743158388"><ele>624.0</ele><time>2026-04-11T08:59:16.999Z</time></trkpt><trkpt lat="43.370219153054066" lon="11.94344423259926"><ele>624.0</ele><time>2026-04-11T08:59:18.999Z</time></trkpt><trkpt lat="43.370315877540456" lon="11.943381568535958"><ele>624.0</ele><time>2026-04-11T08:59:20.999Z</time></trkpt><trkpt lat="43.370373424351875" lon="11.943262334274554"><ele>625.2</ele><time>2026-04-11T08:59:23Z</time></trkpt><trkpt lat="43.370336780649275" lon="11.943187867782445"><ele>626.4</ele><time>2026-04-11T08:59:24Z</time></trkpt><trkpt lat="43.370262350034764" lon="11.943112707599978"><ele>627.6</ele><time>2026-04-11T08:59:26Z</time></trkpt><trkpt lat="43.37016560788552" lon="11.94314472845464"><ele>628.8</ele><time>2026-04-11T08:59:28Z</time></trkpt><trkpt lat="43.370068378103596" lon="11.943187111578249"><ele>630.0</ele><time>2026-04-11T08:59:30Z</time></trkpt><trkpt lat="43.369954698340706" lon="11.943223127492699"><ele>630.0</ele><time>2026-04-11T08:59:32Z</time></trkpt><trkpt lat="43.369858860224184" lon="11.943267280635263"><ele>630.0</ele><time>2026-04-11T08:59:34Z</time></trkpt><trkpt lat="43.36977135999146" lon="11.943285630157341"><ele>630.0</ele><time>2026-04-11T08:59:36Z</time></trkpt><trkpt lat="43.3696831052406" lon="11.943314645198654"><ele>630.0</ele><time>2026-04-11T08:59:38Z</time></trkpt><trkpt lat="43.36961966420325" lon="11.943399030030818"><ele>630.0</ele><time>2026-04-11T08:59:40Z</time></trkpt><trkpt lat="43.36957279747275" lon="11.943500850225073"><ele>631.4</ele><time>2026-04-11T08:59:42Z</time></trkpt><trkpt lat="43.369566815812384" lon="11.943626247747579"><ele>632.8</ele><time>2026-04-11T08:59:44Z</time></trkpt><trkpt lat="43.369545423363256" lon="11.943750822484642"><ele>634.2</ele><time>2026-04-11T08:59:45.999Z</time></trkpt><trkpt lat="43.3695232540688" lon="11.9438812559486"><ele>635.6</ele><time>2026-04-11T08:59:47.999Z</time></trkpt><trkpt lat="43.36951485848919" lon="11.944051858098906"><ele>637.0</ele><time>2026-04-11T08:59:49.999Z</time></trkpt><trkpt lat="43.36949272048212" lon="11.944146781527005"><ele>634.0</ele><time>2026-04-11T08:59:50.999Z</time></trkpt><trkpt lat="43.36948320089814" lon="11.944247889808043"><ele>631.0</ele><time>2026-04-11T08:59:51.999Z</time></trkpt><trkpt lat="43.36948950766482" lon="11.944337669246178"><ele>628.0</ele><time>2026-04-11T08:59:52.999Z</time></trkpt><trkpt lat="43.36946248204705" lon="11.944433379729102"><ele>625.0</ele><time>2026-04-11T08:59:53.999Z</time></trkpt><trkpt lat="43.369433297759684" lon="11.944605225466708"><ele>622.0</ele><time>2026-04-11T08:59:55.999Z</time></trkpt><trkpt lat="43.369421543632654" lon="11.944721676515044"><ele>619.0</ele><time>2026-04-11T08:59:56.999Z</time></trkpt><trkpt lat="43.36938918665545" lon="11.94482542813519"><ele>619.0</ele><time>2026-04-11T08:59:57.999Z</time></trkpt><trkpt lat="43.369361719308834" lon="11.944927860505734"><ele>619.0</ele><time>2026-04-11T08:59:58.999Z</time></trkpt><trkpt lat="43.369316888963205" lon="11.945011398820487"><ele>619.0</ele><time>2026-04-11T08:59:59.999Z</time></trkpt><trkpt lat="43.3692784865058" lon="11.945100183958207"><ele>619.0</ele><time>2026-04-11T09:00:00.999Z</time></trkpt><trkpt lat="43.36923464562563" lon="11.945201542579545"><ele>619.0</ele><time>2026-04-11T09:00:01.999Z</time></trkpt><trkpt lat="43.36919027739466" lon="11.945302213683819"><ele>619.0</ele><time>2026-04-11T09:00:02.999Z</time></trkpt><trkpt lat="43.369143069213514" lon="11.945404154444017"><ele>617.0</ele><time>2026-04-11T09:00:03.999Z</time></trkpt><trkpt lat="43.36909420337721" lon="11.94550308612674"><ele>615.0</ele><time>2026-04-11T09:00:04.999Z</time></trkpt><trkpt lat="43.369045136526005" lon="11.945594156775943"><ele>613.0</ele><time>2026-04-11T09:00:05.999Z</time></trkpt><trkpt lat="43.3689903880066" lon="11.94567816606004"><ele>611.0</ele><time>2026-04-11T09:00:06.999Z</time></trkpt><trkpt lat="43.368927415292255" lon="11.945762370930066"><ele>609.0</ele><time>2026-04-11T09:00:07.999Z</time></trkpt><trkpt lat="43.36886368257981" lon="11.94583600475541"><ele>607.0</ele><time>2026-04-11T09:00:08.999Z</time></trkpt><trkpt lat="43.3687972938919" lon="11.94591289805375"><ele>605.0</ele><time>2026-04-11T09:00:09.999Z</time></trkpt><trkpt lat="43.3687346513645" lon="11.945988676460198"><ele>603.0</ele><time>2026-04-11T09:00:10.999Z</time></trkpt><trkpt lat="43.36867148344844" lon="11.946065090424236"><ele>601.0</ele><time>2026-04-11T09:00:11.999Z</time></trkpt><trkpt lat="43.3686094606206" lon="11.946140500151474"><ele>599.0</ele><time>2026-04-11T09:00:12.999Z</time></trkpt><trkpt lat="43.36855331830865" lon="11.946211667742837"><ele>597.0</ele><time>2026-04-11T09:00:13.999Z</time></trkpt><trkpt lat="43.368494994056974" lon="11.946293211229458"><ele>595.0</ele><time>2026-04-11T09:00:14.999Z</time></trkpt><trkpt lat="43.36843835939685" lon="11.94638208540378"><ele>595.0</ele><time>2026-04-11T09:00:15.999Z</time></trkpt><trkpt lat="43.368397436229756" lon="11.946482151014534"><ele>595.0</ele><time>2026-04-11T09:00:16.999Z</time></trkpt><trkpt lat="43.36834274624181" lon="11.946557766625098"><ele>595.0</ele><time>2026-04-11T09:00:17.999Z</time></trkpt><trkpt lat="43.368289832481395" lon="11.946622579579033"><ele>595.0</ele><time>2026-04-11T09:00:18.999Z</time></trkpt><trkpt lat="43.368230185259144" lon="11.946698130865952"><ele>595.0</ele><time>2026-04-11T09:00:19.999Z</time></trkpt><trkpt lat="43.368169304509564" lon="11.946780414418718"><ele>595.0</ele><time>2026-04-11T09:00:20.999Z</time></trkpt><trkpt lat="43.36809239782798" lon="11.946814979927243"><ele>595.0</ele><time>2026-04-11T09:00:21.999Z</time></trkpt><trkpt lat="43.368017940331654" lon="11.946852931983026"><ele>595.0</ele><time>2026-04-11T09:00:22.999Z</time></trkpt><trkpt lat="43.36794170146333" lon="11.94690116252429"><ele>595.0</ele><time>2026-04-11T09:00:23.999Z</time></trkpt><trkpt lat="43.36787060293522" lon="11.946968827139507"><ele>595.0</ele><time>2026-04-11T09:00:24.999Z</time></trkpt><trkpt lat="43.367818335179294" lon="11.947061396966863"><ele>595.0</ele><time>2026-04-11T09:00:25.999Z</time></trkpt><trkpt lat="43.36776113007319" lon="11.947140635803427"><ele>595.0</ele><time>2026-04-11T09:00:26.999Z</time></trkpt><trkpt lat="43.367718799729495" lon="11.947231043074622"><ele>595.0</ele><time>2026-04-11T09:00:27.999Z</time></trkpt><trkpt lat="43.367680959117074" lon="11.947339407380703"><ele>595.0</ele><time>2026-04-11T09:00:28.999Z</time></trkpt><trkpt lat="43.36764625601649" lon="11.94744836062026"><ele>595.0</ele><time>2026-04-11T09:00:29.999Z</time></trkpt><trkpt lat="43.367613633134" lon="11.947550423672801"><ele>595.0</ele><time>2026-04-11T09:00:30.999Z</time></trkpt><trkpt lat="43.36758848917633" lon="11.947656544107444"><ele>595.0</ele><time>2026-04-11T09:00:31.999Z</time></trkpt><trkpt lat="43.36756983130321" lon="11.947768250188998"><ele>595.0</ele><time>2026-04-11T09:00:32.999Z</time></trkpt><trkpt lat="43.3675535842846" lon="11.947892138998784"><ele>593.4</ele><time>2026-04-11T09:00:33.999Z</time></trkpt><trkpt lat="43.36754805360772" lon="11.948017499751138"><ele>591.8</ele><time>2026-04-11T09:00:34.999Z</time></trkpt><trkpt lat="43.36754785784989" lon="11.9481422351119"><ele>590.2</ele><time>2026-04-11T09:00:35.999Z</time></trkpt><trkpt lat="43.36754707309298" lon="11.948267022525979"><ele>588.6</ele><time>2026-04-11T09:00:36.999Z</time></trkpt><trkpt lat="43.36755255398405" lon="11.948392528294418"><ele>587.0</ele><time>2026-04-11T09:00:37.999Z</time></trkpt><trkpt lat="43.3675585611489" lon="11.948510699578675"><ele>586.1666666666666</ele><time>2026-04-11T09:00:38.999Z</time></trkpt><trkpt lat="43.36756443169147" lon="11.9486187761172"><ele>585.3333333333333</ele><time>2026-04-11T09:00:39.999Z</time></trkpt><trkpt lat="43.36757001347209" lon="11.948737180424256"><ele>584.5</ele><time>2026-04-11T09:00:40.999Z</time></trkpt><trkpt lat="43.3675736642769" lon="11.948864700400927"><ele>583.6666666666666</ele><time>2026-04-11T09:00:41.999Z</time></trkpt><trkpt lat="43.36757886162645" lon="11.94896922317708"><ele>582.8333333333334</ele><time>2026-04-11T09:00:42.999Z</time></trkpt><trkpt lat="43.36758635818616" lon="11.949084038572128"><ele>582.0</ele><time>2026-04-11T09:00:43.999Z</time></trkpt><trkpt lat="43.367592375181076" lon="11.949200704218313"><ele>580.6666666666666</ele><time>2026-04-11T09:00:44.999Z</time></trkpt><trkpt lat="43.36758328962428" lon="11.949299837150614"><ele>579.3333333333334</ele><time>2026-04-11T09:00:45.999Z</time></trkpt><trkpt lat="43.367586993707626" lon="11.949402241169931"><ele>578.0</ele><time>2026-04-11T09:00:46.999Z</time></trkpt><trkpt lat="43.36760717515924" lon="11.949508034168579"><ele>576.6666666666667</ele><time>2026-04-11T09:00:47.999Z</time></trkpt><trkpt lat="43.36760790315452" lon="11.949599733796486"><ele>575.3333333333334</ele><time>2026-04-11T09:00:48.999Z</time></trkpt><trkpt lat="43.367614338229764" lon="11.949745434581965"><ele>574.0</ele><time>2026-04-11T09:00:50.999Z</time></trkpt><trkpt lat="43.36761435398111" lon="11.949836352551385"><ele>574.0</ele><time>2026-04-11T09:00:52.999Z</time></trkpt><trkpt lat="43.367761721928" lon="11.949872213780369"><ele>574.0</ele><time>2026-04-11T09:00:56.999Z</time></trkpt><trkpt lat="43.36785550512384" lon="11.949834884032498"><ele>574.0</ele><time>2026-04-11T09:00:58.999Z</time></trkpt><trkpt lat="43.3679392541393" lon="11.949815445883276"><ele>574.0</ele><time>2026-04-11T09:01:00.999Z</time></trkpt><trkpt lat="43.368013226290195" lon="11.949872536282447"><ele>574.0</ele><time>2026-04-11T09:01:02.999Z</time></trkpt><trkpt lat="43.368073977230644" lon="11.949971932820898"><ele>572.0</ele><time>2026-04-11T09:01:04.999Z</time></trkpt><trkpt lat="43.36813251586565" lon="11.95009663075724"><ele>570.0</ele><time>2026-04-11T09:01:06.999Z</time></trkpt><trkpt lat="43.368190553795124" lon="11.950228929167078"><ele>568.0</ele><time>2026-04-11T09:01:08.999Z</time></trkpt><trkpt lat="43.368253537822625" lon="11.950362083543876"><ele>566.0</ele><time>2026-04-11T09:01:10.999Z</time></trkpt><trkpt lat="43.368296364452306" lon="11.950425610925969"><ele>564.0</ele><time>2026-04-11T09:01:11.999Z</time></trkpt><trkpt lat="43.368342818074666" lon="11.950491742163525"><ele>564.0</ele><time>2026-04-11T09:01:12.999Z</time></trkpt><trkpt lat="43.36839359821157" lon="11.950566192360135"><ele>564.0</ele><time>2026-04-11T09:01:13.999Z</time></trkpt><trkpt lat="43.36844868818277" lon="11.950647924843814"><ele>564.0</ele><time>2026-04-11T09:01:14.999Z</time></trkpt><trkpt lat="43.36849954601155" lon="11.95073226787261"><ele>564.0</ele><time>2026-04-11T09:01:15.999Z</time></trkpt><trkpt lat="43.36854683365168" lon="11.950819871455867"><ele>564.0</ele><time>2026-04-11T09:01:16.999Z</time></trkpt><trkpt lat="43.3685902643481" lon="11.950905683931042"><ele>564.0</ele><time>2026-04-11T09:01:17.999Z</time></trkpt><trkpt lat="43.368652974276024" lon="11.950982919116091"><ele>564.5</ele><time>2026-04-11T09:01:18.999Z</time></trkpt><trkpt lat="43.368722747172825" lon="11.95105717133104"><ele>565.0</ele><time>2026-04-11T09:01:19.999Z</time></trkpt><trkpt lat="43.368795223882124" lon="11.951125853016261"><ele>565.5</ele><time>2026-04-11T09:01:20.999Z</time></trkpt><trkpt lat="43.3688556066911" lon="11.951207045941638"><ele>566.0</ele><time>2026-04-11T09:01:21.999Z</time></trkpt><trkpt lat="43.368925003078516" lon="11.951266787628231"><ele>566.5</ele><time>2026-04-11T09:01:22.999Z</time></trkpt><trkpt lat="43.36899612100944" lon="11.951327468772352"><ele>567.0</ele><time>2026-04-11T09:01:23.999Z</time></trkpt><trkpt lat="43.36906613601501" lon="11.95138720883437"><ele>566.8333333333334</ele><time>2026-04-11T09:01:24.999Z</time></trkpt><trkpt lat="43.36913529283617" lon="11.951447123125613"><ele>566.6666666666666</ele><time>2026-04-11T09:01:25.999Z</time></trkpt><trkpt lat="43.3692219754024" lon="11.951501404373335"><ele>566.5</ele><time>2026-04-11T09:01:26.999Z</time></trkpt><trkpt lat="43.36928105793488" lon="11.951591889964979"><ele>566.3333333333333</ele><time>2026-04-11T09:01:28Z</time></trkpt><trkpt lat="43.36935314075679" lon="11.951668456228163"><ele>566.1666666666666</ele><time>2026-04-11T09:01:29Z</time></trkpt><trkpt lat="43.369422329112766" lon="11.95174195485305"><ele>566.0</ele><time>2026-04-11T09:01:30Z</time></trkpt><trkpt lat="43.36948939491433" lon="11.951814918244732"><ele>566.0</ele><time>2026-04-11T09:01:31Z</time></trkpt><trkpt lat="43.369550216830696" lon="11.95188887108824"><ele>566.0</ele><time>2026-04-11T09:01:32Z</time></trkpt><trkpt lat="43.36961080604142" lon="11.951975015392149"><ele>566.0</ele><time>2026-04-11T09:01:33Z</time></trkpt><trkpt lat="43.369679640858216" lon="11.952046281137902"><ele>566.0</ele><time>2026-04-11T09:01:34Z</time></trkpt><trkpt lat="43.36973320912974" lon="11.952134222636538"><ele>566.0</ele><time>2026-04-11T09:01:35Z</time></trkpt><trkpt lat="43.36979900924411" lon="11.952214843278389"><ele>566.0</ele><time>2026-04-11T09:01:36Z</time></trkpt><trkpt lat="43.36987446645047" lon="11.952274908136994"><ele>563.8333333333333</ele><time>2026-04-11T09:01:37Z</time></trkpt><trkpt lat="43.36995450574959" lon="11.952306042206509"><ele>561.6666666666666</ele><time>2026-04-11T09:01:38Z</time></trkpt><trkpt lat="43.37003883118331" lon="11.95233899810061"><ele>559.5</ele><time>2026-04-11T09:01:39Z</time></trkpt><trkpt lat="43.370127805805986" lon="11.952335233275557"><ele>557.3333333333334</ele><time>2026-04-11T09:01:40Z</time></trkpt><trkpt lat="43.370220576146906" lon="11.952351410465557"><ele>555.1666666666667</ele><time>2026-04-11T09:01:41Z</time></trkpt><trkpt lat="43.37031049850591" lon="11.952388258450712"><ele>553.0</ele><time>2026-04-11T09:01:42Z</time></trkpt><trkpt lat="43.3704064570631" lon="11.952373172761598"><ele>553.0</ele><time>2026-04-11T09:01:43Z</time></trkpt><trkpt lat="43.37049368898934" lon="11.952362999654804"><ele>553.0</ele><time>2026-04-11T09:01:44Z</time></trkpt><trkpt lat="43.370571380164705" lon="11.952346198796388"><ele>553.0</ele><time>2026-04-11T09:01:45Z</time></trkpt><trkpt lat="43.37065929262644" lon="11.95232366261542"><ele>553.0</ele><time>2026-04-11T09:01:46Z</time></trkpt><trkpt lat="43.37074883317116" lon="11.952307791046108"><ele>553.0</ele><time>2026-04-11T09:01:47Z</time></trkpt><trkpt lat="43.3708415073481" lon="11.952315638222213"><ele>553.0</ele><time>2026-04-11T09:01:48Z</time></trkpt><trkpt lat="43.370931480079626" lon="11.952327894081423"><ele>552.5</ele><time>2026-04-11T09:01:49Z</time></trkpt><trkpt lat="43.3710231161698" lon="11.95233866122739"><ele>552.0</ele><time>2026-04-11T09:01:50Z</time></trkpt><trkpt lat="43.37110773727085" lon="11.952356819926418"><ele>551.5</ele><time>2026-04-11T09:01:51Z</time></trkpt><trkpt lat="43.37118771521396" lon="11.952380203534213"><ele>551.0</ele><time>2026-04-11T09:01:52Z</time></trkpt><trkpt lat="43.37126261546082" lon="11.952415180718923"><ele>550.5</ele><time>2026-04-11T09:01:53Z</time></trkpt><trkpt lat="43.37133090546267" lon="11.952472290676422"><ele>550.0</ele><time>2026-04-11T09:01:54Z</time></trkpt><trkpt lat="43.371394853187944" lon="11.952544244808967"><ele>548.8333333333334</ele><time>2026-04-11T09:01:54.999Z</time></trkpt><trkpt lat="43.37144917919395" lon="11.952625423084513"><ele>547.6666666666667</ele><time>2026-04-11T09:01:55.999Z</time></trkpt><trkpt lat="43.371500700349095" lon="11.952706405938429"><ele>546.5</ele><time>2026-04-11T09:01:56.999Z</time></trkpt><trkpt lat="43.371547755941585" lon="11.952781476772715"><ele>545.3333333333334</ele><time>2026-04-11T09:01:57.999Z</time></trkpt><trkpt lat="43.37159676576736" lon="11.952855797112663"><ele>544.1666666666666</ele><time>2026-04-11T09:01:58.999Z</time></trkpt><trkpt lat="43.371653136268044" lon="11.952928535011521"><ele>543.0</ele><time>2026-04-11T09:01:59.999Z</time></trkpt><trkpt lat="43.37171551173405" lon="11.95300035477984"><ele>543.0</ele><time>2026-04-11T09:02:00.999Z</time></trkpt><trkpt lat="43.37178269891775" lon="11.953060887477195"><ele>543.0</ele><time>2026-04-11T09:02:01.999Z</time></trkpt><trkpt lat="43.37185419304258" lon="11.953114082485198"><ele>543.0</ele><time>2026-04-11T09:02:02.999Z</time></trkpt><trkpt lat="43.371930367809085" lon="11.953162948078294"><ele>543.0</ele><time>2026-04-11T09:02:03.999Z</time></trkpt><trkpt lat="43.37200906250524" lon="11.953199516662387"><ele>543.0</ele><time>2026-04-11T09:02:04.999Z</time></trkpt><trkpt lat="43.37209064379506" lon="11.95322460449721"><ele>543.0</ele><time>2026-04-11T09:02:05.999Z</time></trkpt><trkpt lat="43.37217500702625" lon="11.95325447417227"><ele>543.4</ele><time>2026-04-11T09:02:06.999Z</time></trkpt><trkpt lat="43.37225755010941" lon="11.953301656703715"><ele>543.8</ele><time>2026-04-11T09:02:07.999Z</time></trkpt><trkpt lat="43.372336500802234" lon="11.953372744863135"><ele>544.2</ele><time>2026-04-11T09:02:08.999Z</time></trkpt><trkpt lat="43.37240768031753" lon="11.953454250288674"><ele>544.6</ele><time>2026-04-11T09:02:09.999Z</time></trkpt><trkpt lat="43.37247623229038" lon="11.953536910101018"><ele>545.0</ele><time>2026-04-11T09:02:10.999Z</time></trkpt><trkpt lat="43.3725436850392" lon="11.953605469800575"><ele>543.3333333333333</ele><time>2026-04-11T09:02:11.999Z</time></trkpt><trkpt lat="43.37261550206329" lon="11.953655891300166"><ele>541.6666666666666</ele><time>2026-04-11T09:02:12.999Z</time></trkpt><trkpt lat="43.37268919702571" lon="11.95369573342447"><ele>540.0</ele><time>2026-04-11T09:02:13.999Z</time></trkpt><trkpt lat="43.372762519975836" lon="11.953732514561805"><ele>538.3333333333334</ele><time>2026-04-11T09:02:14.999Z</time></trkpt><trkpt lat="43.37284000515959" lon="11.953768653348984"><ele>536.6666666666667</ele><time>2026-04-11T09:02:15.999Z</time></trkpt><trkpt lat="43.37292061503864" lon="11.953809335261083"><ele>535.0</ele><time>2026-04-11T09:02:16.999Z</time></trkpt><trkpt lat="43.373001506819854" lon="11.95385220900033"><ele>534.3333333333334</ele><time>2026-04-11T09:02:17.999Z</time></trkpt><trkpt lat="43.373083270294956" lon="11.95389304878507"><ele>533.6666666666667</ele><time>2026-04-11T09:02:18.999Z</time></trkpt><trkpt lat="43.373158682164544" lon="11.953929560405168"><ele>533.0</ele><time>2026-04-11T09:02:19.999Z</time></trkpt><trkpt lat="43.37322921479988" lon="11.95396550292404"><ele>532.3333333333334</ele><time>2026-04-11T09:02:20.999Z</time></trkpt><trkpt lat="43.37330348688313" lon="11.953990628896802"><ele>531.6666666666666</ele><time>2026-04-11T09:02:21.999Z</time></trkpt><trkpt lat="43.37338626744614" lon="11.954007626322015"><ele>531.0</ele><time>2026-04-11T09:02:22.999Z</time></trkpt><trkpt lat="43.37347624472496" lon="11.954015115127616"><ele>531.0</ele><time>2026-04-11T09:02:23.999Z</time></trkpt><trkpt lat="43.37357202635257" lon="11.95401619296393"><ele>531.0</ele><time>2026-04-11T09:02:24.999Z</time></trkpt><trkpt lat="43.37366861801427" lon="11.954032942491185"><ele>531.0</ele><time>2026-04-11T09:02:25.999Z</time></trkpt><trkpt lat="43.373762801789" lon="11.954065499078398"><ele>531.0</ele><time>2026-04-11T09:02:26.999Z</time></trkpt><trkpt lat="43.3738508413709" lon="11.95409715688986"><ele>531.0</ele><time>2026-04-11T09:02:27.999Z</time></trkpt><trkpt lat="43.37393430586258" lon="11.95412316584087"><ele>531.3333333333334</ele><time>2026-04-11T09:02:28.999Z</time></trkpt><trkpt lat="43.37400797752064" lon="11.954150121213784"><ele>531.6666666666666</ele><time>2026-04-11T09:02:29.999Z</time></trkpt><trkpt lat="43.37408457340035" lon="11.954177300464298"><ele>532.0</ele><time>2026-04-11T09:02:30.999Z</time></trkpt><trkpt lat="43.3741625283733" lon="11.954207914815967"><ele>532.3333333333333</ele><time>2026-04-11T09:02:31.999Z</time></trkpt><trkpt lat="43.37423941398352" lon="11.954240786431631"><ele>532.6666666666666</ele><time>2026-04-11T09:02:32.999Z</time></trkpt><trkpt lat="43.37431879487784" lon="11.954278512788303"><ele>533.0</ele><time>2026-04-11T09:02:33.999Z</time></trkpt><trkpt lat="43.37440213532496" lon="11.954321441160966"><ele>532.3333333333333</ele><time>2026-04-11T09:02:34.999Z</time></trkpt><trkpt lat="43.37448097716471" lon="11.954373474840535"><ele>531.6666666666666</ele><time>2026-04-11T09:02:35.999Z</time></trkpt><trkpt lat="43.3745551939444" lon="11.954432486456364"><ele>531.0</ele><time>2026-04-11T09:02:36.999Z</time></trkpt><trkpt lat="43.37462687702059" lon="11.954498569845253"><ele>530.3333333333334</ele><time>2026-04-11T09:02:37.999Z</time></trkpt><trkpt lat="43.3747019017381" lon="11.954547960553509"><ele>529.6666666666667</ele><time>2026-04-11T09:02:38.999Z</time></trkpt><trkpt lat="43.37477586066368" lon="11.954603895531315"><ele>529.0</ele><time>2026-04-11T09:02:39.999Z</time></trkpt><trkpt lat="43.37485352533682" lon="11.954676010262954"><ele>527.4</ele><time>2026-04-11T09:02:40.999Z</time></trkpt><trkpt lat="43.37493474090531" lon="11.954731837004388"><ele>525.8</ele><time>2026-04-11T09:02:41.999Z</time></trkpt><trkpt lat="43.37500620500355" lon="11.954795849243567"><ele>524.2</ele><time>2026-04-11T09:02:42.999Z</time></trkpt><trkpt lat="43.37508110502726" lon="11.95486814240537"><ele>522.6</ele><time>2026-04-11T09:02:43.999Z</time></trkpt><trkpt lat="43.37516822624507" lon="11.954937318763891"><ele>521.0</ele><time>2026-04-11T09:02:44.999Z</time></trkpt><trkpt lat="43.37525423791779" lon="11.955003055828872"><ele>520.0</ele><time>2026-04-11T09:02:45.999Z</time></trkpt><trkpt lat="43.375338353736815" lon="11.955064903165812"><ele>519.0</ele><time>2026-04-11T09:02:46.999Z</time></trkpt><trkpt lat="43.375427385150196" lon="11.955119518245088"><ele>518.0</ele><time>2026-04-11T09:02:47.999Z</time></trkpt><trkpt lat="43.37551733502538" lon="11.95516872734235"><ele>517.0</ele><time>2026-04-11T09:02:48.999Z</time></trkpt><trkpt lat="43.37560296511293" lon="11.955226440539866"><ele>516.0</ele><time>2026-04-11T09:02:49.999Z</time></trkpt><trkpt lat="43.37568794129259" lon="11.955300940487785"><ele>516.0</ele><time>2026-04-11T09:02:50.999Z</time></trkpt><trkpt lat="43.37576954047229" lon="11.955371199124054"><ele>516.0</ele><time>2026-04-11T09:02:51.999Z</time></trkpt><trkpt lat="43.37585041284191" lon="11.955446637489713"><ele>516.0</ele><time>2026-04-11T09:02:52.999Z</time></trkpt><trkpt lat="43.37592326254029" lon="11.955525647261766"><ele>516.0</ele><time>2026-04-11T09:02:53.999Z</time></trkpt><trkpt lat="43.37599270505459" lon="11.955603638155129"><ele>516.0</ele><time>2026-04-11T09:02:54.999Z</time></trkpt><trkpt lat="43.37606312833648" lon="11.955676399262314"><ele>516.0</ele><time>2026-04-11T09:02:55.999Z</time></trkpt><trkpt lat="43.37613496580295" lon="11.955736808826568"><ele>516.0</ele><time>2026-04-11T09:02:56.999Z</time></trkpt><trkpt lat="43.3762097804839" lon="11.955782480484116"><ele>516.0</ele><time>2026-04-11T09:02:57.999Z</time></trkpt><trkpt lat="43.37628352801912" lon="11.955813149172215"><ele>516.0</ele><time>2026-04-11T09:02:58.999Z</time></trkpt><trkpt lat="43.37636372389188" lon="11.955825269197101"><ele>516.0</ele><time>2026-04-11T09:02:59.999Z</time></trkpt><trkpt lat="43.37644651033212" lon="11.955839788096512"><ele>516.0</ele><time>2026-04-11T09:03:00.999Z</time></trkpt><trkpt lat="43.37653647414522" lon="11.955856346150567"><ele>516.2</ele><time>2026-04-11T09:03:01.999Z</time></trkpt><trkpt lat="43.37662950287681" lon="11.955879332742517"><ele>516.4000000000001</ele><time>2026-04-11T09:03:02.999Z</time></trkpt><trkpt lat="43.37671745674994" lon="11.955904778220086"><ele>516.6</ele><time>2026-04-11T09:03:03.999Z</time></trkpt><trkpt lat="43.37680367421896" lon="11.955933619412342"><ele>516.8000000000001</ele><time>2026-04-11T09:03:04.999Z</time></trkpt><trkpt lat="43.37688655672719" lon="11.95596608674394"><ele>517.0</ele><time>2026-04-11T09:03:05.999Z</time></trkpt><trkpt lat="43.37697595033543" lon="11.955989149178132"><ele>517.0</ele><time>2026-04-11T09:03:06.999Z</time></trkpt><trkpt lat="43.37705953173273" lon="11.956029031128077"><ele>517.0</ele><time>2026-04-11T09:03:07.999Z</time></trkpt><trkpt lat="43.37714492667033" lon="11.956064984444797"><ele>517.0</ele><time>2026-04-11T09:03:08.999Z</time></trkpt><trkpt lat="43.37723380996768" lon="11.956085146330581"><ele>517.0</ele><time>2026-04-11T09:03:09.999Z</time></trkpt><trkpt lat="43.37732826954282" lon="11.956089730139688"><ele>517.0</ele><time>2026-04-11T09:03:10.999Z</time></trkpt><trkpt lat="43.377425910287776" lon="11.9560856948343"><ele>517.4</ele><time>2026-04-11T09:03:11.999Z</time></trkpt><trkpt lat="43.377526205509575" lon="11.956070432052114"><ele>517.8000000000001</ele><time>2026-04-11T09:03:12.999Z</time></trkpt><trkpt lat="43.3776309501365" lon="11.956053698466926"><ele>518.2</ele><time>2026-04-11T09:03:13.999Z</time></trkpt><trkpt lat="43.37773442351027" lon="11.956040131351129"><ele>518.6</ele><time>2026-04-11T09:03:14.999Z</time></trkpt><trkpt lat="43.37783808563072" lon="11.956032048226158"><ele>519.0</ele><time>2026-04-11T09:03:15.999Z</time></trkpt><trkpt lat="43.37793600107498" lon="11.956015018965806"><ele>517.2</ele><time>2026-04-11T09:03:16.999Z</time></trkpt><trkpt lat="43.37803480507624" lon="11.956011944751333"><ele>515.4</ele><time>2026-04-11T09:03:17.999Z</time></trkpt><trkpt lat="43.37813129110589" lon="11.95602409118536"><ele>513.6</ele><time>2026-04-11T09:03:18.999Z</time></trkpt><trkpt lat="43.37822511227471" lon="11.956055077781562"><ele>511.8</ele><time>2026-04-11T09:03:19.999Z</time></trkpt><trkpt lat="43.378313230309644" lon="11.956109967690113"><ele>510.0</ele><time>2026-04-11T09:03:20.999Z</time></trkpt><trkpt lat="43.37840251059028" lon="11.95617635165112"><ele>510.0</ele><time>2026-04-11T09:03:21.999Z</time></trkpt><trkpt lat="43.37847530558023" lon="11.956257507976435"><ele>510.0</ele><time>2026-04-11T09:03:22.999Z</time></trkpt><trkpt lat="43.37855213421339" lon="11.956336039222016"><ele>510.0</ele><time>2026-04-11T09:03:23.999Z</time></trkpt><trkpt lat="43.37862760071138" lon="11.956408492777342"><ele>510.0</ele><time>2026-04-11T09:03:24.999Z</time></trkpt><trkpt lat="43.37869803995076" lon="11.956492616775988"><ele>510.0</ele><time>2026-04-11T09:03:25.999Z</time></trkpt><trkpt lat="43.37876518525045" lon="11.956589144301933"><ele>510.0</ele><time>2026-04-11T09:03:26.999Z</time></trkpt><trkpt lat="43.378824876747835" lon="11.956689643365156"><ele>510.0</ele><time>2026-04-11T09:03:27.999Z</time></trkpt><trkpt lat="43.37887267308253" lon="11.956800934717744"><ele>510.0</ele><time>2026-04-11T09:03:28.999Z</time></trkpt><trkpt lat="43.37891292412526" lon="11.95691788459006"><ele>510.0</ele><time>2026-04-11T09:03:29.999Z</time></trkpt><trkpt lat="43.37894319043651" lon="11.957041369323182"><ele>510.0</ele><time>2026-04-11T09:03:30.999Z</time></trkpt><trkpt lat="43.37896435107579" lon="11.957162122064124"><ele>509.0</ele><time>2026-04-11T09:03:31.999Z</time></trkpt><trkpt lat="43.378997934366325" lon="11.95728116274005"><ele>508.0</ele><time>2026-04-11T09:03:32.999Z</time></trkpt><trkpt lat="43.379106847468" lon="11.957480295656708"><ele>507.0</ele><time>2026-04-11T09:03:35Z</time></trkpt><trkpt lat="43.37916323586169" lon="11.9575705346614"><ele>506.0</ele><time>2026-04-11T09:03:36Z</time></trkpt><trkpt lat="43.37922425672705" lon="11.957654985485593"><ele>505.0</ele><time>2026-04-11T09:03:37Z</time></trkpt><trkpt lat="43.379287150248764" lon="11.957731126369968"><ele>504.33333333333337</ele><time>2026-04-11T09:03:38Z</time></trkpt><trkpt lat="43.37935518407204" lon="11.957794284610461"><ele>503.6666666666667</ele><time>2026-04-11T09:03:39Z</time></trkpt><trkpt lat="43.37942252335335" lon="11.957857535932533"><ele>503.0</ele><time>2026-04-11T09:03:40Z</time></trkpt><trkpt lat="43.37949030133484" lon="11.957920765432155"><ele>502.33333333333337</ele><time>2026-04-11T09:03:41Z</time></trkpt><trkpt lat="43.37955989997041" lon="11.9579783016066"><ele>501.6666666666667</ele><time>2026-04-11T09:03:42Z</time></trkpt><trkpt lat="43.37963045080765" lon="11.958024407453406"><ele>501.0</ele><time>2026-04-11T09:03:43Z</time></trkpt><trkpt lat="43.3796980971684" lon="11.958052623620961"><ele>500.0</ele><time>2026-04-11T09:03:44Z</time></trkpt><trkpt lat="43.37976634505435" lon="11.958066997662499"><ele>499.0</ele><time>2026-04-11T09:03:45Z</time></trkpt><trkpt lat="43.379835119791316" lon="11.958069716098601"><ele>498.0</ele><time>2026-04-11T09:03:46Z</time></trkpt><trkpt lat="43.37990454428733" lon="11.95806590677001"><ele>497.0</ele><time>2026-04-11T09:03:47Z</time></trkpt><trkpt lat="43.37997321736986" lon="11.958057553563549"><ele>496.0</ele><time>2026-04-11T09:03:48Z</time></trkpt><trkpt lat="43.3800392065892" lon="11.95803868739321"><ele>495.0</ele><time>2026-04-11T09:03:49Z</time></trkpt><trkpt lat="43.38010082109493" lon="11.958007896611939"><ele>494.0</ele><time>2026-04-11T09:03:50Z</time></trkpt><trkpt lat="43.38015900665186" lon="11.957966518106685"><ele>494.0</ele><time>2026-04-11T09:03:51Z</time></trkpt><trkpt lat="43.38026419539479" lon="11.957891412030849"><ele>494.0</ele><time>2026-04-11T09:03:53Z</time></trkpt><trkpt lat="43.380342951256395" lon="11.957818031536505"><ele>494.0</ele><time>2026-04-11T09:03:55Z</time></trkpt><trkpt lat="43.38041442569858" lon="11.957783617376291"><ele>494.0</ele><time>2026-04-11T09:03:58Z</time></trkpt><trkpt lat="43.380386045005096" lon="11.957898481385659"><ele>494.0</ele><time>2026-04-11T09:04:01Z</time></trkpt><trkpt lat="43.380327312416135" lon="11.95796339652597"><ele>494.0</ele><time>2026-04-11T09:04:03Z</time></trkpt><trkpt lat="43.380296354133534" lon="11.958038962432653"><ele>494.0</ele><time>2026-04-11T09:04:05Z</time></trkpt><trkpt lat="43.38030435928987" lon="11.958135628031243"><ele>494.0</ele><time>2026-04-11T09:04:08Z</time></trkpt><trkpt lat="43.38027465990536" lon="11.95822690044089"><ele>494.0</ele><time>2026-04-11T09:04:11Z</time></trkpt><trkpt lat="43.38023704385043" lon="11.958305179752097"><ele>494.0</ele><time>2026-04-11T09:04:15.999Z</time></trkpt><trkpt lat="43.3802035808905" lon="11.958386929753072"><ele>494.0</ele><time>2026-04-11T09:04:56.999Z</time></trkpt><trkpt lat="43.380147997567725" lon="11.95848306519037"><ele>494.0</ele><time>2026-04-11T09:05:00.999Z</time></trkpt><trkpt lat="43.38011019452174" lon="11.958571691249418"><ele>494.16666666666663</ele><time>2026-04-11T09:05:02.999Z</time></trkpt><trkpt lat="43.380089096134135" lon="11.9586812657417"><ele>494.3333333333333</ele><time>2026-04-11T09:05:04.999Z</time></trkpt><trkpt lat="43.38009100558523" lon="11.958809159862566"><ele>494.5</ele><time>2026-04-11T09:05:06.999Z</time></trkpt><trkpt lat="43.380096009604635" lon="11.958925686843559"><ele>494.66666666666663</ele><time>2026-04-11T09:05:08.999Z</time></trkpt><trkpt lat="43.38009180385599" lon="11.959049138332173"><ele>494.8333333333333</ele><time>2026-04-11T09:05:10.999Z</time></trkpt><trkpt lat="43.38011975483929" lon="11.95915103440377"><ele>495.0</ele><time>2026-04-11T09:05:12.999Z</time></trkpt><trkpt lat="43.38016786728177" lon="11.959242188241094"><ele>494.99999999999994</ele><time>2026-04-11T09:05:14.999Z</time></trkpt><trkpt lat="43.38020493707617" lon="11.959347412332669"><ele>495.0</ele><time>2026-04-11T09:05:16.999Z</time></trkpt><trkpt lat="43.380251026604995" lon="11.959428504905743"><ele>494.99999999999994</ele><time>2026-04-11T09:05:18.999Z</time></trkpt><trkpt lat="43.38030043839618" lon="11.959504041439693"><ele>494.99999999999994</ele><time>2026-04-11T09:05:21.999Z</time></trkpt><trkpt lat="43.380364219261565" lon="11.95955334000415"><ele>495.0</ele><time>2026-04-11T09:05:25.999Z</time></trkpt><trkpt lat="43.38036746055221" lon="11.959660005031767"><ele>494.99999999999994</ele><time>2026-04-11T09:05:29.999Z</time></trkpt><trkpt lat="43.38034597137279" lon="11.959743169019784"><ele>494.99999999999994</ele><time>2026-04-11T09:05:32.999Z</time></trkpt><trkpt lat="43.38033075709801" lon="11.959848061750337"><ele>495.0</ele><time>2026-04-11T09:05:36.999Z</time></trkpt><trkpt lat="43.38032514649407" lon="11.959967456413638"><ele>495.0</ele><time>2026-04-11T09:05:40Z</time></trkpt><trkpt lat="43.380309745990274" lon="11.96007938646285"><ele>495.0</ele><time>2026-04-11T09:05:42Z</time></trkpt><trkpt lat="43.38033293752" lon="11.960178901541875"><ele>495.0</ele><time>2026-04-11T09:05:44Z</time></trkpt><trkpt lat="43.38035104134834" lon="11.960283530803332"><ele>495.0</ele><time>2026-04-11T09:05:46Z</time></trkpt><trkpt lat="43.38037361996808" lon="11.960406079709529"><ele>495.0</ele><time>2026-04-11T09:05:48Z</time></trkpt><trkpt lat="43.38036983098365" lon="11.960532832570438"><ele>495.6666666666667</ele><time>2026-04-11T09:05:50Z</time></trkpt><trkpt lat="43.38039483785118" lon="11.96065932006153"><ele>496.33333333333337</ele><time>2026-04-11T09:05:52Z</time></trkpt><trkpt lat="43.38038855145009" lon="11.960773336805959"><ele>497.0</ele><time>2026-04-11T09:05:54Z</time></trkpt><trkpt lat="43.380364425454395" lon="11.960876348131237"><ele>497.6666666666667</ele><time>2026-04-11T09:05:56Z</time></trkpt><trkpt lat="43.380370540620795" lon="11.961000134362306"><ele>498.33333333333337</ele><time>2026-04-11T09:05:58Z</time></trkpt><trkpt lat="43.380395967176895" lon="11.961118229146795"><ele>499.0</ele><time>2026-04-11T09:06:00Z</time></trkpt><trkpt lat="43.38041181280876" lon="11.961224164807076"><ele>499.28571428571433</ele><time>2026-04-11T09:06:02Z</time></trkpt><trkpt lat="43.380415275262195" lon="11.96131174083946"><ele>499.57142857142856</ele><time>2026-04-11T09:06:04Z</time></trkpt><trkpt lat="43.38046624026887" lon="11.961374023555397"><ele>499.8571428571429</ele><time>2026-04-11T09:06:06Z</time></trkpt><trkpt lat="43.38051541112802" lon="11.961450478950455"><ele>500.14285714285717</ele><time>2026-04-11T09:06:08Z</time></trkpt><trkpt lat="43.38053274399437" lon="11.961549821702805"><ele>500.42857142857144</ele><time>2026-04-11T09:06:10Z</time></trkpt><trkpt lat="43.38056470028642" lon="11.961655054266073"><ele>500.7142857142857</ele><time>2026-04-11T09:06:12Z</time></trkpt><trkpt lat="43.38059156722382" lon="11.961765056746266"><ele>501.0</ele><time>2026-04-11T09:06:14Z</time></trkpt><trkpt lat="43.38060986377934" lon="11.961868874923931"><ele>505.1666666666667</ele><time>2026-04-11T09:06:16Z</time></trkpt><trkpt lat="43.38056829240798" lon="11.961946217427899"><ele>509.33333333333337</ele><time>2026-04-11T09:06:20Z</time></trkpt><trkpt lat="43.38059319826464" lon="11.962050176745043"><ele>513.5</ele><time>2026-04-11T09:06:22Z</time></trkpt><trkpt lat="43.380619854392" lon="11.962132531648088"><ele>517.6666666666667</ele><time>2026-04-11T09:06:24Z</time></trkpt><trkpt lat="43.380634260161145" lon="11.962218639430645"><ele>521.8333333333334</ele><time>2026-04-11T09:06:25Z</time></trkpt><trkpt lat="43.38062650100972" lon="11.962339121659246"><ele>526.0</ele><time>2026-04-11T09:06:26.999Z</time></trkpt><trkpt lat="43.380565214547836" lon="11.962431349855908"><ele>526.8333333333334</ele><time>2026-04-11T09:06:29.999Z</time></trkpt><trkpt lat="43.380529243793156" lon="11.962536183253592"><ele>527.6666666666667</ele><time>2026-04-11T09:06:33.999Z</time></trkpt><trkpt lat="43.38052386491142" lon="11.962641907741801"><ele>528.5</ele><time>2026-04-11T09:06:36.999Z</time></trkpt><trkpt lat="43.38059547092892" lon="11.962721254026468"><ele>529.3333333333334</ele><time>2026-04-11T09:06:39.999Z</time></trkpt><trkpt lat="43.38068513537745" lon="11.962766972441267"><ele>530.1666666666666</ele><time>2026-04-11T09:06:41.999Z</time></trkpt><trkpt lat="43.38076148194439" lon="11.962815730146588"><ele>531.0</ele><time>2026-04-11T09:06:43.999Z</time></trkpt><trkpt lat="43.380846727617694" lon="11.962821135072728"><ele>531.0</ele><time>2026-04-11T09:06:46.999Z</time></trkpt><trkpt lat="43.380904399332074" lon="11.962930022795836"><ele>531.0</ele><time>2026-04-11T09:06:49.999Z</time></trkpt><trkpt lat="43.38086435642858" lon="11.963025126909145"><ele>531.0</ele><time>2026-04-11T09:06:51.999Z</time></trkpt><trkpt lat="43.380819014264205" lon="11.96311039743041"><ele>531.0</ele><time>2026-04-11T09:06:54.999Z</time></trkpt><trkpt lat="43.38077138930463" lon="11.963200075314154"><ele>531.0</ele><time>2026-04-11T09:06:56.999Z</time></trkpt><trkpt lat="43.380746433724724" lon="11.96328284881137"><ele>531.0</ele><time>2026-04-11T09:06:58.999Z</time></trkpt><trkpt lat="43.3806994882775" lon="11.963359502666325"><ele>532.5</ele><time>2026-04-11T09:07:00.999Z</time></trkpt><trkpt lat="43.38069939044223" lon="11.963462411579895"><ele>534.0</ele><time>2026-04-11T09:07:02.999Z</time></trkpt><trkpt lat="43.380739420825854" lon="11.963568611697017"><ele>535.5</ele><time>2026-04-11T09:07:04.999Z</time></trkpt><trkpt lat="43.380798943939304" lon="11.96363927365344"><ele>537.0</ele><time>2026-04-11T09:07:06.999Z</time></trkpt><trkpt lat="43.38086858655112" lon="11.96371843061149"><ele>538.5</ele><time>2026-04-11T09:07:08.999Z</time></trkpt><trkpt lat="43.380944943169645" lon="11.963795095354014"><ele>540.0</ele><time>2026-04-11T09:07:10.999Z</time></trkpt><trkpt lat="43.381005392918844" lon="11.963850328591102"><ele>540.0</ele><time>2026-04-11T09:07:12.999Z</time></trkpt><trkpt lat="43.38108138842139" lon="11.963931324850025"><ele>540.0</ele><time>2026-04-11T09:07:15.999Z</time></trkpt><trkpt lat="43.38105680631369" lon="11.964049509374362"><ele>540.0</ele><time>2026-04-11T09:07:18.999Z</time></trkpt><trkpt lat="43.380976626568525" lon="11.964070302303806"><ele>540.0</ele><time>2026-04-11T09:07:20.999Z</time></trkpt><trkpt lat="43.38089321352794" lon="11.964097821820397"><ele>540.0</ele><time>2026-04-11T09:07:22.999Z</time></trkpt><trkpt lat="43.3808159889319" lon="11.964129242249266"><ele>540.0</ele><time>2026-04-11T09:07:24.999Z</time></trkpt><trkpt lat="43.38073370003297" lon="11.964183554722485"><ele>542.4</ele><time>2026-04-11T09:07:26.999Z</time></trkpt><trkpt lat="43.38066096176153" lon="11.964272394735081"><ele>544.8</ele><time>2026-04-11T09:07:29.999Z</time></trkpt><trkpt lat="43.38061732197174" lon="11.964349902546028"><ele>547.2</ele><time>2026-04-11T09:07:32.999Z</time></trkpt><trkpt lat="43.38057286845923" lon="11.96446387786873"><ele>549.6</ele><time>2026-04-11T09:07:33.999Z</time></trkpt><trkpt lat="43.38058733055156" lon="11.964578599212699"><ele>552.0</ele><time>2026-04-11T09:07:35.999Z</time></trkpt><trkpt lat="43.3805837072488" lon="11.96472694892042"><ele>552.0</ele><time>2026-04-11T09:07:37.999Z</time></trkpt><trkpt lat="43.38059344537875" lon="11.96482618589481"><ele>552.0</ele><time>2026-04-11T09:07:39.999Z</time></trkpt><trkpt lat="43.380602743134695" lon="11.964918565896422"><ele>552.0</ele><time>2026-04-11T09:07:42.999Z</time></trkpt><trkpt lat="43.38059111891713" lon="11.96501782611677"><ele>552.0</ele><time>2026-04-11T09:07:47Z</time></trkpt><trkpt lat="43.380664879129405" lon="11.965010747360216"><ele>552.0</ele><time>2026-04-11T09:07:50Z</time></trkpt><trkpt lat="43.38073761230767" lon="11.965054474074737"><ele>552.0</ele><time>2026-04-11T09:07:56Z</time></trkpt><trkpt lat="43.38067442600964" lon="11.965044510442539"><ele>552.0</ele><time>2026-04-11T09:08:44Z</time></trkpt><trkpt lat="43.38060935396613" lon="11.965166086533353"><ele>551.0</ele><time>2026-04-11T09:09:18.999Z</time></trkpt><trkpt lat="43.380624837942506" lon="11.965267147278713"><ele>550.0</ele><time>2026-04-11T09:09:21.999Z</time></trkpt><trkpt lat="43.38067207913215" lon="11.965372753986145"><ele>549.0</ele><time>2026-04-11T09:09:24.999Z</time></trkpt><trkpt lat="43.380743135102975" lon="11.965465485960998"><ele>548.0</ele><time>2026-04-11T09:09:27.999Z</time></trkpt><trkpt lat="43.380818950389596" lon="11.965550255528196"><ele>547.0</ele><time>2026-04-11T09:09:29.999Z</time></trkpt><trkpt lat="43.38091641710299" lon="11.965620979125532"><ele>547.0</ele><time>2026-04-11T09:09:31.999Z</time></trkpt><trkpt lat="43.38098216596484" lon="11.965665910839599"><ele>547.0</ele><time>2026-04-11T09:09:32.999Z</time></trkpt><trkpt lat="43.38106078301352" lon="11.965682252197084"><ele>547.0</ele><time>2026-04-11T09:09:34.999Z</time></trkpt><trkpt lat="43.3811816613294" lon="11.965657314645691"><ele>547.0</ele><time>2026-04-11T09:09:36.999Z</time></trkpt><trkpt lat="43.38127013757912" lon="11.965671226262966"><ele>547.0</ele><time>2026-04-11T09:09:39.999Z</time></trkpt><trkpt lat="43.381337652480404" lon="11.965662914255404"><ele>547.0</ele><time>2026-04-11T09:09:41.999Z</time></trkpt><trkpt lat="43.381407665155606" lon="11.965635842717036"><ele>551.5</ele><time>2026-04-11T09:09:43.999Z</time></trkpt><trkpt lat="43.381500448679915" lon="11.965629938005689"><ele>556.0</ele><time>2026-04-11T09:09:46.999Z</time></trkpt><trkpt lat="43.38156591432945" lon="11.96561391303663"><ele>560.5</ele><time>2026-04-11T09:09:48.999Z</time></trkpt><trkpt lat="43.38164237380204" lon="11.965674457792032"><ele>565.0</ele><time>2026-04-11T09:09:52Z</time></trkpt><trkpt lat="43.38160505294379" lon="11.965776708697977"><ele>569.5</ele><time>2026-04-11T09:09:54Z</time></trkpt><trkpt lat="43.38153783833874" lon="11.965837873974934"><ele>574.0</ele><time>2026-04-11T09:09:56Z</time></trkpt><trkpt lat="43.3815226372967" lon="11.965934211539002"><ele>574.4</ele><time>2026-04-11T09:09:58Z</time></trkpt><trkpt lat="43.38147571109288" lon="11.966035556011825"><ele>574.8</ele><time>2026-04-11T09:10:00Z</time></trkpt><trkpt lat="43.38143211073629" lon="11.966150829156614"><ele>575.2</ele><time>2026-04-11T09:10:02Z</time></trkpt><trkpt lat="43.38136694672841" lon="11.966250259791504"><ele>575.6</ele><time>2026-04-11T09:10:04Z</time></trkpt><trkpt lat="43.38131986409713" lon="11.966352264821344"><ele>576.0</ele><time>2026-04-11T09:10:06Z</time></trkpt><trkpt lat="43.381288461356476" lon="11.966462631049692"><ele>575.6</ele><time>2026-04-11T09:10:08Z</time></trkpt><trkpt lat="43.381279409896756" lon="11.966555692924278"><ele>575.2</ele><time>2026-04-11T09:10:10Z</time></trkpt><trkpt lat="43.381295530115" lon="11.966695753626675"><ele>574.8</ele><time>2026-04-11T09:10:12Z</time></trkpt><trkpt lat="43.38129960185453" lon="11.966861692849742"><ele>574.4</ele><time>2026-04-11T09:10:14Z</time></trkpt><trkpt lat="43.381355684612764" lon="11.966962769251936"><ele>574.0</ele><time>2026-04-11T09:10:16Z</time></trkpt><trkpt lat="43.381452686476656" lon="11.967006084582"><ele>574.0</ele><time>2026-04-11T09:10:18Z</time></trkpt><trkpt lat="43.38151711583544" lon="11.967015034604978"><ele>574.0</ele><time>2026-04-11T09:10:19Z</time></trkpt><trkpt lat="43.38158537471036" lon="11.967021951758458"><ele>574.0</ele><time>2026-04-11T09:10:20Z</time></trkpt><trkpt lat="43.381677576064455" lon="11.96707420714549"><ele>574.0</ele><time>2026-04-11T09:10:22Z</time></trkpt><trkpt lat="43.3816833379501" lon="11.967176675982783"><ele>574.0</ele><time>2026-04-11T09:10:24Z</time></trkpt><trkpt lat="43.381668389805405" lon="11.967311108701084"><ele>574.0</ele><time>2026-04-11T09:10:26Z</time></trkpt><trkpt lat="43.38170981226019" lon="11.967451432060463"><ele>573.1666666666667</ele><time>2026-04-11T09:10:28Z</time></trkpt><trkpt lat="43.38174548633324" lon="11.967619659564203"><ele>572.3333333333334</ele><time>2026-04-11T09:10:30Z</time></trkpt><trkpt lat="43.381751128037024" lon="11.96772034157796"><ele>571.5</ele><time>2026-04-11T09:10:31Z</time></trkpt><trkpt lat="43.381745565004294" lon="11.967823254575785"><ele>570.6666666666666</ele><time>2026-04-11T09:10:32Z</time></trkpt><trkpt lat="43.381730432170734" lon="11.967927450689007"><ele>569.8333333333333</ele><time>2026-04-11T09:10:33Z</time></trkpt><trkpt lat="43.38171089585768" lon="11.968019530503984"><ele>569.0</ele><time>2026-04-11T09:10:34Z</time></trkpt><trkpt lat="43.38170279313929" lon="11.968132016174595"><ele>569.0</ele><time>2026-04-11T09:10:36Z</time></trkpt><trkpt lat="43.38173759276654" lon="11.968225167763823"><ele>569.0</ele><time>2026-04-11T09:10:38Z</time></trkpt><trkpt lat="43.381825443124626" lon="11.968185577866771"><ele>569.0</ele><time>2026-04-11T09:10:41Z</time></trkpt><trkpt lat="43.38184442770221" lon="11.96806304589189"><ele>569.0</ele><time>2026-04-11T09:10:43Z</time></trkpt><trkpt lat="43.381876826547" lon="11.9679553857634"><ele>569.0</ele><time>2026-04-11T09:10:45Z</time></trkpt><trkpt lat="43.38193482165852" lon="11.967839873225998"><ele>569.0</ele><time>2026-04-11T09:10:47Z</time></trkpt><trkpt lat="43.38198746399933" lon="11.967705452357476"><ele>569.0</ele><time>2026-04-11T09:10:49Z</time></trkpt><trkpt lat="43.38201453391832" lon="11.9675681115481"><ele>569.0</ele><time>2026-04-11T09:10:51Z</time></trkpt><trkpt lat="43.38200797886351" lon="11.967417817339753"><ele>569.0</ele><time>2026-04-11T09:10:53Z</time></trkpt><trkpt lat="43.38200239406299" lon="11.9672863414245"><ele>569.0</ele><time>2026-04-11T09:10:55Z</time></trkpt><trkpt lat="43.382039645792034" lon="11.967162575568215"><ele>569.0</ele><time>2026-04-11T09:10:57Z</time></trkpt><trkpt lat="43.38208658803059" lon="11.967056413623911"><ele>569.8333333333333</ele><time>2026-04-11T09:10:59Z</time></trkpt><trkpt lat="43.38212058028113" lon="11.966971339016654"><ele>570.6666666666666</ele><time>2026-04-11T09:11:01Z</time></trkpt><trkpt lat="43.382166556608716" lon="11.966905935274161"><ele>571.5</ele><time>2026-04-11T09:11:03Z</time></trkpt><trkpt lat="43.382222472139816" lon="11.966852458101524"><ele>572.3333333333334</ele><time>2026-04-11T09:11:05Z</time></trkpt><trkpt lat="43.38230147059803" lon="11.966811952983864"><ele>573.1666666666667</ele><time>2026-04-11T09:11:09Z</time></trkpt><trkpt lat="43.38239034981967" lon="11.966807501347573"><ele>574.0</ele><time>2026-04-11T09:11:12Z</time></trkpt><trkpt lat="43.38247229770766" lon="11.966825975006184"><ele>577.8571428571429</ele><time>2026-04-11T09:11:15.999Z</time></trkpt><trkpt lat="43.3824974441313" lon="11.966734859585983"><ele>581.7142857142858</ele><time>2026-04-11T09:11:18.999Z</time></trkpt><trkpt lat="43.38246037405903" lon="11.966654535990815"><ele>585.5714285714286</ele><time>2026-04-11T09:11:20.999Z</time></trkpt><trkpt lat="43.382405907298605" lon="11.966574292537198"><ele>589.4285714285714</ele><time>2026-04-11T09:11:21.999Z</time></trkpt><trkpt lat="43.38237343973471" lon="11.966493709873763"><ele>593.2857142857143</ele><time>2026-04-11T09:11:23.999Z</time></trkpt><trkpt lat="43.3823609541376" lon="11.96639890530515"><ele>597.1428571428571</ele><time>2026-04-11T09:11:25.999Z</time></trkpt><trkpt lat="43.382382737649316" lon="11.966282929105892"><ele>601.0</ele><time>2026-04-11T09:11:27.999Z</time></trkpt><trkpt lat="43.382418808181306" lon="11.966176178586508"><ele>601.0</ele><time>2026-04-11T09:11:29.999Z</time></trkpt><trkpt lat="43.3824732455461" lon="11.966076286623192"><ele>601.0</ele><time>2026-04-11T09:11:31.999Z</time></trkpt><trkpt lat="43.382539115913595" lon="11.965997455116861"><ele>601.0</ele><time>2026-04-11T09:11:33.999Z</time></trkpt><trkpt lat="43.382596868860766" lon="11.96591730441647"><ele>601.0</ele><time>2026-04-11T09:11:35.999Z</time></trkpt><trkpt lat="43.382658119179155" lon="11.965835012713233"><ele>601.0</ele><time>2026-04-11T09:11:37.999Z</time></trkpt><trkpt lat="43.38269382508939" lon="11.965732531891579"><ele>601.0</ele><time>2026-04-11T09:11:39.999Z</time></trkpt><trkpt lat="43.382758624060905" lon="11.96563728559499"><ele>600.8333333333334</ele><time>2026-04-11T09:11:41.999Z</time></trkpt><trkpt lat="43.382809903977105" lon="11.965559217466987"><ele>600.6666666666667</ele><time>2026-04-11T09:11:43.999Z</time></trkpt><trkpt lat="43.38281163050272" lon="11.965435864425793"><ele>600.5</ele><time>2026-04-11T09:11:45.999Z</time></trkpt><trkpt lat="43.3827834172607" lon="11.965344187754694"><ele>600.3333333333334</ele><time>2026-04-11T09:11:47.999Z</time></trkpt><trkpt lat="43.38280360526395" lon="11.965198155783126"><ele>600.1666666666666</ele><time>2026-04-11T09:11:50.999Z</time></trkpt><trkpt lat="43.382844592949134" lon="11.965108237231947"><ele>600.0</ele><time>2026-04-11T09:11:52.999Z</time></trkpt><trkpt lat="43.38290402860937" lon="11.965019486974722"><ele>599.6666666666666</ele><time>2026-04-11T09:11:54.999Z</time></trkpt><trkpt lat="43.38297124653614" lon="11.964957236503766"><ele>599.3333333333334</ele><time>2026-04-11T09:11:56.999Z</time></trkpt><trkpt lat="43.38304118222014" lon="11.964907460333746"><ele>599.0</ele><time>2026-04-11T09:11:59Z</time></trkpt><trkpt lat="43.38310198148513" lon="11.964866889895841"><ele>598.6666666666667</ele><time>2026-04-11T09:12:01Z</time></trkpt><trkpt lat="43.383171762709075" lon="11.96480544551601"><ele>598.3333333333334</ele><time>2026-04-11T09:12:03Z</time></trkpt><trkpt lat="43.38322607760195" lon="11.96471865938155"><ele>598.0</ele><time>2026-04-11T09:12:05Z</time></trkpt><trkpt lat="43.38321429890645" lon="11.964605796672547"><ele>601.8333333333334</ele><time>2026-04-11T09:12:07Z</time></trkpt><trkpt lat="43.38317989143322" lon="11.964518652179754"><ele>605.6666666666667</ele><time>2026-04-11T09:12:09Z</time></trkpt><trkpt lat="43.38319046317469" lon="11.964418416367321"><ele>609.5</ele><time>2026-04-11T09:12:11Z</time></trkpt><trkpt lat="43.38322245649419" lon="11.964327328003582"><ele>613.3333333333334</ele><time>2026-04-11T09:12:13Z</time></trkpt><trkpt lat="43.38329593420326" lon="11.964263476201728"><ele>617.1666666666666</ele><time>2026-04-11T09:12:15Z</time></trkpt><trkpt lat="43.3833628355811" lon="11.96421639772401"><ele>621.0</ele><time>2026-04-11T09:12:17Z</time></trkpt><trkpt lat="43.38341694377497" lon="11.964154157302668"><ele>621.0</ele><time>2026-04-11T09:12:19Z</time></trkpt><trkpt lat="43.383501204476474" lon="11.964112567368698"><ele>621.0</ele><time>2026-04-11T09:12:21Z</time></trkpt><trkpt lat="43.38356038799236" lon="11.964076545430155"><ele>621.0</ele><time>2026-04-11T09:12:23Z</time></trkpt><trkpt lat="43.383638980418084" lon="11.964034681480555"><ele>621.0</ele><time>2026-04-11T09:12:26Z</time></trkpt><trkpt lat="43.38370286621187" lon="11.963986482842252"><ele>621.0</ele><time>2026-04-11T09:12:28Z</time></trkpt><trkpt lat="43.38375613639335" lon="11.963901231923298"><ele>621.0</ele><time>2026-04-11T09:12:30Z</time></trkpt><trkpt lat="43.38376605167492" lon="11.963794541393511"><ele>621.0</ele><time>2026-04-11T09:12:32Z</time></trkpt><trkpt lat="43.38381316548938" lon="11.963713539894881"><ele>621.0</ele><time>2026-04-11T09:12:35Z</time></trkpt><trkpt lat="43.38388708066199" lon="11.9637085390029"><ele>621.0</ele><time>2026-04-11T09:12:39Z</time></trkpt><trkpt lat="43.38395009303176" lon="11.963752932380533"><ele>621.0</ele><time>2026-04-11T09:12:43Z</time></trkpt><trkpt lat="43.384011361287016" lon="11.96382453211361"><ele>621.0</ele><time>2026-04-11T09:12:46Z</time></trkpt><trkpt lat="43.38403269397875" lon="11.963913921338643"><ele>621.0</ele><time>2026-04-11T09:12:49Z</time></trkpt><trkpt lat="43.384019034466675" lon="11.96402428027661"><ele>624.1666666666666</ele><time>2026-04-11T09:12:52Z</time></trkpt><trkpt lat="43.38399024268143" lon="11.964109523417385"><ele>627.3333333333334</ele><time>2026-04-11T09:12:56Z</time></trkpt><trkpt lat="43.38399807701296" lon="11.96422856751142"><ele>630.5</ele><time>2026-04-11T09:13:00Z</time></trkpt><trkpt lat="43.3839989989186" lon="11.964328987620744"><ele>633.6666666666667</ele><time>2026-04-11T09:13:02Z</time></trkpt><trkpt lat="43.383963172913845" lon="11.964430635522154"><ele>636.8333333333334</ele><time>2026-04-11T09:13:04Z</time></trkpt><trkpt lat="43.38393892082204" lon="11.964555597325917"><ele>640.0</ele><time>2026-04-11T09:13:07Z</time></trkpt><trkpt lat="43.38390875260479" lon="11.964671411597548"><ele>637.8333333333334</ele><time>2026-04-11T09:13:09Z</time></trkpt><trkpt lat="43.383863147718586" lon="11.964749944329718"><ele>635.6666666666667</ele><time>2026-04-11T09:13:11Z</time></trkpt><trkpt lat="43.38384266585773" lon="11.964836229800516"><ele>633.5</ele><time>2026-04-11T09:13:13Z</time></trkpt><trkpt lat="43.383837254186794" lon="11.96493229141825"><ele>631.3333333333334</ele><time>2026-04-11T09:13:15Z</time></trkpt><trkpt lat="43.38385126883474" lon="11.965063337196845"><ele>629.1666666666666</ele><time>2026-04-11T09:13:17Z</time></trkpt><trkpt lat="43.38386167118253" lon="11.965184221305355"><ele>627.0</ele><time>2026-04-11T09:13:19Z</time></trkpt><trkpt lat="43.383875729586016" lon="11.96528009850696"><ele>632.1666666666666</ele><time>2026-04-11T09:13:21Z</time></trkpt><trkpt lat="43.383897463223896" lon="11.965386095043085"><ele>637.3333333333334</ele><time>2026-04-11T09:13:23Z</time></trkpt><trkpt lat="43.38391782389202" lon="11.965483922489328"><ele>642.5</ele><time>2026-04-11T09:13:25Z</time></trkpt><trkpt lat="43.38397179128594" lon="11.965579270796187"><ele>647.6666666666667</ele><time>2026-04-11T09:13:28Z</time></trkpt><trkpt lat="43.384038692685095" lon="11.965622407741863"><ele>652.8333333333334</ele><time>2026-04-11T09:13:30Z</time></trkpt><trkpt lat="43.384090223839" lon="11.965705711515918"><ele>658.0</ele><time>2026-04-11T09:13:32Z</time></trkpt><trkpt lat="43.38410707147019" lon="11.965822071989807"><ele>656.6666666666667</ele><time>2026-04-11T09:13:33.999Z</time></trkpt><trkpt lat="43.38413446162202" lon="11.965932316259137"><ele>655.3333333333334</ele><time>2026-04-11T09:13:35.999Z</time></trkpt><trkpt lat="43.384181464093466" lon="11.966024902754453"><ele>654.0</ele><time>2026-04-11T09:13:37.999Z</time></trkpt><trkpt lat="43.3842245485212" lon="11.96610137200347"><ele>652.6666666666666</ele><time>2026-04-11T09:13:39.999Z</time></trkpt><trkpt lat="43.38428066559846" lon="11.966187219107436"><ele>651.3333333333333</ele><time>2026-04-11T09:13:41.999Z</time></trkpt><trkpt lat="43.38435282724455" lon="11.966250195338517"><ele>650.0</ele><time>2026-04-11T09:13:43.999Z</time></trkpt><trkpt lat="43.38441923645872" lon="11.966301746883955"><ele>650.0</ele><time>2026-04-11T09:13:45.999Z</time></trkpt><trkpt lat="43.38448117468866" lon="11.966348844632394"><ele>650.0</ele><time>2026-04-11T09:13:47.999Z</time></trkpt><trkpt lat="43.384554241867875" lon="11.966385736261934"><ele>650.0</ele><time>2026-04-11T09:13:49.999Z</time></trkpt><trkpt lat="43.3846341779942" lon="11.966429814365746"><ele>650.0</ele><time>2026-04-11T09:13:51.999Z</time></trkpt><trkpt lat="43.38470476367012" lon="11.966472809115356"><ele>650.0</ele><time>2026-04-11T09:13:53.999Z</time></trkpt><trkpt lat="43.384795787435" lon="11.966507176966367"><ele>650.0</ele><time>2026-04-11T09:13:56.999Z</time></trkpt><trkpt lat="43.38487794851986" lon="11.966523814124637"><ele>652.2857142857142</ele><time>2026-04-11T09:13:58.999Z</time></trkpt><trkpt lat="43.384952246166954" lon="11.966530042949048"><ele>654.5714285714287</ele><time>2026-04-11T09:14:00.999Z</time></trkpt><trkpt lat="43.385024834554834" lon="11.966513456071594"><ele>656.8571428571429</ele><time>2026-04-11T09:14:02.999Z</time></trkpt><trkpt lat="43.38509454922659" lon="11.966487722995993"><ele>659.1428571428571</ele><time>2026-04-11T09:14:06Z</time></trkpt><trkpt lat="43.385058327344154" lon="11.966387931437879"><ele>661.4285714285713</ele><time>2026-04-11T09:14:09Z</time></trkpt><trkpt lat="43.3850062050911" lon="11.966332507456684"><ele>663.7142857142858</ele><time>2026-04-11T09:14:12Z</time></trkpt><trkpt lat="43.38496654174381" lon="11.966249126422872"><ele>666.0</ele><time>2026-04-11T09:14:14Z</time></trkpt><trkpt lat="43.38492123081834" lon="11.966148951316217"><ele>666.0</ele><time>2026-04-11T09:14:17Z</time></trkpt><trkpt lat="43.38488721204503" lon="11.966060960335167"><ele>666.0</ele><time>2026-04-11T09:14:20Z</time></trkpt><trkpt lat="43.38482876521797" lon="11.965981311098108"><ele>666.0</ele><time>2026-04-11T09:14:22Z</time></trkpt><trkpt lat="43.38479221596188" lon="11.965888405575786"><ele>666.0</ele><time>2026-04-11T09:14:24Z</time></trkpt><trkpt lat="43.384771385440494" lon="11.965770320753375"><ele>666.0</ele><time>2026-04-11T09:14:27Z</time></trkpt><trkpt lat="43.384762627505005" lon="11.96565830384484"><ele>666.0</ele><time>2026-04-11T09:14:29Z</time></trkpt><trkpt lat="43.38477505952443" lon="11.965557725659448"><ele>668.4</ele><time>2026-04-11T09:14:31Z</time></trkpt><trkpt lat="43.3848421368669" lon="11.965501716545642"><ele>670.8</ele><time>2026-04-11T09:14:34Z</time></trkpt><trkpt lat="43.38489966761783" lon="11.965596765093807"><ele>673.1999999999999</ele><time>2026-04-11T09:14:37Z</time></trkpt><trkpt lat="43.38495744219177" lon="11.965683629195764"><ele>675.5999999999999</ele><time>2026-04-11T09:14:40Z</time></trkpt><trkpt lat="43.38504716282336" lon="11.965740421398369"><ele>678.0</ele><time>2026-04-11T09:14:42Z</time></trkpt><trkpt lat="43.38513172830803" lon="11.965811546141667"><ele>678.0</ele><time>2026-04-11T09:14:44Z</time></trkpt><trkpt lat="43.38521873112534" lon="11.965824543834195"><ele>678.0</ele><time>2026-04-11T09:14:46Z</time></trkpt><trkpt lat="43.38531040180588" lon="11.965819940208139"><ele>678.0</ele><time>2026-04-11T09:14:48Z</time></trkpt><trkpt lat="43.38541167702534" lon="11.965861681972799"><ele>678.0</ele><time>2026-04-11T09:14:50Z</time></trkpt><trkpt lat="43.38548230765451" lon="11.965857628355547"><ele>678.0</ele><time>2026-04-11T09:14:51Z</time></trkpt><trkpt lat="43.38555292188452" lon="11.965851798324106"><ele>678.0</ele><time>2026-04-11T09:14:52Z</time></trkpt><trkpt lat="43.385613580991674" lon="11.965821951206067"><ele>679.0</ele><time>2026-04-11T09:14:53Z</time></trkpt><trkpt lat="43.385677372437215" lon="11.965819505188989"><ele>680.0</ele><time>2026-04-11T09:14:54Z</time></trkpt><trkpt lat="43.38579651938711" lon="11.965816317009807"><ele>681.0</ele><time>2026-04-11T09:14:56Z</time></trkpt><trkpt lat="43.38591239354888" lon="11.965784570385841"><ele>682.0</ele><time>2026-04-11T09:14:58Z</time></trkpt><trkpt lat="43.38597799406458" lon="11.965762183281345"><ele>683.0</ele><time>2026-04-11T09:14:59Z</time></trkpt><trkpt lat="43.3860457463432" lon="11.965739616987484"><ele>684.0</ele><time>2026-04-11T09:15:00Z</time></trkpt><trkpt lat="43.38616075087393" lon="11.965710403458301"><ele>684.0</ele><time>2026-04-11T09:15:02Z</time></trkpt><trkpt lat="43.386236559800196" lon="11.965692081751065"><ele>684.0</ele><time>2026-04-11T09:15:03Z</time></trkpt><trkpt lat="43.386301587054696" lon="11.965678207064808"><ele>684.0</ele><time>2026-04-11T09:15:04Z</time></trkpt><trkpt lat="43.38642717712603" lon="11.965678334439689"><ele>684.0</ele><time>2026-04-11T09:15:06Z</time></trkpt><trkpt lat="43.3864945384221" lon="11.965720625860083"><ele>684.0</ele><time>2026-04-11T09:15:08Z</time></trkpt><trkpt lat="43.386554782848435" lon="11.96576219501899"><ele>684.0</ele><time>2026-04-11T09:15:11Z</time></trkpt><trkpt lat="43.386622392856424" lon="11.965816638813017"><ele>684.2</ele><time>2026-04-11T09:15:13Z</time></trkpt><trkpt lat="43.386670213516155" lon="11.96588633679701"><ele>684.4000000000001</ele><time>2026-04-11T09:15:15Z</time></trkpt><trkpt lat="43.38673211767092" lon="11.965985106796346"><ele>684.6</ele><time>2026-04-11T09:15:17Z</time></trkpt><trkpt lat="43.38677500123781" lon="11.966059825176446"><ele>684.8</ele><time>2026-04-11T09:15:19Z</time></trkpt><trkpt lat="43.386846395691286" lon="11.966164672990255"><ele>685.0</ele><time>2026-04-11T09:15:21Z</time></trkpt><trkpt lat="43.38684685251711" lon="11.96633746185382"><ele>685.0</ele><time>2026-04-11T09:15:23Z</time></trkpt><trkpt lat="43.38686954561041" lon="11.966444334111223"><ele>685.0</ele><time>2026-04-11T09:15:25Z</time></trkpt><trkpt lat="43.386945685268294" lon="11.966544436426"><ele>685.0</ele><time>2026-04-11T09:15:27Z</time></trkpt><trkpt lat="43.38704059023385" lon="11.966613591388288"><ele>685.0</ele><time>2026-04-11T09:15:29Z</time></trkpt><trkpt lat="43.387124037544076" lon="11.966681952840188"><ele>685.0</ele><time>2026-04-11T09:15:31Z</time></trkpt><trkpt lat="43.387206966985005" lon="11.966765214516233"><ele>685.6</ele><time>2026-04-11T09:15:33Z</time></trkpt><trkpt lat="43.38729126033754" lon="11.966850213092345"><ele>686.2</ele><time>2026-04-11T09:15:35Z</time></trkpt><trkpt lat="43.38737741764148" lon="11.966949518515683"><ele>686.8</ele><time>2026-04-11T09:15:37Z</time></trkpt><trkpt lat="43.387450874000535" lon="11.967060015302266"><ele>687.4</ele><time>2026-04-11T09:15:39Z</time></trkpt><trkpt lat="43.387501337595886" lon="11.967120238598469"><ele>688.0</ele><time>2026-04-11T09:15:40Z</time></trkpt><trkpt lat="43.387557390140664" lon="11.967175761147537"><ele>688.0</ele><time>2026-04-11T09:15:41Z</time></trkpt><trkpt lat="43.387669327489775" lon="11.96724647904005"><ele>688.0</ele><time>2026-04-11T09:15:43Z</time></trkpt><trkpt lat="43.387716156205" lon="11.9673084032335"><ele>688.0</ele><time>2026-04-11T09:15:44Z</time></trkpt><trkpt lat="43.38777419491231" lon="11.967354075251672"><ele>688.0</ele><time>2026-04-11T09:15:45Z</time></trkpt><trkpt lat="43.387831550819335" lon="11.967397739526529"><ele>688.0</ele><time>2026-04-11T09:15:46Z</time></trkpt><trkpt lat="43.38793817753414" lon="11.967475807692752"><ele>688.0</ele><time>2026-04-11T09:15:48Z</time></trkpt><trkpt lat="43.38804927713795" lon="11.967551861892598"><ele>686.0</ele><time>2026-04-11T09:15:49.999Z</time></trkpt><trkpt lat="43.388107775505674" lon="11.967585944762773"><ele>684.0</ele><time>2026-04-11T09:15:50.999Z</time></trkpt><trkpt lat="43.38821874968445" lon="11.967642658718656"><ele>682.0</ele><time>2026-04-11T09:15:52.999Z</time></trkpt><trkpt lat="43.38832652042132" lon="11.96768151218186"><ele>680.0</ele><time>2026-04-11T09:15:54.999Z</time></trkpt><trkpt lat="43.38841785882518" lon="11.967704526092206"><ele>678.0</ele><time>2026-04-11T09:15:56.999Z</time></trkpt><trkpt lat="43.38849833736856" lon="11.9677176549606"><ele>678.0</ele><time>2026-04-11T09:15:58.999Z</time></trkpt><trkpt lat="43.38860874242388" lon="11.967722380968594"><ele>678.0</ele><time>2026-04-11T09:16:00.999Z</time></trkpt><trkpt lat="43.388715383522246" lon="11.967694905480377"><ele>678.0</ele><time>2026-04-11T09:16:02.999Z</time></trkpt><trkpt lat="43.38879098606528" lon="11.967671044667517"><ele>678.0</ele><time>2026-04-11T09:16:04.999Z</time></trkpt><trkpt lat="43.38885661677719" lon="11.967660769430974"><ele>678.0</ele><time>2026-04-11T09:16:06.999Z</time></trkpt><trkpt lat="43.38894343185871" lon="11.967675616518157"><ele>679.4</ele><time>2026-04-11T09:16:09Z</time></trkpt><trkpt lat="43.389031030911454" lon="11.96776588361181"><ele>680.8</ele><time>2026-04-11T09:16:11Z</time></trkpt><trkpt lat="43.389125065270065" lon="11.967836257330372"><ele>682.2</ele><time>2026-04-11T09:16:13Z</time></trkpt><trkpt lat="43.389217426341666" lon="11.967897381555082"><ele>683.6</ele><time>2026-04-11T09:16:15Z</time></trkpt><trkpt lat="43.389322633388836" lon="11.967923978516986"><ele>685.0</ele><time>2026-04-11T09:16:17Z</time></trkpt><trkpt lat="43.38940955780631" lon="11.967959708386461"><ele>685.0</ele><time>2026-04-11T09:16:19Z</time></trkpt><trkpt lat="43.38949228172138" lon="11.968000595661886"><ele>685.0</ele><time>2026-04-11T09:16:21Z</time></trkpt><trkpt lat="43.38958350616601" lon="11.968045821247213"><ele>685.0</ele><time>2026-04-11T09:16:23Z</time></trkpt><trkpt lat="43.3896825120725" lon="11.968102509864492"><ele>685.0</ele><time>2026-04-11T09:16:25Z</time></trkpt><trkpt lat="43.38978300583797" lon="11.968158473006222"><ele>685.0</ele><time>2026-04-11T09:16:27Z</time></trkpt><trkpt lat="43.38987335558525" lon="11.96820747775241"><ele>684.3333333333334</ele><time>2026-04-11T09:16:29Z</time></trkpt><trkpt lat="43.38994733331189" lon="11.96826783429929"><ele>683.6666666666667</ele><time>2026-04-11T09:16:31Z</time></trkpt><trkpt lat="43.39001077710003" lon="11.968292631835228"><ele>683.0</ele><time>2026-04-11T09:16:33Z</time></trkpt><trkpt lat="43.39006846416308" lon="11.968352469886566"><ele>682.3333333333334</ele><time>2026-04-11T09:16:35Z</time></trkpt><trkpt lat="43.390162245571794" lon="11.96839833706897"><ele>681.6666666666666</ele><time>2026-04-11T09:16:37Z</time></trkpt><trkpt lat="43.39023126758824" lon="11.968458897621504"><ele>681.0</ele><time>2026-04-11T09:16:39Z</time></trkpt><trkpt lat="43.390295982626114" lon="11.96850181265484"><ele>678.8</ele><time>2026-04-11T09:16:41Z</time></trkpt><trkpt lat="43.39036224116722" lon="11.968575518093909"><ele>676.5999999999999</ele><time>2026-04-11T09:16:43Z</time></trkpt><trkpt lat="43.39041750624865" lon="11.968618299142806"><ele>674.4</ele><time>2026-04-11T09:16:45Z</time></trkpt><trkpt lat="43.39058762406803" lon="11.968526794992401"><ele>672.2</ele><time>2026-04-11T09:16:56Z</time></trkpt><trkpt lat="43.3906289517804" lon="11.968623304599564"><ele>670.0</ele><time>2026-04-11T09:17:16Z</time></trkpt><trkpt lat="43.390676730031345" lon="11.96871942457831"><ele>670.0</ele><time>2026-04-11T09:17:19Z</time></trkpt><trkpt lat="43.39075020262361" lon="11.968792073360166"><ele>670.0</ele><time>2026-04-11T09:17:21Z</time></trkpt><trkpt lat="43.3908237997768" lon="11.968851886767206"><ele>670.0</ele><time>2026-04-11T09:17:23Z</time></trkpt><trkpt lat="43.39089494634229" lon="11.968885689578004"><ele>670.0</ele><time>2026-04-11T09:17:25Z</time></trkpt><trkpt lat="43.390977632261276" lon="11.968914133980746"><ele>670.0</ele><time>2026-04-11T09:17:27Z</time></trkpt><trkpt lat="43.39105194419419" lon="11.96897371190187"><ele>670.0</ele><time>2026-04-11T09:17:29Z</time></trkpt><trkpt lat="43.39114005919571" lon="11.969041349058019"><ele>670.0</ele><time>2026-04-11T09:17:31Z</time></trkpt><trkpt lat="43.391224068565144" lon="11.969091897505066"><ele>670.0</ele><time>2026-04-11T09:17:33Z</time></trkpt><trkpt lat="43.391388132740204" lon="11.969165024125253"><ele>670.0</ele><time>2026-04-11T09:17:36Z</time></trkpt><trkpt lat="43.39151004817754" lon="11.969173301570782"><ele>670.0</ele><time>2026-04-11T09:17:38Z</time></trkpt><trkpt lat="43.39159757065238" lon="11.969273923661705"><ele>670.2</ele><time>2026-04-11T09:17:40Z</time></trkpt><trkpt lat="43.39168729228419" lon="11.969290026890603"><ele>670.4</ele><time>2026-04-11T09:17:42Z</time></trkpt><trkpt lat="43.391779129336456" lon="11.969304234770501"><ele>670.5999999999999</ele><time>2026-04-11T09:17:44Z</time></trkpt><trkpt lat="43.391881898065705" lon="11.96933166440349"><ele>670.8</ele><time>2026-04-11T09:17:46Z</time></trkpt><trkpt lat="43.39197504891124" lon="11.969367942085912"><ele>671.0</ele><time>2026-04-11T09:17:48Z</time></trkpt><trkpt lat="43.39205765820722" lon="11.96948332878531"><ele>671.0</ele><time>2026-04-11T09:17:50Z</time></trkpt><trkpt lat="43.392119766519585" lon="11.969608098223517"><ele>671.0</ele><time>2026-04-11T09:17:52Z</time></trkpt><trkpt lat="43.39218884845518" lon="11.969733241762574"><ele>671.0</ele><time>2026-04-11T09:17:54Z</time></trkpt><trkpt lat="43.392247383590124" lon="11.969845826456606"><ele>671.0</ele><time>2026-04-11T09:17:56Z</time></trkpt><trkpt lat="43.392296564818295" lon="11.969940670899945"><ele>671.0</ele><time>2026-04-11T09:17:57.999Z</time></trkpt><trkpt lat="43.392365640293704" lon="11.970035194102428"><ele>675.0</ele><time>2026-04-11T09:17:59.999Z</time></trkpt><trkpt lat="43.3924064208056" lon="11.970145703097552"><ele>679.0</ele><time>2026-04-11T09:18:01.999Z</time></trkpt><trkpt lat="43.392466798201795" lon="11.970267621241772"><ele>683.0</ele><time>2026-04-11T09:18:03.999Z</time></trkpt><trkpt lat="43.39253746874719" lon="11.970336785301543"><ele>687.0</ele><time>2026-04-11T09:18:06.999Z</time></trkpt><trkpt lat="43.392611262103344" lon="11.970425655024284"><ele>691.0</ele><time>2026-04-11T09:18:08.999Z</time></trkpt><trkpt lat="43.392643120620185" lon="11.970516654005156"><ele>691.0</ele><time>2026-04-11T09:18:11.999Z</time></trkpt><trkpt lat="43.39260979711551" lon="11.970600635505846"><ele>691.0</ele><time>2026-04-11T09:18:15Z</time></trkpt><trkpt lat="43.3925442881721" lon="11.970752291180816"><ele>691.0</ele><time>2026-04-11T09:18:17Z</time></trkpt><trkpt lat="43.39249560218517" lon="11.970810214260403"><ele>691.0</ele><time>2026-04-11T09:18:18Z</time></trkpt><trkpt lat="43.39241287192388" lon="11.970910146768592"><ele>691.0</ele><time>2026-04-11T09:18:20Z</time></trkpt><trkpt lat="43.39231464952687" lon="11.97102629631021"><ele>690.8333333333334</ele><time>2026-04-11T09:18:22Z</time></trkpt><trkpt lat="43.39225730617493" lon="11.971067993437396"><ele>690.6666666666667</ele><time>2026-04-11T09:18:23Z</time></trkpt><trkpt lat="43.39216450769969" lon="11.971173069163266"><ele>690.5</ele><time>2026-04-11T09:18:25Z</time></trkpt><trkpt lat="43.39211477948169" lon="11.971231742888763"><ele>690.3333333333334</ele><time>2026-04-11T09:18:26Z</time></trkpt><trkpt lat="43.3920541766519" lon="11.97130689629629"><ele>690.1666666666666</ele><time>2026-04-11T09:18:27Z</time></trkpt><trkpt lat="43.39199732480177" lon="11.971381058856569"><ele>690.0</ele><time>2026-04-11T09:18:28Z</time></trkpt><trkpt lat="43.391943437741055" lon="11.97145513496389"><ele>690.0</ele><time>2026-04-11T09:18:29Z</time></trkpt><trkpt lat="43.39189157451231" lon="11.97153069233278"><ele>690.0</ele><time>2026-04-11T09:18:30Z</time></trkpt><trkpt lat="43.39184295700748" lon="11.971612322042015"><ele>690.0</ele><time>2026-04-11T09:18:31Z</time></trkpt><trkpt lat="43.39179991369087" lon="11.971702061045312"><ele>690.0</ele><time>2026-04-11T09:18:32Z</time></trkpt><trkpt lat="43.391760451319584" lon="11.97179984058408"><ele>690.0</ele><time>2026-04-11T09:18:33Z</time></trkpt><trkpt lat="43.391735360647594" lon="11.971904982521842"><ele>690.0</ele><time>2026-04-11T09:18:34Z</time></trkpt><trkpt lat="43.39172376225233" lon="11.972009768876593"><ele>691.5714285714286</ele><time>2026-04-11T09:18:35Z</time></trkpt><trkpt lat="43.39169999729325" lon="11.972110964544218"><ele>693.1428571428571</ele><time>2026-04-11T09:18:36Z</time></trkpt><trkpt lat="43.391686513144485" lon="11.972201599627937"><ele>694.7142857142858</ele><time>2026-04-11T09:18:37Z</time></trkpt><trkpt lat="43.39168199766267" lon="11.972303544725925"><ele>696.2857142857142</ele><time>2026-04-11T09:18:38Z</time></trkpt><trkpt lat="43.39166159613888" lon="11.972400477865046"><ele>697.8571428571428</ele><time>2026-04-11T09:18:39Z</time></trkpt><trkpt lat="43.391664762835326" lon="11.972497122425242"><ele>699.4285714285714</ele><time>2026-04-11T09:18:40Z</time></trkpt><trkpt lat="43.39163751655558" lon="11.972587697058906"><ele>701.0</ele><time>2026-04-11T09:18:41Z</time></trkpt><trkpt lat="43.391596286710296" lon="11.972672415747027"><ele>702.8571428571429</ele><time>2026-04-11T09:18:42Z</time></trkpt><trkpt lat="43.39154630081714" lon="11.972743506291696"><ele>704.7142857142857</ele><time>2026-04-11T09:18:43Z</time></trkpt><trkpt lat="43.391473951454884" lon="11.972768527598834"><ele>706.5714285714286</ele><time>2026-04-11T09:18:44Z</time></trkpt><trkpt lat="43.39142027274054" lon="11.97283680785956"><ele>708.4285714285714</ele><time>2026-04-11T09:18:45Z</time></trkpt><trkpt lat="43.39135856603124" lon="11.972876125557738"><ele>710.2857142857142</ele><time>2026-04-11T09:18:46Z</time></trkpt><trkpt lat="43.39130814469903" lon="11.972933218214248"><ele>712.1428571428571</ele><time>2026-04-11T09:18:47Z</time></trkpt><trkpt lat="43.391272792354094" lon="11.973005141103238"><ele>714.0</ele><time>2026-04-11T09:18:48Z</time></trkpt><trkpt lat="43.39125119043815" lon="11.973088712736526"><ele>711.6666666666666</ele><time>2026-04-11T09:18:49Z</time></trkpt><trkpt lat="43.39123663887713" lon="11.973178662055915"><ele>709.3333333333334</ele><time>2026-04-11T09:18:50Z</time></trkpt><trkpt lat="43.39122511912441" lon="11.973275184951062"><ele>707.0</ele><time>2026-04-11T09:18:51Z</time></trkpt><trkpt lat="43.39122103877669" lon="11.973375187871255"><ele>704.6666666666667</ele><time>2026-04-11T09:18:52Z</time></trkpt><trkpt lat="43.391219023326336" lon="11.973480658189764"><ele>702.3333333333334</ele><time>2026-04-11T09:18:53Z</time></trkpt><trkpt lat="43.39121392552236" lon="11.97359164080772"><ele>700.0</ele><time>2026-04-11T09:18:54Z</time></trkpt><trkpt lat="43.39120038233115" lon="11.973703174742358"><ele>700.0</ele><time>2026-04-11T09:18:55Z</time></trkpt><trkpt lat="43.391177606637136" lon="11.97381982576061"><ele>700.0</ele><time>2026-04-11T09:18:56Z</time></trkpt><trkpt lat="43.391145673510024" lon="11.973926152908293"><ele>700.0</ele><time>2026-04-11T09:18:57Z</time></trkpt><trkpt lat="43.39110005506288" lon="11.974019684223071"><ele>700.0</ele><time>2026-04-11T09:18:58Z</time></trkpt><trkpt lat="43.3910455028685" lon="11.97409676702543"><ele>700.0</ele><time>2026-04-11T09:18:59Z</time></trkpt><trkpt lat="43.39096452847359" lon="11.974192501256056"><ele>700.0</ele><time>2026-04-11T09:19:01Z</time></trkpt><trkpt lat="43.390918712011306" lon="11.974295372014346"><ele>702.6</ele><time>2026-04-11T09:19:02.999Z</time></trkpt><trkpt lat="43.39088903420851" lon="11.97440838188554"><ele>705.2</ele><time>2026-04-11T09:19:04.999Z</time></trkpt><trkpt lat="43.390838892789716" lon="11.974520533778865"><ele>707.8</ele><time>2026-04-11T09:19:06.999Z</time></trkpt><trkpt lat="43.39078975248937" lon="11.974666580505339"><ele>710.4</ele><time>2026-04-11T09:19:08.999Z</time></trkpt><trkpt lat="43.390747152536434" lon="11.974814056413553"><ele>713.0</ele><time>2026-04-11T09:19:10.999Z</time></trkpt><trkpt lat="43.39072362439102" lon="11.974895508203971"><ele>713.0</ele><time>2026-04-11T09:19:11.999Z</time></trkpt><trkpt lat="43.390698321660985" lon="11.974983104661575"><ele>713.0</ele><time>2026-04-11T09:19:12.999Z</time></trkpt><trkpt lat="43.39068025679376" lon="11.975086510267403"><ele>713.0</ele><time>2026-04-11T09:19:13.999Z</time></trkpt><trkpt lat="43.39063900281937" lon="11.975187171406857"><ele>713.0</ele><time>2026-04-11T09:19:14.999Z</time></trkpt><trkpt lat="43.390590925153184" lon="11.97529155935237"><ele>713.0</ele><time>2026-04-11T09:19:15.999Z</time></trkpt><trkpt lat="43.39053398143989" lon="11.975391043288274"><ele>713.0</ele><time>2026-04-11T09:19:16.999Z</time></trkpt><trkpt lat="43.39046794013199" lon="11.975480799114123"><ele>712.6666666666666</ele><time>2026-04-11T09:19:17.999Z</time></trkpt><trkpt lat="43.390394652773054" lon="11.975551660080328"><ele>712.3333333333333</ele><time>2026-04-11T09:19:18.999Z</time></trkpt><trkpt lat="43.3903180443714" lon="11.975599891069999"><ele>712.0</ele><time>2026-04-11T09:19:19.999Z</time></trkpt><trkpt lat="43.39023876545328" lon="11.975630277225473"><ele>711.6666666666666</ele><time>2026-04-11T09:19:20.999Z</time></trkpt><trkpt lat="43.39016112041066" lon="11.975653025966068"><ele>711.3333333333334</ele><time>2026-04-11T09:19:21.999Z</time></trkpt><trkpt lat="43.39008276875236" lon="11.975663063356047"><ele>711.0</ele><time>2026-04-11T09:19:22.999Z</time></trkpt><trkpt lat="43.39000365373976" lon="11.9756660833803"><ele>711.0</ele><time>2026-04-11T09:19:23.999Z</time></trkpt><trkpt lat="43.389920060441355" lon="11.975671030709565"><ele>711.0</ele><time>2026-04-11T09:19:24.999Z</time></trkpt><trkpt lat="43.38983407966135" lon="11.97569019726814"><ele>711.0</ele><time>2026-04-11T09:19:25.999Z</time></trkpt><trkpt lat="43.38975300614157" lon="11.975716341257824"><ele>711.0</ele><time>2026-04-11T09:19:26.999Z</time></trkpt><trkpt lat="43.389671356657814" lon="11.975755862280119"><ele>711.0</ele><time>2026-04-11T09:19:27.999Z</time></trkpt><trkpt lat="43.38959404523932" lon="11.975809940780527"><ele>711.0</ele><time>2026-04-11T09:19:28.999Z</time></trkpt><trkpt lat="43.3895209408686" lon="11.975878114977277"><ele>712.1999999999999</ele><time>2026-04-11T09:19:29.999Z</time></trkpt><trkpt lat="43.3894488961038" lon="11.975957518843844"><ele>713.4</ele><time>2026-04-11T09:19:30.999Z</time></trkpt><trkpt lat="43.389381071086724" lon="11.976041518753938"><ele>714.6</ele><time>2026-04-11T09:19:31.999Z</time></trkpt><trkpt lat="43.38931482998991" lon="11.976128952724492"><ele>715.8</ele><time>2026-04-11T09:19:32.999Z</time></trkpt><trkpt lat="43.38924312787899" lon="11.976210281094849"><ele>717.0</ele><time>2026-04-11T09:19:33.999Z</time></trkpt><trkpt lat="43.38916372088023" lon="11.976279619050302"><ele>717.0</ele><time>2026-04-11T09:19:34.999Z</time></trkpt><trkpt lat="43.38907953940461" lon="11.97632007362119"><ele>717.0</ele><time>2026-04-11T09:19:35.999Z</time></trkpt><trkpt lat="43.388982455541154" lon="11.97634308155213"><ele>717.0</ele><time>2026-04-11T09:19:36.999Z</time></trkpt><trkpt lat="43.38888731298944" lon="11.97634854389953"><ele>717.0</ele><time>2026-04-11T09:19:37.999Z</time></trkpt><trkpt lat="43.38879356074187" lon="11.976358365870425"><ele>717.0</ele><time>2026-04-11T09:19:38.999Z</time></trkpt><trkpt lat="43.3887071718398" lon="11.97636820681521"><ele>715.6666666666666</ele><time>2026-04-11T09:19:39.999Z</time></trkpt><trkpt lat="43.3886252413798" lon="11.976388215275207"><ele>714.3333333333334</ele><time>2026-04-11T09:19:40.999Z</time></trkpt><trkpt lat="43.388544940203325" lon="11.976426559240334"><ele>713.0</ele><time>2026-04-11T09:19:41.999Z</time></trkpt><trkpt lat="43.38847301942604" lon="11.976474179115"><ele>711.6666666666667</ele><time>2026-04-11T09:19:42.999Z</time></trkpt><trkpt lat="43.38840345805708" lon="11.976530124802403"><ele>710.3333333333334</ele><time>2026-04-11T09:19:43.999Z</time></trkpt><trkpt lat="43.388336838163006" lon="11.97658298030219"><ele>709.0</ele><time>2026-04-11T09:19:44.999Z</time></trkpt><trkpt lat="43.388267077512644" lon="11.976635846723621"><ele>709.0000000000001</ele><time>2026-04-11T09:19:45.999Z</time></trkpt><trkpt lat="43.38819877072772" lon="11.976677910207693"><ele>709.0</ele><time>2026-04-11T09:19:46.999Z</time></trkpt><trkpt lat="43.38812960877035" lon="11.976724201369999"><ele>709.0</ele><time>2026-04-11T09:19:47.999Z</time></trkpt><trkpt lat="43.38806454210306" lon="11.976770860487814"><ele>709.0</ele><time>2026-04-11T09:19:48.999Z</time></trkpt><trkpt lat="43.38799939593687" lon="11.97681761211407"><ele>709.0</ele><time>2026-04-11T09:19:49.999Z</time></trkpt><trkpt lat="43.387936730125006" lon="11.976860923332291"><ele>709.0000000000001</ele><time>2026-04-11T09:19:50.999Z</time></trkpt><trkpt lat="43.38787424623395" lon="11.976902595372659"><ele>709.0</ele><time>2026-04-11T09:19:51.999Z</time></trkpt><trkpt lat="43.387814171410675" lon="11.976944399081646"><ele>707.6</ele><time>2026-04-11T09:19:52.999Z</time></trkpt><trkpt lat="43.38775893216745" lon="11.97698702562906"><ele>706.2</ele><time>2026-04-11T09:19:53.999Z</time></trkpt><trkpt lat="43.38766384836969" lon="11.977072622280552"><ele>704.8000000000001</ele><time>2026-04-11T09:19:55.999Z</time></trkpt><trkpt lat="43.38760075976184" lon="11.977193610467575"><ele>703.4000000000001</ele><time>2026-04-11T09:19:57.999Z</time></trkpt><trkpt lat="43.38759914417159" lon="11.977355655454614"><ele>702.0</ele><time>2026-04-11T09:19:59.999Z</time></trkpt><trkpt lat="43.387651498861274" lon="11.977508207179637"><ele>702.8333333333334</ele><time>2026-04-11T09:20:01.999Z</time></trkpt><trkpt lat="43.38767253146528" lon="11.977596529064357"><ele>703.6666666666666</ele><time>2026-04-11T09:20:02.999Z</time></trkpt><trkpt lat="43.38770659735433" lon="11.977671024809968"><ele>704.5</ele><time>2026-04-11T09:20:03.999Z</time></trkpt><trkpt lat="43.38776781362381" lon="11.977783503445362"><ele>705.3333333333333</ele><time>2026-04-11T09:20:05.999Z</time></trkpt><trkpt lat="43.3877522602337" lon="11.977905469651406"><ele>706.1666666666666</ele><time>2026-04-11T09:20:07.999Z</time></trkpt><trkpt lat="43.38769519665284" lon="11.978018582997663"><ele>707.0</ele><time>2026-04-11T09:20:09.999Z</time></trkpt><trkpt lat="43.387625719891034" lon="11.97812575793486"><ele>707.0</ele><time>2026-04-11T09:20:11.999Z</time></trkpt><trkpt lat="43.38755909105368" lon="11.978231674476397"><ele>707.0</ele><time>2026-04-11T09:20:13.999Z</time></trkpt><trkpt lat="43.387487147282044" lon="11.9783333664253"><ele>707.0</ele><time>2026-04-11T09:20:15.999Z</time></trkpt><trkpt lat="43.387413345310826" lon="11.978438854007996"><ele>707.0</ele><time>2026-04-11T09:20:17.999Z</time></trkpt><trkpt lat="43.38733102770649" lon="11.978554961244447"><ele>707.0</ele><time>2026-04-11T09:20:19.999Z</time></trkpt><trkpt lat="43.38728067500109" lon="11.9786233372675"><ele>705.1666666666666</ele><time>2026-04-11T09:20:21Z</time></trkpt><trkpt lat="43.38722570483257" lon="11.978698155281224"><ele>703.3333333333333</ele><time>2026-04-11T09:20:22Z</time></trkpt><trkpt lat="43.387162724854825" lon="11.978786068117829"><ele>701.5</ele><time>2026-04-11T09:20:23Z</time></trkpt><trkpt lat="43.38710064150856" lon="11.978872687491208"><ele>699.6666666666666</ele><time>2026-04-11T09:20:24Z</time></trkpt><trkpt lat="43.38705305745484" lon="11.978960688401472"><ele>697.8333333333334</ele><time>2026-04-11T09:20:25Z</time></trkpt><trkpt lat="43.3870165829054" lon="11.97905112889106"><ele>696.0</ele><time>2026-04-11T09:20:26Z</time></trkpt><trkpt lat="43.38699869581603" lon="11.979148942800956"><ele>698.1666666666666</ele><time>2026-04-11T09:20:27Z</time></trkpt><trkpt lat="43.3869987343093" lon="11.979247360729374"><ele>700.3333333333334</ele><time>2026-04-11T09:20:28Z</time></trkpt><trkpt lat="43.38701370766173" lon="11.979354955383968"><ele>702.5</ele><time>2026-04-11T09:20:29Z</time></trkpt><trkpt lat="43.38703396349132" lon="11.97946653396749"><ele>704.6666666666667</ele><time>2026-04-11T09:20:30Z</time></trkpt><trkpt lat="43.38705621673408" lon="11.979586498771257"><ele>706.8333333333334</ele><time>2026-04-11T09:20:31Z</time></trkpt><trkpt lat="43.38706462278049" lon="11.979697641122558"><ele>709.0</ele><time>2026-04-11T09:20:32Z</time></trkpt><trkpt lat="43.387050313724195" lon="11.979801689158347"><ele>709.0</ele><time>2026-04-11T09:20:33Z</time></trkpt><trkpt lat="43.38701631480977" lon="11.979903840244793"><ele>709.0</ele><time>2026-04-11T09:20:34Z</time></trkpt><trkpt lat="43.38696924998" lon="11.979995145719997"><ele>709.0</ele><time>2026-04-11T09:20:35Z</time></trkpt><trkpt lat="43.38691437408865" lon="11.980073153414526"><ele>709.0</ele><time>2026-04-11T09:20:36Z</time></trkpt><trkpt lat="43.38685210071062" lon="11.98014281857993"><ele>709.0</ele><time>2026-04-11T09:20:37Z</time></trkpt><trkpt lat="43.38678971003454" lon="11.980218212823173"><ele>709.0</ele><time>2026-04-11T09:20:38Z</time></trkpt><trkpt lat="43.38673480729291" lon="11.980283114034648"><ele>710.6</ele><time>2026-04-11T09:20:39Z</time></trkpt><trkpt lat="43.38665986228834" lon="11.980392455497817"><ele>712.2</ele><time>2026-04-11T09:20:41Z</time></trkpt><trkpt lat="43.38666250080063" lon="11.98049225392048"><ele>713.8000000000001</ele><time>2026-04-11T09:20:44Z</time></trkpt><trkpt lat="43.386756727898856" lon="11.980592394832932"><ele>715.4000000000001</ele><time>2026-04-11T09:20:47Z</time></trkpt><trkpt lat="43.38687359771412" lon="11.98063754817459"><ele>717.0</ele><time>2026-04-11T09:20:49Z</time></trkpt><trkpt lat="43.38695713283374" lon="11.980718160250479"><ele>717.0</ele><time>2026-04-11T09:20:51Z</time></trkpt><trkpt lat="43.38703093195068" lon="11.980825208701658"><ele>717.0</ele><time>2026-04-11T09:20:53Z</time></trkpt><trkpt lat="43.38707394684925" lon="11.980949444369687"><ele>717.0</ele><time>2026-04-11T09:20:55Z</time></trkpt><trkpt lat="43.38712229549108" lon="11.981039446695068"><ele>717.0</ele><time>2026-04-11T09:20:56.999Z</time></trkpt><trkpt lat="43.38717949933321" lon="11.98108480772621"><ele>717.0</ele><time>2026-04-11T09:20:59.999Z</time></trkpt><trkpt lat="43.387332196294146" lon="11.98160429375166"><ele>714.6</ele><time>2026-04-11T09:21:16.999Z</time></trkpt><trkpt lat="43.38732490592224" lon="11.981691927122817"><ele>712.2</ele><time>2026-04-11T09:21:52.999Z</time></trkpt><trkpt lat="43.38725493338637" lon="11.981786695105678"><ele>709.8</ele><time>2026-04-11T09:21:54.999Z</time></trkpt><trkpt lat="43.38716061043643" lon="11.981886053110884"><ele>707.4</ele><time>2026-04-11T09:21:56.999Z</time></trkpt><trkpt lat="43.387053167457765" lon="11.98197554406685"><ele>705.0</ele><time>2026-04-11T09:21:58.999Z</time></trkpt><trkpt lat="43.38693638614581" lon="11.98202925850059"><ele>705.0</ele><time>2026-04-11T09:22:00.999Z</time></trkpt><trkpt lat="43.386817984050325" lon="11.982082633008348"><ele>705.0</ele><time>2026-04-11T09:22:02.999Z</time></trkpt><trkpt lat="43.38670215217656" lon="11.982138350400882"><ele>705.0</ele><time>2026-04-11T09:22:04.999Z</time></trkpt><trkpt lat="43.38660160020391" lon="11.982222560142075"><ele>705.0</ele><time>2026-04-11T09:22:06.999Z</time></trkpt><trkpt lat="43.38654035682104" lon="11.982275129555807"><ele>705.0</ele><time>2026-04-11T09:22:08.999Z</time></trkpt><trkpt lat="43.38659733463019" lon="11.982208133059475"><ele>705.0</ele><time>2026-04-11T09:22:39.999Z</time></trkpt><trkpt lat="43.386531968178964" lon="11.98227331283819"><ele>705.0</ele><time>2026-04-11T09:23:38.999Z</time></trkpt><trkpt lat="43.38648394484479" lon="11.982352937458113"><ele>705.0</ele><time>2026-04-11T09:23:42.999Z</time></trkpt><trkpt lat="43.38646616547812" lon="11.982471423693958"><ele>705.0</ele><time>2026-04-11T09:23:47.999Z</time></trkpt><trkpt lat="43.38644965358713" lon="11.982568387996736"><ele>705.0</ele><time>2026-04-11T09:23:50.999Z</time></trkpt><trkpt lat="43.38643689413983" lon="11.982696178940177"><ele>705.0</ele><time>2026-04-11T09:23:54.999Z</time></trkpt><trkpt lat="43.386415745121646" lon="11.982802846108932"><ele>703.5714285714286</ele><time>2026-04-11T09:23:57.999Z</time></trkpt><trkpt lat="43.38642096221454" lon="11.982890260711223"><ele>702.1428571428571</ele><time>2026-04-11T09:24:00.999Z</time></trkpt><trkpt lat="43.386420264052575" lon="11.98298699013167"><ele>700.7142857142858</ele><time>2026-04-11T09:24:04.999Z</time></trkpt><trkpt lat="43.38640351369649" lon="11.98308692043663"><ele>699.2857142857142</ele><time>2026-04-11T09:24:08.999Z</time></trkpt><trkpt lat="43.386337768082186" lon="11.983142723076366"><ele>697.8571428571429</ele><time>2026-04-11T09:24:12.999Z</time></trkpt><trkpt lat="43.38626237978195" lon="11.983181484187297"><ele>696.4285714285714</ele><time>2026-04-11T09:24:16.999Z</time></trkpt><trkpt lat="43.38619782259542" lon="11.983192965229026"><ele>695.0</ele><time>2026-04-11T09:24:19.999Z</time></trkpt><trkpt lat="43.38610680024792" lon="11.983226267476734"><ele>694.6</ele><time>2026-04-11T09:24:21.999Z</time></trkpt><trkpt lat="43.386014821746635" lon="11.983243477766296"><ele>694.2</ele><time>2026-04-11T09:24:23.999Z</time></trkpt><trkpt lat="43.38591162777129" lon="11.983189835133247"><ele>693.8</ele><time>2026-04-11T09:24:25.999Z</time></trkpt><trkpt lat="43.38580151559681" lon="11.983130787949923"><ele>693.4</ele><time>2026-04-11T09:24:27.999Z</time></trkpt><trkpt lat="43.38571970040861" lon="11.983119727712342"><ele>693.0</ele><time>2026-04-11T09:24:29.999Z</time></trkpt><trkpt lat="43.38560789654753" lon="11.983151641841163"><ele>693.0</ele><time>2026-04-11T09:24:31.999Z</time></trkpt><trkpt lat="43.38553832484078" lon="11.983170736032754"><ele>693.0</ele><time>2026-04-11T09:24:32.999Z</time></trkpt><trkpt lat="43.385461224124924" lon="11.983183730585814"><ele>693.0</ele><time>2026-04-11T09:24:33.999Z</time></trkpt><trkpt lat="43.38539310306642" lon="11.983183906531236"><ele>693.0</ele><time>2026-04-11T09:24:34.999Z</time></trkpt><trkpt lat="43.38532888950281" lon="11.983178153650924"><ele>693.0</ele><time>2026-04-11T09:24:35.999Z</time></trkpt><trkpt lat="43.38521161304385" lon="11.98320421446589"><ele>693.0</ele><time>2026-04-11T09:24:37.999Z</time></trkpt><trkpt lat="43.385144573923725" lon="11.98324375001239"><ele>691.8333333333334</ele><time>2026-04-11T09:24:38.999Z</time></trkpt><trkpt lat="43.38508044278487" lon="11.983296216180813"><ele>690.6666666666666</ele><time>2026-04-11T09:24:39.999Z</time></trkpt><trkpt lat="43.38502549239695" lon="11.983341582843304"><ele>689.5</ele><time>2026-04-11T09:24:40.999Z</time></trkpt><trkpt lat="43.384938840671886" lon="11.983351509803605"><ele>688.3333333333333</ele><time>2026-04-11T09:24:42.999Z</time></trkpt><trkpt lat="43.38486161578493" lon="11.983293002601183"><ele>687.1666666666666</ele><time>2026-04-11T09:24:46Z</time></trkpt><trkpt lat="43.38479489272409" lon="11.983310282652894"><ele>686.0</ele><time>2026-04-11T09:24:48Z</time></trkpt><trkpt lat="43.38472768840024" lon="11.98333382087247"><ele>686.0</ele><time>2026-04-11T09:24:49.999Z</time></trkpt><trkpt lat="43.38465465711104" lon="11.983375079946699"><ele>686.0</ele><time>2026-04-11T09:24:51.999Z</time></trkpt><trkpt lat="43.38461025095165" lon="11.983479429660706"><ele>686.0</ele><time>2026-04-11T09:24:53.999Z</time></trkpt><trkpt lat="43.38457501541298" lon="11.983603410358718"><ele>686.0</ele><time>2026-04-11T09:24:55.999Z</time></trkpt><trkpt lat="43.38454728611594" lon="11.98372746373599"><ele>686.0</ele><time>2026-04-11T09:24:57.999Z</time></trkpt><trkpt lat="43.38452228700305" lon="11.983837015421615"><ele>686.0</ele><time>2026-04-11T09:24:59.999Z</time></trkpt><trkpt lat="43.38448193081891" lon="11.983943672992497"><ele>686.0</ele><time>2026-04-11T09:25:01.999Z</time></trkpt><trkpt lat="43.38443403597818" lon="11.984074557392205"><ele>686.0</ele><time>2026-04-11T09:25:03.999Z</time></trkpt><trkpt lat="43.384374496287606" lon="11.984231596553832"><ele>686.0</ele><time>2026-04-11T09:25:05.999Z</time></trkpt><trkpt lat="43.38432452585702" lon="11.98437524425983"><ele>686.0</ele><time>2026-04-11T09:25:07.999Z</time></trkpt><trkpt lat="43.384240643700664" lon="11.984481954443725"><ele>687.1666666666666</ele><time>2026-04-11T09:25:09.999Z</time></trkpt><trkpt lat="43.38416863727505" lon="11.984516545443626"><ele>688.3333333333333</ele><time>2026-04-11T09:25:11.999Z</time></trkpt><trkpt lat="43.38410574124056" lon="11.984567854285908"><ele>689.5</ele><time>2026-04-11T09:25:13.999Z</time></trkpt><trkpt lat="43.38403128323292" lon="11.98460901006054"><ele>690.6666666666666</ele><time>2026-04-11T09:25:16.999Z</time></trkpt><trkpt lat="43.38396089967937" lon="11.984632315470915"><ele>691.8333333333334</ele><time>2026-04-11T09:25:18.999Z</time></trkpt><trkpt lat="43.38389008088297" lon="11.984658166495372"><ele>693.0</ele><time>2026-04-11T09:25:21.999Z</time></trkpt><trkpt lat="43.383810639354046" lon="11.984699876589103"><ele>694.8333333333334</ele><time>2026-04-11T09:25:24.999Z</time></trkpt><trkpt lat="43.38373875870892" lon="11.984749761144204"><ele>696.6666666666666</ele><time>2026-04-11T09:25:27.999Z</time></trkpt><trkpt lat="43.3836742166553" lon="11.984777495027082"><ele>698.5</ele><time>2026-04-11T09:25:29.999Z</time></trkpt><trkpt lat="43.38358064045174" lon="11.984766090912302"><ele>700.3333333333333</ele><time>2026-04-11T09:25:32.999Z</time></trkpt><trkpt lat="43.38350933746463" lon="11.984813035285935"><ele>702.1666666666666</ele><time>2026-04-11T09:25:35.999Z</time></trkpt><trkpt lat="43.38357565968532" lon="11.984815498972871"><ele>704.0</ele><time>2026-04-11T09:27:08Z</time></trkpt><trkpt lat="43.38351311514668" lon="11.984802883632375"><ele>704.0</ele><time>2026-04-11T09:27:24Z</time></trkpt><trkpt lat="43.38344136492465" lon="11.984893047412424"><ele>704.0</ele><time>2026-04-11T09:27:27Z</time></trkpt><trkpt lat="43.38336525518721" lon="11.984953858048605"><ele>704.0</ele><time>2026-04-11T09:27:29Z</time></trkpt><trkpt lat="43.38328444396891" lon="11.98502597450203"><ele>704.0</ele><time>2026-04-11T09:27:31Z</time></trkpt><trkpt lat="43.383203787282184" lon="11.985067319360736"><ele>704.0</ele><time>2026-04-11T09:27:33Z</time></trkpt><trkpt lat="43.3831342029731" lon="11.985124980396892"><ele>704.0</ele><time>2026-04-11T09:27:35Z</time></trkpt><trkpt lat="43.383064953104515" lon="11.985158978525156"><ele>705.5</ele><time>2026-04-11T09:27:37.999Z</time></trkpt><trkpt lat="43.38299904960256" lon="11.985195851033112"><ele>707.0</ele><time>2026-04-11T09:27:40.999Z</time></trkpt><trkpt lat="43.38293805950299" lon="11.985265885805328"><ele>708.5</ele><time>2026-04-11T09:27:42.999Z</time></trkpt><trkpt lat="43.38287201208952" lon="11.985305680396644"><ele>710.0</ele><time>2026-04-11T09:27:44.999Z</time></trkpt><trkpt lat="43.38280719559503" lon="11.985345258764685"><ele>711.5</ele><time>2026-04-11T09:27:46.999Z</time></trkpt><trkpt lat="43.38271066646438" lon="11.985403773121917"><ele>713.0</ele><time>2026-04-11T09:27:48.999Z</time></trkpt><trkpt lat="43.38260969930915" lon="11.985485464383222"><ele>713.0</ele><time>2026-04-11T09:27:50.999Z</time></trkpt><trkpt lat="43.38250039478675" lon="11.985548361927126"><ele>713.0</ele><time>2026-04-11T09:27:52.999Z</time></trkpt><trkpt lat="43.38239547756677" lon="11.98562523079387"><ele>713.0</ele><time>2026-04-11T09:27:54.999Z</time></trkpt><trkpt lat="43.382307909439746" lon="11.985711585390495"><ele>713.0</ele><time>2026-04-11T09:27:56.999Z</time></trkpt><trkpt lat="43.38226029164783" lon="11.985768793448875"><ele>713.0</ele><time>2026-04-11T09:27:57.999Z</time></trkpt><trkpt lat="43.3821821236567" lon="11.985883473286876"><ele>714.8</ele><time>2026-04-11T09:27:59.999Z</time></trkpt><trkpt lat="43.38211593277192" lon="11.985955424206624"><ele>716.5999999999999</ele><time>2026-04-11T09:28:01.999Z</time></trkpt><trkpt lat="43.38201463032078" lon="11.985966546024093"><ele>718.4000000000001</ele><time>2026-04-11T09:28:03.999Z</time></trkpt><trkpt lat="43.38192224006788" lon="11.985988346897853"><ele>720.2</ele><time>2026-04-11T09:28:05.999Z</time></trkpt><trkpt lat="43.38182263727549" lon="11.986012974750107"><ele>722.0</ele><time>2026-04-11T09:28:07.999Z</time></trkpt><trkpt lat="43.3817274421124" lon="11.986073643930535"><ele>722.0</ele><time>2026-04-11T09:28:09.999Z</time></trkpt><trkpt lat="43.38165464973326" lon="11.986133346924307"><ele>722.0</ele><time>2026-04-11T09:28:11.999Z</time></trkpt><trkpt lat="43.38159165142399" lon="11.986134839178618"><ele>722.0</ele><time>2026-04-11T09:28:13.999Z</time></trkpt><trkpt lat="43.38152672975689" lon="11.986104545607837"><ele>722.0</ele><time>2026-04-11T09:28:15.999Z</time></trkpt><trkpt lat="43.381455781673615" lon="11.986098334756413"><ele>722.0</ele><time>2026-04-11T09:28:17.999Z</time></trkpt><trkpt lat="43.38139415712027" lon="11.9861226701104"><ele>722.0</ele><time>2026-04-11T09:28:19.999Z</time></trkpt><trkpt lat="43.38131703036869" lon="11.986155558154646"><ele>722.0</ele><time>2026-04-11T09:28:22.999Z</time></trkpt><trkpt lat="43.38124453389815" lon="11.986205374475567"><ele>722.5</ele><time>2026-04-11T09:28:25.999Z</time></trkpt><trkpt lat="43.38118562353919" lon="11.986260417878208"><ele>723.0</ele><time>2026-04-11T09:28:27.999Z</time></trkpt><trkpt lat="43.38110444745036" lon="11.986310864910923"><ele>723.5</ele><time>2026-04-11T09:28:29.999Z</time></trkpt><trkpt lat="43.381038464659554" lon="11.986337059030664"><ele>724.0</ele><time>2026-04-11T09:28:31.999Z</time></trkpt><trkpt lat="43.38095249178997" lon="11.9863119595534"><ele>724.5</ele><time>2026-04-11T09:28:35.999Z</time></trkpt><trkpt lat="43.38090232941553" lon="11.986252085750296"><ele>725.0</ele><time>2026-04-11T09:28:37.999Z</time></trkpt><trkpt lat="43.38086525963939" lon="11.98617268224952"><ele>725.0</ele><time>2026-04-11T09:28:39.999Z</time></trkpt><trkpt lat="43.38080066624313" lon="11.98610505609719"><ele>725.0</ele><time>2026-04-11T09:28:42.999Z</time></trkpt><trkpt lat="43.380720155986026" lon="11.986106701537775"><ele>725.0</ele><time>2026-04-11T09:28:45Z</time></trkpt><trkpt lat="43.38064887680676" lon="11.986076185830209"><ele>725.0</ele><time>2026-04-11T09:28:47Z</time></trkpt><trkpt lat="43.38061547295954" lon="11.985989878910775"><ele>725.0</ele><time>2026-04-11T09:28:49Z</time></trkpt><trkpt lat="43.380591719564634" lon="11.985890920141795"><ele>725.0</ele><time>2026-04-11T09:28:52Z</time></trkpt><trkpt lat="43.3805585899071" lon="11.985799803002525"><ele>723.0</ele><time>2026-04-11T09:28:55Z</time></trkpt><trkpt lat="43.38048823622545" lon="11.985721769775328"><ele>721.0</ele><time>2026-04-11T09:28:57Z</time></trkpt><trkpt lat="43.38041743093843" lon="11.985701937583435"><ele>719.0</ele><time>2026-04-11T09:28:59Z</time></trkpt><trkpt lat="43.38033956834124" lon="11.985748672521988"><ele>717.0</ele><time>2026-04-11T09:29:02Z</time></trkpt><trkpt lat="43.38025115940682" lon="11.985755827421416"><ele>715.0</ele><time>2026-04-11T09:29:05Z</time></trkpt><trkpt lat="43.3801648918871" lon="11.985818976684165"><ele>713.0</ele><time>2026-04-11T09:29:08Z</time></trkpt><trkpt lat="43.38008065550302" lon="11.985843525188654"><ele>713.0</ele><time>2026-04-11T09:29:11Z</time></trkpt><trkpt lat="43.379999931940866" lon="11.985808795877452"><ele>713.0</ele><time>2026-04-11T09:29:14Z</time></trkpt><trkpt lat="43.37993046148306" lon="11.985754759557569"><ele>713.0</ele><time>2026-04-11T09:29:17Z</time></trkpt><trkpt lat="43.37985156593213" lon="11.985743817678983"><ele>713.0</ele><time>2026-04-11T09:29:21Z</time></trkpt><trkpt lat="43.37979061178025" lon="11.985671383919357"><ele>713.0</ele><time>2026-04-11T09:29:24Z</time></trkpt><trkpt lat="43.37972845436825" lon="11.985623580455739"><ele>713.0</ele><time>2026-04-11T09:29:26Z</time></trkpt><trkpt lat="43.37966687905582" lon="11.98553521986153"><ele>713.0</ele><time>2026-04-11T09:29:28Z</time></trkpt><trkpt lat="43.37961958196464" lon="11.985451396288767"><ele>713.0</ele><time>2026-04-11T09:29:30Z</time></trkpt><trkpt lat="43.379576545717555" lon="11.985358992381293"><ele>713.0</ele><time>2026-04-11T09:29:32Z</time></trkpt><trkpt lat="43.37954122321788" lon="11.985275012352142"><ele>713.0</ele><time>2026-04-11T09:29:34Z</time></trkpt><trkpt lat="43.37948379936661" lon="11.985161755617527"><ele>713.0</ele><time>2026-04-11T09:29:37Z</time></trkpt><trkpt lat="43.3794477063971" lon="11.985034195373254"><ele>713.0</ele><time>2026-04-11T09:29:40Z</time></trkpt><trkpt lat="43.37941770976078" lon="11.984923342354003"><ele>712.3333333333333</ele><time>2026-04-11T09:29:43Z</time></trkpt><trkpt lat="43.37940978071577" lon="11.984792594328873"><ele>711.6666666666666</ele><time>2026-04-11T09:29:46Z</time></trkpt><trkpt lat="43.37936377423305" lon="11.984695921025084"><ele>711.0</ele><time>2026-04-11T09:29:49Z</time></trkpt><trkpt lat="43.37929404716651" lon="11.984666791965527"><ele>710.3333333333334</ele><time>2026-04-11T09:30:40.999Z</time></trkpt><trkpt lat="43.379203939524146" lon="11.984676082206233"><ele>709.6666666666667</ele><time>2026-04-11T09:30:43.999Z</time></trkpt><trkpt lat="43.3791295233664" lon="11.984661368122651"><ele>709.0</ele><time>2026-04-11T09:30:45.999Z</time></trkpt><trkpt lat="43.37905707224376" lon="11.984615390694108"><ele>709.0</ele><time>2026-04-11T09:30:49Z</time></trkpt><trkpt lat="43.378978720027575" lon="11.984585151735395"><ele>709.0</ele><time>2026-04-11T09:30:53Z</time></trkpt><trkpt lat="43.378916121617465" lon="11.98461820586242"><ele>709.0</ele><time>2026-04-11T09:30:55Z</time></trkpt><trkpt lat="43.37887596594946" lon="11.98471205232828"><ele>709.0</ele><time>2026-04-11T09:30:57Z</time></trkpt><trkpt lat="43.37887756977009" lon="11.984808571292556"><ele>709.0</ele><time>2026-04-11T09:30:59Z</time></trkpt><trkpt lat="43.37885915613051" lon="11.984938692736177"><ele>709.0</ele><time>2026-04-11T09:31:02Z</time></trkpt><trkpt lat="43.37884541641195" lon="11.985037228735507"><ele>709.6666666666667</ele><time>2026-04-11T09:31:04Z</time></trkpt><trkpt lat="43.37885202010988" lon="11.985158617479879"><ele>710.3333333333334</ele><time>2026-04-11T09:31:07Z</time></trkpt><trkpt lat="43.37886523448042" lon="11.98524723870455"><ele>711.0</ele><time>2026-04-11T09:31:09Z</time></trkpt><trkpt lat="43.378864724730114" lon="11.985339761463035"><ele>711.6666666666666</ele><time>2026-04-11T09:31:12Z</time></trkpt><trkpt lat="43.378843635902115" lon="11.985459319580226"><ele>712.3333333333333</ele><time>2026-04-11T09:31:15Z</time></trkpt><trkpt lat="43.37881239371218" lon="11.985547984349177"><ele>713.0</ele><time>2026-04-11T09:31:17Z</time></trkpt><trkpt lat="43.378781768209556" lon="11.985661061456266"><ele>708.5714285714286</ele><time>2026-04-11T09:31:20Z</time></trkpt><trkpt lat="43.37878104486175" lon="11.985751521373789"><ele>704.1428571428572</ele><time>2026-04-11T09:31:22Z</time></trkpt><trkpt lat="43.37877717014591" lon="11.985851301533044"><ele>699.7142857142858</ele><time>2026-04-11T09:31:24Z</time></trkpt><trkpt lat="43.37876607067472" lon="11.98595551917447"><ele>695.2857142857142</ele><time>2026-04-11T09:31:27Z</time></trkpt><trkpt lat="43.37873836739269" lon="11.986064529286917"><ele>690.8571428571429</ele><time>2026-04-11T09:31:29Z</time></trkpt><trkpt lat="43.378697848271685" lon="11.986141588132831"><ele>686.4285714285714</ele><time>2026-04-11T09:31:31Z</time></trkpt><trkpt lat="43.37866661179336" lon="11.986243695363152"><ele>682.0</ele><time>2026-04-11T09:31:34Z</time></trkpt><trkpt lat="43.37865143328334" lon="11.986329120391144"><ele>682.0</ele><time>2026-04-11T09:31:36Z</time></trkpt><trkpt lat="43.37863238411106" lon="11.986423164242083"><ele>682.0</ele><time>2026-04-11T09:31:38Z</time></trkpt><trkpt lat="43.37861428843427" lon="11.986525426631164"><ele>682.0</ele><time>2026-04-11T09:31:40Z</time></trkpt><trkpt lat="43.37857688373634" lon="11.986601362141425"><ele>682.0</ele><time>2026-04-11T09:31:42Z</time></trkpt><trkpt lat="43.378555851732195" lon="11.98670342809644"><ele>682.0</ele><time>2026-04-11T09:31:45Z</time></trkpt><trkpt lat="43.37853795368447" lon="11.98680191725456"><ele>682.0</ele><time>2026-04-11T09:31:48Z</time></trkpt><trkpt lat="43.37852712250944" lon="11.986896381865785"><ele>682.0</ele><time>2026-04-11T09:31:51Z</time></trkpt><trkpt lat="43.37852417813201" lon="11.986993327391811"><ele>682.1666666666667</ele><time>2026-04-11T09:31:54Z</time></trkpt><trkpt lat="43.378514994652775" lon="11.987091295590043"><ele>682.3333333333334</ele><time>2026-04-11T09:31:57Z</time></trkpt><trkpt lat="43.37851332445631" lon="11.987202719147291"><ele>682.5</ele><time>2026-04-11T09:32:00Z</time></trkpt><trkpt lat="43.37848165402478" lon="11.987313872591235"><ele>682.6666666666666</ele><time>2026-04-11T09:32:03Z</time></trkpt><trkpt lat="43.37844776877425" lon="11.98742696491612"><ele>682.8333333333333</ele><time>2026-04-11T09:32:06Z</time></trkpt><trkpt lat="43.37842276982403" lon="11.987516455362508"><ele>683.0</ele><time>2026-04-11T09:32:08Z</time></trkpt><trkpt lat="43.3783930414353" lon="11.987605960875126"><ele>682.3333333333333</ele><time>2026-04-11T09:32:10Z</time></trkpt><trkpt lat="43.3783508726411" lon="11.987684227411313"><ele>681.6666666666666</ele><time>2026-04-11T09:32:12Z</time></trkpt><trkpt lat="43.378316630942685" lon="11.987762691291378"><ele>681.0</ele><time>2026-04-11T09:32:14Z</time></trkpt><trkpt lat="43.37825926585762" lon="11.987863478785734"><ele>680.3333333333334</ele><time>2026-04-11T09:32:16Z</time></trkpt><trkpt lat="43.37821147397051" lon="11.987980683951928"><ele>679.6666666666667</ele><time>2026-04-11T09:32:18Z</time></trkpt><trkpt lat="43.37816406927157" lon="11.988085536847436"><ele>679.0</ele><time>2026-04-11T09:32:20Z</time></trkpt><trkpt lat="43.37814206324917" lon="11.988179733629428"><ele>679.0</ele><time>2026-04-11T09:32:21.999Z</time></trkpt><trkpt lat="43.378143781807644" lon="11.988294214309068"><ele>679.0</ele><time>2026-04-11T09:32:23.999Z</time></trkpt><trkpt lat="43.3781414227974" lon="11.988386256777131"><ele>679.0</ele><time>2026-04-11T09:32:25.999Z</time></trkpt><trkpt lat="43.37818955857877" lon="11.98850133091046"><ele>679.0</ele><time>2026-04-11T09:32:28.999Z</time></trkpt><trkpt lat="43.3782343538881" lon="11.98857593542718"><ele>679.0</ele><time>2026-04-11T09:32:30.999Z</time></trkpt><trkpt lat="43.37822411995296" lon="11.988666741674093"><ele>679.0</ele><time>2026-04-11T09:32:32.999Z</time></trkpt><trkpt lat="43.37816144184578" lon="11.988721167710196"><ele>677.3333333333334</ele><time>2026-04-11T09:32:34.999Z</time></trkpt><trkpt lat="43.378091882160255" lon="11.988710907777262"><ele>675.6666666666667</ele><time>2026-04-11T09:32:36.999Z</time></trkpt><trkpt lat="43.378006916063" lon="11.988616275692477"><ele>674.0</ele><time>2026-04-11T09:33:51Z</time></trkpt><trkpt lat="43.37795445573276" lon="11.988554829671173"><ele>672.3333333333334</ele><time>2026-04-11T09:33:54Z</time></trkpt><trkpt lat="43.37789006132559" lon="11.988467757198794"><ele>670.6666666666666</ele><time>2026-04-11T09:33:58Z</time></trkpt><trkpt lat="43.37784911245575" lon="11.988374692417079"><ele>669.0</ele><time>2026-04-11T09:34:01Z</time></trkpt><trkpt lat="43.37780008418001" lon="11.988309326226842"><ele>667.1666666666666</ele><time>2026-04-11T09:34:04Z</time></trkpt><trkpt lat="43.37775399046232" lon="11.98824867167294"><ele>665.3333333333334</ele><time>2026-04-11T09:34:06Z</time></trkpt><trkpt lat="43.37771617824018" lon="11.98812947919258"><ele>663.5</ele><time>2026-04-11T09:34:09Z</time></trkpt><trkpt lat="43.377694335109176" lon="11.988019570510733"><ele>661.6666666666667</ele><time>2026-04-11T09:34:12Z</time></trkpt><trkpt lat="43.37769647796818" lon="11.987921205221284"><ele>659.8333333333334</ele><time>2026-04-11T09:34:14Z</time></trkpt><trkpt lat="43.377707866780945" lon="11.987811871076351"><ele>658.0</ele><time>2026-04-11T09:34:16Z</time></trkpt><trkpt lat="43.377725479203534" lon="11.987705666146157"><ele>658.0</ele><time>2026-04-11T09:34:19Z</time></trkpt><trkpt lat="43.3777820772069" lon="11.987538950446467"><ele>658.0</ele><time>2026-04-11T09:34:22Z</time></trkpt><trkpt lat="43.377827727018754" lon="11.987467116019479"><ele>658.0</ele><time>2026-04-11T09:34:24Z</time></trkpt><trkpt lat="43.37788606579951" lon="11.987410885146847"><ele>658.0</ele><time>2026-04-11T09:34:26Z</time></trkpt><trkpt lat="43.37793117559253" lon="11.98734795484786"><ele>658.0</ele><time>2026-04-11T09:34:29Z</time></trkpt><trkpt lat="43.37798026533994" lon="11.987291280003745"><ele>658.0</ele><time>2026-04-11T09:34:31Z</time></trkpt><trkpt lat="43.3780303687996" lon="11.987223598294076"><ele>662.0</ele><time>2026-04-11T09:34:33Z</time></trkpt><trkpt lat="43.37807258851832" lon="11.98715765668971"><ele>666.0</ele><time>2026-04-11T09:34:34.999Z</time></trkpt><trkpt lat="43.378128726913744" lon="11.98708044571877"><ele>670.0</ele><time>2026-04-11T09:34:37.999Z</time></trkpt><trkpt lat="43.37813523317035" lon="11.986949389933917"><ele>674.0</ele><time>2026-04-11T09:34:41.999Z</time></trkpt><trkpt lat="43.378101092777364" lon="11.986862125342089"><ele>678.0</ele><time>2026-04-11T09:34:44.999Z</time></trkpt><trkpt lat="43.378083418228805" lon="11.986777814274264"><ele>682.0</ele><time>2026-04-11T09:34:46.999Z</time></trkpt><trkpt lat="43.3780804196447" lon="11.98666559462008"><ele>682.0</ele><time>2026-04-11T09:34:49.999Z</time></trkpt><trkpt lat="43.37809362865505" lon="11.986564192751723"><ele>682.0</ele><time>2026-04-11T09:34:52.999Z</time></trkpt><trkpt lat="43.378098586299025" lon="11.986440555771754"><ele>682.0</ele><time>2026-04-11T09:34:55.999Z</time></trkpt><trkpt lat="43.37811559203569" lon="11.986327511496095"><ele>682.0</ele><time>2026-04-11T09:34:58.999Z</time></trkpt><trkpt lat="43.378122054487974" lon="11.986228210055307"><ele>682.0</ele><time>2026-04-11T09:35:01Z</time></trkpt><trkpt lat="43.378113261390695" lon="11.986096227500612"><ele>682.0</ele><time>2026-04-11T09:35:03Z</time></trkpt><trkpt lat="43.37808110462811" lon="11.98598835119456"><ele>682.0</ele><time>2026-04-11T09:35:05Z</time></trkpt><trkpt lat="43.37806310645964" lon="11.985886516472158"><ele>682.0</ele><time>2026-04-11T09:35:08Z</time></trkpt><trkpt lat="43.37805861340386" lon="11.985768199600175"><ele>682.0</ele><time>2026-04-11T09:35:11Z</time></trkpt><trkpt lat="43.378049189876585" lon="11.985679248175806"><ele>682.0</ele><time>2026-04-11T09:35:12Z</time></trkpt><trkpt lat="43.37802143056027" lon="11.985601210609266"><ele>682.0</ele><time>2026-04-11T09:35:14Z</time></trkpt><trkpt lat="43.37795164202715" lon="11.985543338816552"><ele>682.0</ele><time>2026-04-11T09:35:17Z</time></trkpt><trkpt lat="43.37788058022119" lon="11.985518138731857"><ele>682.0</ele><time>2026-04-11T09:35:20Z</time></trkpt><trkpt lat="43.37780722106965" lon="11.985488081993203"><ele>675.8333333333334</ele><time>2026-04-11T09:35:23Z</time></trkpt><trkpt lat="43.37772394562015" lon="11.98547788387535"><ele>669.6666666666667</ele><time>2026-04-11T09:35:26Z</time></trkpt><trkpt lat="43.37766426104904" lon="11.985447116101176"><ele>663.5</ele><time>2026-04-11T09:35:28Z</time></trkpt><trkpt lat="43.37760485157425" lon="11.985410585282146"><ele>657.3333333333334</ele><time>2026-04-11T09:35:30Z</time></trkpt><trkpt lat="43.377548848781935" lon="11.985357359257414"><ele>651.1666666666666</ele><time>2026-04-11T09:35:32Z</time></trkpt><trkpt lat="43.3775113434375" lon="11.98524683517197"><ele>645.0</ele><time>2026-04-11T09:35:35Z</time></trkpt><trkpt lat="43.377521043341815" lon="11.985081791537795"><ele>645.6666666666666</ele><time>2026-04-11T09:35:38Z</time></trkpt><trkpt lat="43.37755274381096" lon="11.984973582736751"><ele>646.3333333333334</ele><time>2026-04-11T09:35:40Z</time></trkpt><trkpt lat="43.377580864609506" lon="11.984884259287005"><ele>647.0</ele><time>2026-04-11T09:35:42Z</time></trkpt><trkpt lat="43.377628892819175" lon="11.984814231804274"><ele>647.6666666666667</ele><time>2026-04-11T09:35:44Z</time></trkpt><trkpt lat="43.37765381870563" lon="11.984716243851754"><ele>648.3333333333334</ele><time>2026-04-11T09:35:46Z</time></trkpt><trkpt lat="43.37767891787706" lon="11.98460858196038"><ele>649.0</ele><time>2026-04-11T09:35:48Z</time></trkpt><trkpt lat="43.377696653543325" lon="11.984489020359165"><ele>649.0</ele><time>2026-04-11T09:35:50Z</time></trkpt><trkpt lat="43.377698003821465" lon="11.984397566293373"><ele>649.0</ele><time>2026-04-11T09:35:52Z</time></trkpt><trkpt lat="43.37769963782437" lon="11.984299563228852"><ele>649.0</ele><time>2026-04-11T09:35:54Z</time></trkpt><trkpt lat="43.377700365054736" lon="11.984201475482278"><ele>649.0</ele><time>2026-04-11T09:35:56Z</time></trkpt><trkpt lat="43.37770981700505" lon="11.9840738685665"><ele>649.0</ele><time>2026-04-11T09:35:58Z</time></trkpt><trkpt lat="43.37772821033572" lon="11.983961315220679"><ele>649.0</ele><time>2026-04-11T09:36:00Z</time></trkpt><trkpt lat="43.377750178038966" lon="11.983866961070307"><ele>648.3333333333334</ele><time>2026-04-11T09:36:02Z</time></trkpt><trkpt lat="43.377765969140235" lon="11.983780017662237"><ele>647.6666666666667</ele><time>2026-04-11T09:36:04Z</time></trkpt><trkpt lat="43.37780093644308" lon="11.983680524906463"><ele>647.0</ele><time>2026-04-11T09:36:06Z</time></trkpt><trkpt lat="43.377836975536404" lon="11.983596337149404"><ele>646.3333333333334</ele><time>2026-04-11T09:36:08Z</time></trkpt><trkpt lat="43.377880173325806" lon="11.98351267941657"><ele>645.6666666666666</ele><time>2026-04-11T09:36:10Z</time></trkpt><trkpt lat="43.37790769759112" lon="11.983420852639401"><ele>645.0</ele><time>2026-04-11T09:36:12Z</time></trkpt><trkpt lat="43.3779298647254" lon="11.983284525943224"><ele>645.0</ele><time>2026-04-11T09:36:15Z</time></trkpt><trkpt lat="43.37796983154605" lon="11.983162608825904"><ele>645.0</ele><time>2026-04-11T09:36:18Z</time></trkpt><trkpt lat="43.377964387898025" lon="11.983037572473812"><ele>645.0</ele><time>2026-04-11T09:36:21Z</time></trkpt><trkpt lat="43.37793184707254" lon="11.982936135457374"><ele>645.0</ele><time>2026-04-11T09:36:24Z</time></trkpt><trkpt lat="43.37786742639626" lon="11.982878190933022"><ele>645.0</ele><time>2026-04-11T09:36:27Z</time></trkpt><trkpt lat="43.377815514476566" lon="11.982821676164086"><ele>645.0</ele><time>2026-04-11T09:36:29Z</time></trkpt><trkpt lat="43.37775835469535" lon="11.98276072473051"><ele>645.0</ele><time>2026-04-11T09:36:31Z</time></trkpt><trkpt lat="43.37770573538521" lon="11.98267481332645"><ele>645.0</ele><time>2026-04-11T09:36:34Z</time></trkpt><trkpt lat="43.377663312220086" lon="11.982597530796122"><ele>645.0</ele><time>2026-04-11T09:36:35.999Z</time></trkpt><trkpt lat="43.37760058873304" lon="11.982553396682222"><ele>645.0</ele><time>2026-04-11T09:36:37.999Z</time></trkpt><trkpt lat="43.37753863258467" lon="11.982536959499988"><ele>645.0</ele><time>2026-04-11T09:36:39.999Z</time></trkpt><trkpt lat="43.3774578691768" lon="11.98249899344847"><ele>645.0</ele><time>2026-04-11T09:36:42.999Z</time></trkpt><trkpt lat="43.377377993063945" lon="11.982451625886252"><ele>649.8333333333334</ele><time>2026-04-11T09:36:45.999Z</time></trkpt><trkpt lat="43.377293728910786" lon="11.982411511226632"><ele>654.6666666666666</ele><time>2026-04-11T09:36:48.999Z</time></trkpt><trkpt lat="43.37722629066782" lon="11.982377093294652"><ele>659.5</ele><time>2026-04-11T09:36:50.999Z</time></trkpt><trkpt lat="43.37715126984204" lon="11.982336233934866"><ele>664.3333333333333</ele><time>2026-04-11T09:36:52.999Z</time></trkpt><trkpt lat="43.37707382012392" lon="11.982321504209631"><ele>669.1666666666666</ele><time>2026-04-11T09:36:54.999Z</time></trkpt><trkpt lat="43.37700732815717" lon="11.9823026310621"><ele>674.0</ele><time>2026-04-11T09:36:56.999Z</time></trkpt><trkpt lat="43.37691730455668" lon="11.982268333823674"><ele>674.0000000000001</ele><time>2026-04-11T09:36:59.999Z</time></trkpt><trkpt lat="43.3768299633261" lon="11.982246993182748"><ele>674.0</ele><time>2026-04-11T09:37:02.999Z</time></trkpt><trkpt lat="43.37675495497429" lon="11.982220572827625"><ele>674.0</ele><time>2026-04-11T09:37:04.999Z</time></trkpt><trkpt lat="43.37668157347679" lon="11.982196122403483"><ele>674.0</ele><time>2026-04-11T09:37:07Z</time></trkpt><trkpt lat="43.37661920223168" lon="11.982152605255836"><ele>674.0</ele><time>2026-04-11T09:37:09Z</time></trkpt><trkpt lat="43.37655981902953" lon="11.98210274200397"><ele>674.0000000000001</ele><time>2026-04-11T09:37:11Z</time></trkpt><trkpt lat="43.376506567175916" lon="11.982055735216289"><ele>674.0</ele><time>2026-04-11T09:37:13Z</time></trkpt><trkpt lat="43.37640815275263" lon="11.981993216405929"><ele>674.8333333333333</ele><time>2026-04-11T09:37:16Z</time></trkpt><trkpt lat="43.376330390449844" lon="11.9819594517974"><ele>675.6666666666666</ele><time>2026-04-11T09:37:19Z</time></trkpt><trkpt lat="43.37624934685064" lon="11.98192084342897"><ele>676.5</ele><time>2026-04-11T09:37:22Z</time></trkpt><trkpt lat="43.3761824997342" lon="11.981871689058892"><ele>677.3333333333334</ele><time>2026-04-11T09:37:25Z</time></trkpt><trkpt lat="43.376119305203225" lon="11.981797128072886"><ele>678.1666666666667</ele><time>2026-04-11T09:37:28Z</time></trkpt><trkpt lat="43.37607165229773" lon="11.981703535329634"><ele>679.0</ele><time>2026-04-11T09:37:31Z</time></trkpt><trkpt lat="43.37605155622552" lon="11.98158318140898"><ele>679.0</ele><time>2026-04-11T09:37:34Z</time></trkpt><trkpt lat="43.37604424205427" lon="11.981460284314608"><ele>679.0</ele><time>2026-04-11T09:37:37Z</time></trkpt><trkpt lat="43.37605128997721" lon="11.981369654056465"><ele>679.0</ele><time>2026-04-11T09:37:39Z</time></trkpt><trkpt lat="43.37609594997747" lon="11.98127524441502"><ele>679.0</ele><time>2026-04-11T09:37:43Z</time></trkpt><trkpt lat="43.376148224465815" lon="11.981179204564285"><ele>679.0</ele><time>2026-04-11T09:37:46Z</time></trkpt><trkpt lat="43.37621097718347" lon="11.981105180555534"><ele>679.0</ele><time>2026-04-11T09:37:49Z</time></trkpt><trkpt lat="43.376268175063885" lon="11.981051841741326"><ele>682.0</ele><time>2026-04-11T09:37:51Z</time></trkpt><trkpt lat="43.376354764346765" lon="11.98097539026957"><ele>685.0</ele><time>2026-04-11T09:37:53Z</time></trkpt><trkpt lat="43.376419454225974" lon="11.980927675298332"><ele>688.0</ele><time>2026-04-11T09:37:56Z</time></trkpt><trkpt lat="43.37646903910412" lon="11.980826302812941"><ele>691.0</ele><time>2026-04-11T09:37:59Z</time></trkpt><trkpt lat="43.3765135767592" lon="11.98075359613375"><ele>694.0</ele><time>2026-04-11T09:38:02Z</time></trkpt><trkpt lat="43.376561055410264" lon="11.980664763737513"><ele>697.0</ele><time>2026-04-11T09:38:05Z</time></trkpt><trkpt lat="43.37659074974215" lon="11.980586708064044"><ele>697.0</ele><time>2026-04-11T09:38:07Z</time></trkpt><trkpt lat="43.37663371543339" lon="11.980496410579512"><ele>697.0</ele><time>2026-04-11T09:38:10Z</time></trkpt><trkpt lat="43.37666526071887" lon="11.98039573500428"><ele>697.0</ele><time>2026-04-11T09:38:13Z</time></trkpt><trkpt lat="43.37666039175681" lon="11.980280808032587"><ele>697.0</ele><time>2026-04-11T09:38:16Z</time></trkpt><trkpt lat="43.376630716185524" lon="11.98017544978969"><ele>697.0</ele><time>2026-04-11T09:38:19Z</time></trkpt><trkpt lat="43.37660539117459" lon="11.980090633535186"><ele>697.0</ele><time>2026-04-11T09:38:22Z</time></trkpt><trkpt lat="43.37654260390779" lon="11.980114690264188"><ele>697.0</ele><time>2026-04-11T09:38:54Z</time></trkpt><trkpt lat="43.376434265979576" lon="11.980153257359527"><ele>697.0</ele><time>2026-04-11T09:38:56Z</time></trkpt><trkpt lat="43.37635003404337" lon="11.980206640076876"><ele>697.0</ele><time>2026-04-11T09:38:58Z</time></trkpt><trkpt lat="43.376268989359204" lon="11.980312169344604"><ele>697.0</ele><time>2026-04-11T09:39:00Z</time></trkpt><trkpt lat="43.37621303244175" lon="11.980365325623497"><ele>697.0</ele><time>2026-04-11T09:39:01Z</time></trkpt><trkpt lat="43.376158130866536" lon="11.980417394702346"><ele>693.0</ele><time>2026-04-11T09:39:02Z</time></trkpt><trkpt lat="43.376095153022185" lon="11.980470972719559"><ele>689.0</ele><time>2026-04-11T09:39:03Z</time></trkpt><trkpt lat="43.37601588602709" lon="11.98053388295402"><ele>685.0</ele><time>2026-04-11T09:39:04.999Z</time></trkpt><trkpt lat="43.37592372291925" lon="11.980598849965144"><ele>681.0</ele><time>2026-04-11T09:39:06.999Z</time></trkpt><trkpt lat="43.375829200825805" lon="11.9806511639849"><ele>677.0</ele><time>2026-04-11T09:39:08.999Z</time></trkpt><trkpt lat="43.37575238851223" lon="11.980706665864222"><ele>677.0</ele><time>2026-04-11T09:39:10.999Z</time></trkpt><trkpt lat="43.37568044394053" lon="11.98076761095673"><ele>677.0</ele><time>2026-04-11T09:39:13Z</time></trkpt><trkpt lat="43.37560629581095" lon="11.98078275504546"><ele>677.0</ele><time>2026-04-11T09:39:15Z</time></trkpt><trkpt lat="43.375533720515755" lon="11.980796542939837"><ele>677.0</ele><time>2026-04-11T09:39:17Z</time></trkpt><trkpt lat="43.37546776321366" lon="11.98080479002583"><ele>677.0</ele><time>2026-04-11T09:39:19Z</time></trkpt><trkpt lat="43.37538573564192" lon="11.980825456983677"><ele>677.0</ele><time>2026-04-11T09:39:22Z</time></trkpt><trkpt lat="43.37529331361278" lon="11.980840055772632"><ele>673.1666666666666</ele><time>2026-04-11T09:39:25Z</time></trkpt><trkpt lat="43.375202264054764" lon="11.980862169019774"><ele>669.3333333333333</ele><time>2026-04-11T09:39:28Z</time></trkpt><trkpt lat="43.375111545155946" lon="11.980869012257498"><ele>665.5</ele><time>2026-04-11T09:39:31Z</time></trkpt><trkpt lat="43.37504223783406" lon="11.980947021816375"><ele>661.6666666666666</ele><time>2026-04-11T09:39:34Z</time></trkpt><trkpt lat="43.37499363568702" lon="11.981003319233146"><ele>657.8333333333334</ele><time>2026-04-11T09:39:36Z</time></trkpt><trkpt lat="43.374923817451126" lon="11.981057796303478"><ele>654.0</ele><time>2026-04-11T09:39:39Z</time></trkpt><trkpt lat="43.374854160023474" lon="11.981086611702985"><ele>654.0</ele><time>2026-04-11T09:39:42Z</time></trkpt><trkpt lat="43.3747649469419" lon="11.981110401119556"><ele>654.0</ele><time>2026-04-11T09:39:45Z</time></trkpt><trkpt lat="43.37466330296639" lon="11.98105150625982"><ele>654.0</ele><time>2026-04-11T09:39:48Z</time></trkpt><trkpt lat="43.37458068605492" lon="11.981079134456"><ele>654.0</ele><time>2026-04-11T09:39:50Z</time></trkpt><trkpt lat="43.37449678050403" lon="11.98108253256131"><ele>654.0</ele><time>2026-04-11T09:39:52Z</time></trkpt><trkpt lat="43.37441533563643" lon="11.981104292781149"><ele>652.0</ele><time>2026-04-11T09:39:54Z</time></trkpt><trkpt lat="43.37432997634163" lon="11.981092266637337"><ele>650.0</ele><time>2026-04-11T09:39:56Z</time></trkpt><trkpt lat="43.37423791201785" lon="11.981107657132052"><ele>648.0</ele><time>2026-04-11T09:39:58Z</time></trkpt><trkpt lat="43.374159951424346" lon="11.981131466664088"><ele>646.0</ele><time>2026-04-11T09:40:00Z</time></trkpt><trkpt lat="43.37410035200752" lon="11.981193215603492"><ele>644.0</ele><time>2026-04-11T09:40:02Z</time></trkpt><trkpt lat="43.3740286700897" lon="11.981263655842142"><ele>642.0</ele><time>2026-04-11T09:40:04Z</time></trkpt><trkpt lat="43.37394932873323" lon="11.98132322436222"><ele>642.0</ele><time>2026-04-11T09:40:06Z</time></trkpt><trkpt lat="43.373860144917614" lon="11.981362887635182"><ele>642.0</ele><time>2026-04-11T09:40:08Z</time></trkpt><trkpt lat="43.3737665050919" lon="11.981365352631487"><ele>642.0</ele><time>2026-04-11T09:40:10Z</time></trkpt><trkpt lat="43.37367842161977" lon="11.981352637359537"><ele>642.0</ele><time>2026-04-11T09:40:12Z</time></trkpt><trkpt lat="43.373607074319516" lon="11.981384297452026"><ele>642.0</ele><time>2026-04-11T09:40:14Z</time></trkpt><trkpt lat="43.37355371963448" lon="11.981471828032006"><ele>642.0</ele><time>2026-04-11T09:40:17Z</time></trkpt><trkpt lat="43.373503541235806" lon="11.981527197238508"><ele>640.5</ele><time>2026-04-11T09:40:19Z</time></trkpt><trkpt lat="43.37344996975939" lon="11.981587040937953"><ele>639.0</ele><time>2026-04-11T09:40:20Z</time></trkpt><trkpt lat="43.37337260878321" lon="11.981598948770598"><ele>637.5</ele><time>2026-04-11T09:40:22Z</time></trkpt><trkpt lat="43.37329169640712" lon="11.981609950349167"><ele>636.0</ele><time>2026-04-11T09:40:24Z</time></trkpt><trkpt lat="43.373209305502826" lon="11.981626935190844"><ele>634.5</ele><time>2026-04-11T09:40:26Z</time></trkpt><trkpt lat="43.373140975383826" lon="11.981641851709071"><ele>633.0</ele><time>2026-04-11T09:40:28Z</time></trkpt><trkpt lat="43.373064546872314" lon="11.98169062634296"><ele>631.3333333333334</ele><time>2026-04-11T09:40:31Z</time></trkpt><trkpt lat="43.37297883619655" lon="11.981733388323613"><ele>629.6666666666666</ele><time>2026-04-11T09:40:34Z</time></trkpt><trkpt lat="43.37291342775459" lon="11.981787205220298"><ele>628.0</ele><time>2026-04-11T09:40:36Z</time></trkpt><trkpt lat="43.37285981217945" lon="11.981859330892515"><ele>626.3333333333333</ele><time>2026-04-11T09:40:38Z</time></trkpt><trkpt lat="43.37281738612372" lon="11.981944971548241"><ele>624.6666666666666</ele><time>2026-04-11T09:40:40Z</time></trkpt><trkpt lat="43.372740811418204" lon="11.982041597731696"><ele>623.0</ele><time>2026-04-11T09:40:43Z</time></trkpt><trkpt lat="43.37271758036882" lon="11.982154129456273"><ele>623.0</ele><time>2026-04-11T09:40:45Z</time></trkpt><trkpt lat="43.37265367519314" lon="11.982219480072905"><ele>623.0</ele><time>2026-04-11T09:40:47Z</time></trkpt><trkpt lat="43.3725926187073" lon="11.982250754597654"><ele>623.0</ele><time>2026-04-11T09:40:49Z</time></trkpt><trkpt lat="43.37251907354047" lon="11.982255274115118"><ele>623.0</ele><time>2026-04-11T09:40:51Z</time></trkpt><trkpt lat="43.37246258087169" lon="11.982297661735895"><ele>623.0</ele><time>2026-04-11T09:40:53Z</time></trkpt><trkpt lat="43.372322177602854" lon="11.982392457004687"><ele>623.0</ele><time>2026-04-11T09:40:55Z</time></trkpt><trkpt lat="43.372269898392005" lon="11.982477251055835"><ele>621.1666666666666</ele><time>2026-04-11T09:40:57Z</time></trkpt><trkpt lat="43.37221013549477" lon="11.982542684723803"><ele>619.3333333333333</ele><time>2026-04-11T09:40:59Z</time></trkpt><trkpt lat="43.372143481659506" lon="11.982571479132297"><ele>617.5</ele><time>2026-04-11T09:41:01Z</time></trkpt><trkpt lat="43.37205385479072" lon="11.982530247948262"><ele>615.6666666666666</ele><time>2026-04-11T09:41:04Z</time></trkpt><trkpt lat="43.371989274497345" lon="11.98250822409626"><ele>613.8333333333334</ele><time>2026-04-11T09:41:06Z</time></trkpt><trkpt lat="43.37191223729057" lon="11.98249477231202"><ele>612.0</ele><time>2026-04-11T09:41:08Z</time></trkpt><trkpt lat="43.3718252577565" lon="11.982482336812026"><ele>611.7142857142857</ele><time>2026-04-11T09:41:10Z</time></trkpt><trkpt lat="43.37176132598154" lon="11.982476050369604"><ele>611.4285714285714</ele><time>2026-04-11T09:41:12Z</time></trkpt><trkpt lat="43.371683337842065" lon="11.982440578489912"><ele>611.1428571428571</ele><time>2026-04-11T09:41:15Z</time></trkpt><trkpt lat="43.371664199964776" lon="11.98235416292701"><ele>610.8571428571429</ele><time>2026-04-11T09:41:17Z</time></trkpt><trkpt lat="43.37161445461374" lon="11.982272292311336"><ele>610.5714285714286</ele><time>2026-04-11T09:41:19Z</time></trkpt><trkpt lat="43.37157547457619" lon="11.982155064188841"><ele>610.2857142857143</ele><time>2026-04-11T09:41:22Z</time></trkpt><trkpt lat="43.371533358555524" lon="11.982085866384182"><ele>610.0</ele><time>2026-04-11T09:41:24Z</time></trkpt><trkpt lat="43.37147303084678" lon="11.982000054279954"><ele>610.0</ele><time>2026-04-11T09:41:27Z</time></trkpt><trkpt lat="43.37139935247549" lon="11.981996583530721"><ele>610.0</ele><time>2026-04-11T09:41:30Z</time></trkpt><trkpt lat="43.3713319589936" lon="11.981994273541497"><ele>610.0</ele><time>2026-04-11T09:41:32Z</time></trkpt><trkpt lat="43.371249780059316" lon="11.981988311850088"><ele>610.0</ele><time>2026-04-11T09:41:34Z</time></trkpt><trkpt lat="43.37116760098562" lon="11.981976567145328"><ele>610.0</ele><time>2026-04-11T09:41:37Z</time></trkpt><trkpt lat="43.37110503988019" lon="11.981947846249783"><ele>610.0</ele><time>2026-04-11T09:41:39Z</time></trkpt><trkpt lat="43.371024566726085" lon="11.98195610578462"><ele>606.3333333333334</ele><time>2026-04-11T09:41:42Z</time></trkpt><trkpt lat="43.37099014854328" lon="11.982032670172728"><ele>602.6666666666667</ele><time>2026-04-11T09:41:44Z</time></trkpt><trkpt lat="43.37093907113755" lon="11.98210165225616"><ele>599.0</ele><time>2026-04-11T09:41:46Z</time></trkpt><trkpt lat="43.37088263822803" lon="11.982165674835466"><ele>595.3333333333334</ele><time>2026-04-11T09:41:48Z</time></trkpt><trkpt lat="43.37081634752842" lon="11.982251840775707"><ele>591.6666666666666</ele><time>2026-04-11T09:41:51Z</time></trkpt><trkpt lat="43.370756285668506" lon="11.982341473826908"><ele>588.0</ele><time>2026-04-11T09:41:54Z</time></trkpt><trkpt lat="43.370669004164306" lon="11.982349721778808"><ele>588.0</ele><time>2026-04-11T09:41:57Z</time></trkpt><trkpt lat="43.370579175747594" lon="11.982371423072092"><ele>588.0</ele><time>2026-04-11T09:42:00Z</time></trkpt><trkpt lat="43.370493193478836" lon="11.982356018053657"><ele>588.0</ele><time>2026-04-11T09:42:03Z</time></trkpt><trkpt lat="43.37042732141024" lon="11.982336742156246"><ele>588.0</ele><time>2026-04-11T09:42:05Z</time></trkpt><trkpt lat="43.370335374970985" lon="11.982318542519794"><ele>588.0</ele><time>2026-04-11T09:42:08Z</time></trkpt><trkpt lat="43.37027171325729" lon="11.982314256613513"><ele>588.0</ele><time>2026-04-11T09:42:10Z</time></trkpt><trkpt lat="43.37019013109424" lon="11.982348843504232"><ele>584.0</ele><time>2026-04-11T09:42:13Z</time></trkpt><trkpt lat="43.37010776057126" lon="11.982342157469207"><ele>580.0</ele><time>2026-04-11T09:42:16Z</time></trkpt><trkpt lat="43.370053273999524" lon="11.982291794844967"><ele>576.0</ele><time>2026-04-11T09:42:18Z</time></trkpt><trkpt lat="43.3699753089942" lon="11.982299049916701"><ele>572.0</ele><time>2026-04-11T09:42:21Z</time></trkpt><trkpt lat="43.36990821729115" lon="11.982346314691377"><ele>568.0</ele><time>2026-04-11T09:42:24Z</time></trkpt><trkpt lat="43.36983938127327" lon="11.982294340387599"><ele>564.0</ele><time>2026-04-11T09:42:27Z</time></trkpt><trkpt lat="43.369773078129285" lon="11.982240769080269"><ele>564.0</ele><time>2026-04-11T09:42:30Z</time></trkpt><trkpt lat="43.36969624023654" lon="11.982219834747296"><ele>564.0</ele><time>2026-04-11T09:42:32.999Z</time></trkpt><trkpt lat="43.3696135454619" lon="11.98223606941227"><ele>564.0</ele><time>2026-04-11T09:42:35.999Z</time></trkpt><trkpt lat="43.36952176457135" lon="11.982283774670002"><ele>564.0</ele><time>2026-04-11T09:42:38.999Z</time></trkpt><trkpt lat="43.36946188626655" lon="11.982340172508703"><ele>564.0</ele><time>2026-04-11T09:42:40.999Z</time></trkpt><trkpt lat="43.36941423820459" lon="11.982404327785668"><ele>564.0</ele><time>2026-04-11T09:42:42.999Z</time></trkpt><trkpt lat="43.369352427656" lon="11.982498768395875"><ele>559.5</ele><time>2026-04-11T09:42:45.999Z</time></trkpt><trkpt lat="43.36927769224613" lon="11.982553599112798"><ele>555.0</ele><time>2026-04-11T09:42:48.999Z</time></trkpt><trkpt lat="43.369192795656105" lon="11.982566841328662"><ele>550.5</ele><time>2026-04-11T09:42:51.999Z</time></trkpt><trkpt lat="43.369102364109864" lon="11.982573361752497"><ele>546.0</ele><time>2026-04-11T09:42:54.999Z</time></trkpt><trkpt lat="43.369018908311006" lon="11.982591835918283"><ele>541.5</ele><time>2026-04-11T09:42:56.999Z</time></trkpt><trkpt lat="43.368935770467104" lon="11.982608899005935"><ele>537.0</ele><time>2026-04-11T09:42:58.999Z</time></trkpt><trkpt lat="43.368847054637314" lon="11.982619153613946"><ele>536.3333333333334</ele><time>2026-04-11T09:43:00.999Z</time></trkpt><trkpt lat="43.36876272951011" lon="11.98261393057448"><ele>535.6666666666666</ele><time>2026-04-11T09:43:02.999Z</time></trkpt><trkpt lat="43.368679374471114" lon="11.982631422433899"><ele>535.0</ele><time>2026-04-11T09:43:04.999Z</time></trkpt><trkpt lat="43.36859917810207" lon="11.982602567846895"><ele>534.3333333333333</ele><time>2026-04-11T09:43:06.999Z</time></trkpt><trkpt lat="43.36853802925931" lon="11.982537741976275"><ele>533.6666666666666</ele><time>2026-04-11T09:43:08.999Z</time></trkpt><trkpt lat="43.368473350089545" lon="11.982461349511551"><ele>533.0</ele><time>2026-04-11T09:43:10.999Z</time></trkpt><trkpt lat="43.36841468532711" lon="11.982403928408855"><ele>533.0</ele><time>2026-04-11T09:43:12.999Z</time></trkpt><trkpt lat="43.3683363288333" lon="11.98231850960856"><ele>533.0</ele><time>2026-04-11T09:43:15.999Z</time></trkpt><trkpt lat="43.36827734114066" lon="11.98223906467461"><ele>533.0</ele><time>2026-04-11T09:43:17.999Z</time></trkpt><trkpt lat="43.36824217419214" lon="11.982151576306482"><ele>533.0</ele><time>2026-04-11T09:43:19.999Z</time></trkpt><trkpt lat="43.36822075090958" lon="11.982017522546755"><ele>533.0</ele><time>2026-04-11T09:43:23Z</time></trkpt><trkpt lat="43.36819091359788" lon="11.981898140030188"><ele>533.0</ele><time>2026-04-11T09:43:26Z</time></trkpt><trkpt lat="43.36816480835131" lon="11.981811376826622"><ele>533.0</ele><time>2026-04-11T09:43:28Z</time></trkpt><trkpt lat="43.36812390581514" lon="11.981700614339367"><ele>533.0</ele><time>2026-04-11T09:43:31Z</time></trkpt><trkpt lat="43.36808257334146" lon="11.98160346995133"><ele>533.0</ele><time>2026-04-11T09:43:34Z</time></trkpt><trkpt lat="43.36803024300399" lon="11.981543428877586"><ele>533.0</ele><time>2026-04-11T09:43:36Z</time></trkpt><trkpt lat="43.36797388899527" lon="11.981486503112965"><ele>533.0</ele><time>2026-04-11T09:43:39Z</time></trkpt><trkpt lat="43.36791033939125" lon="11.981422054455177"><ele>533.0</ele><time>2026-04-11T09:43:41Z</time></trkpt><trkpt lat="43.36783824030364" lon="11.981362490751202"><ele>530.5</ele><time>2026-04-11T09:43:44Z</time></trkpt><trkpt lat="43.36777090963127" lon="11.981289288464387"><ele>528.0</ele><time>2026-04-11T09:43:47Z</time></trkpt><trkpt lat="43.36774732748248" lon="11.981204676743499"><ele>525.5</ele><time>2026-04-11T09:43:49Z</time></trkpt><trkpt lat="43.36774483165037" lon="11.981100984894422"><ele>523.0</ele><time>2026-04-11T09:43:52Z</time></trkpt><trkpt lat="43.36778746559687" lon="11.981026437769888"><ele>520.5</ele><time>2026-04-11T09:43:55Z</time></trkpt><trkpt lat="43.36783634518945" lon="11.980896665640707"><ele>518.0</ele><time>2026-04-11T09:43:57.999Z</time></trkpt><trkpt lat="43.367866918139626" lon="11.980820572757365"><ele>514.8333333333333</ele><time>2026-04-11T09:43:59.999Z</time></trkpt><trkpt lat="43.367904133797225" lon="11.980704585489038"><ele>511.66666666666663</ele><time>2026-04-11T09:44:02.999Z</time></trkpt><trkpt lat="43.36790713590962" lon="11.9805871132888"><ele>508.5</ele><time>2026-04-11T09:44:05.999Z</time></trkpt><trkpt lat="43.367838100510525" lon="11.980491845615262"><ele>505.33333333333337</ele><time>2026-04-11T09:44:08.999Z</time></trkpt><trkpt lat="43.36775455160078" lon="11.980473815880666"><ele>502.1666666666667</ele><time>2026-04-11T09:44:10.999Z</time></trkpt><trkpt lat="43.367668837359076" lon="11.980466007261818"><ele>499.0</ele><time>2026-04-11T09:44:12.999Z</time></trkpt><trkpt lat="43.36759932908764" lon="11.98044343366857"><ele>499.00000000000006</ele><time>2026-04-11T09:44:14.999Z</time></trkpt><trkpt lat="43.36751630114834" lon="11.980424298506867"><ele>499.0</ele><time>2026-04-11T09:44:16.999Z</time></trkpt><trkpt lat="43.36744101954248" lon="11.980482487447864"><ele>499.0</ele><time>2026-04-11T09:44:18.999Z</time></trkpt><trkpt lat="43.36739163525984" lon="11.980559159949667"><ele>499.0</ele><time>2026-04-11T09:44:20.999Z</time></trkpt><trkpt lat="43.36731969298956" lon="11.980573149516834"><ele>499.00000000000006</ele><time>2026-04-11T09:44:34.999Z</time></trkpt><trkpt lat="43.367252020756645" lon="11.980565127419911"><ele>499.0</ele><time>2026-04-11T09:44:36.999Z</time></trkpt><trkpt lat="43.36717617213709" lon="11.980494643970127"><ele>497.83333333333337</ele><time>2026-04-11T09:44:38.999Z</time></trkpt><trkpt lat="43.367104917987014" lon="11.980466724357283"><ele>496.6666666666667</ele><time>2026-04-11T09:44:40.999Z</time></trkpt><trkpt lat="43.367017089073954" lon="11.98044794893433"><ele>495.5</ele><time>2026-04-11T09:44:42.999Z</time></trkpt><trkpt lat="43.36695780552893" lon="11.980413420724307"><ele>494.33333333333337</ele><time>2026-04-11T09:44:44.999Z</time></trkpt><trkpt lat="43.36688422235452" lon="11.980411173597743"><ele>493.1666666666667</ele><time>2026-04-11T09:44:46.999Z</time></trkpt><trkpt lat="43.36681375592266" lon="11.980356624212842"><ele>492.0</ele><time>2026-04-11T09:44:48.999Z</time></trkpt><trkpt lat="43.36673630140242" lon="11.980325873381574"><ele>492.0</ele><time>2026-04-11T09:44:50.999Z</time></trkpt><trkpt lat="43.36667293974928" lon="11.980278856641538"><ele>492.0</ele><time>2026-04-11T09:44:52.999Z</time></trkpt><trkpt lat="43.366618632457524" lon="11.980204983825141"><ele>492.0</ele><time>2026-04-11T09:44:54.999Z</time></trkpt><trkpt lat="43.36656568997706" lon="11.98011582161064"><ele>492.0</ele><time>2026-04-11T09:44:56.999Z</time></trkpt><trkpt lat="43.36649219270239" lon="11.980083348743632"><ele>492.0</ele><time>2026-04-11T09:44:58.999Z</time></trkpt><trkpt lat="43.366392245003425" lon="11.980058282159197"><ele>492.0</ele><time>2026-04-11T09:45:00.999Z</time></trkpt><trkpt lat="43.36632109526344" lon="11.979964805219534"><ele>486.0</ele><time>2026-04-11T09:45:02.999Z</time></trkpt><trkpt lat="43.3662868515018" lon="11.979851229801428"><ele>480.00000000000006</ele><time>2026-04-11T09:45:05.999Z</time></trkpt><trkpt lat="43.36617665489623" lon="11.979723680127538"><ele>474.00000000000006</ele><time>2026-04-11T09:45:09.999Z</time></trkpt><trkpt lat="43.366089476623905" lon="11.979740065558676"><ele>468.0</ele><time>2026-04-11T09:45:12.999Z</time></trkpt><trkpt lat="43.36602615594619" lon="11.979650173111972"><ele>462.0</ele><time>2026-04-11T09:45:14.999Z</time></trkpt><trkpt lat="43.36595067903517" lon="11.979573288669595"><ele>462.0</ele><time>2026-04-11T09:45:16.999Z</time></trkpt><trkpt lat="43.36592099358956" lon="11.979466067675656"><ele>462.0</ele><time>2026-04-11T09:45:18.999Z</time></trkpt><trkpt lat="43.36586024479189" lon="11.979351053853684"><ele>462.0</ele><time>2026-04-11T09:45:20.999Z</time></trkpt><trkpt lat="43.365805028045564" lon="11.979253853802089"><ele>462.0</ele><time>2026-04-11T09:45:22.999Z</time></trkpt><trkpt lat="43.365747830333255" lon="11.979169641549351"><ele>462.0</ele><time>2026-04-11T09:45:24.999Z</time></trkpt><trkpt lat="43.36571157657931" lon="11.97907063671942"><ele>462.0</ele><time>2026-04-11T09:45:26.999Z</time></trkpt><trkpt lat="43.365649584020005" lon="11.978972718142614"><ele>460.0</ele><time>2026-04-11T09:45:29Z</time></trkpt><trkpt lat="43.365590962335396" lon="11.978872033055485"><ele>458.0</ele><time>2026-04-11T09:45:31Z</time></trkpt><trkpt lat="43.36554323585323" lon="11.978748053041524"><ele>456.0</ele><time>2026-04-11T09:45:33Z</time></trkpt><trkpt lat="43.36551631940529" lon="11.978638968715432"><ele>454.0</ele><time>2026-04-11T09:45:35Z</time></trkpt><trkpt lat="43.36547201702895" lon="11.978545385082345"><ele>452.0</ele><time>2026-04-11T09:45:37Z</time></trkpt><trkpt lat="43.365437977742125" lon="11.97844204643709"><ele>450.0</ele><time>2026-04-11T09:45:40Z</time></trkpt><trkpt lat="43.36540844947769" lon="11.9783292821367"><ele>446.5</ele><time>2026-04-11T09:45:43Z</time></trkpt><trkpt lat="43.365360959391886" lon="11.978233222545827"><ele>443.0</ele><time>2026-04-11T09:45:46Z</time></trkpt><trkpt lat="43.365296780401366" lon="11.978127578246209"><ele>439.5</ele><time>2026-04-11T09:45:48Z</time></trkpt><trkpt lat="43.365258784871635" lon="11.978058107497214"><ele>436.0</ele><time>2026-04-11T09:45:50Z</time></trkpt><trkpt lat="43.3651711515519" lon="11.978028101676443"><ele>432.5</ele><time>2026-04-11T09:45:53Z</time></trkpt><trkpt lat="43.365098205922216" lon="11.978123957612688"><ele>429.0</ele><time>2026-04-11T09:45:56Z</time></trkpt><trkpt lat="43.36504859437063" lon="11.978197236411914"><ele>429.0</ele><time>2026-04-11T09:45:59Z</time></trkpt><trkpt lat="43.365008423129524" lon="11.97829058599068"><ele>429.0</ele><time>2026-04-11T09:46:01Z</time></trkpt><trkpt lat="43.36499591206304" lon="11.978402045281308"><ele>429.0</ele><time>2026-04-11T09:46:03Z</time></trkpt><trkpt lat="43.364978722335636" lon="11.97854842142198"><ele>429.0</ele><time>2026-04-11T09:46:05Z</time></trkpt><trkpt lat="43.3649739206298" lon="11.978672806919093"><ele>429.0</ele><time>2026-04-11T09:46:07Z</time></trkpt><trkpt lat="43.364975637668394" lon="11.978800794978522"><ele>430.0</ele><time>2026-04-11T09:46:09Z</time></trkpt><trkpt lat="43.36496639183076" lon="11.978927240283626"><ele>431.0</ele><time>2026-04-11T09:46:11Z</time></trkpt><trkpt lat="43.36493975653374" lon="11.979043733135631"><ele>432.0</ele><time>2026-04-11T09:46:13Z</time></trkpt><trkpt lat="43.36492131021525" lon="11.97916520563099"><ele>433.0</ele><time>2026-04-11T09:46:15Z</time></trkpt><trkpt lat="43.36489431615981" lon="11.979246991437899"><ele>434.0</ele><time>2026-04-11T09:46:17Z</time></trkpt><trkpt lat="43.36483252548781" lon="11.979330968232661"><ele>435.0</ele><time>2026-04-11T09:46:19Z</time></trkpt><trkpt lat="43.364763450366645" lon="11.979353577642208"><ele>435.5</ele><time>2026-04-11T09:46:21Z</time></trkpt><trkpt lat="43.36468743276648" lon="11.979358813074308"><ele>436.0</ele><time>2026-04-11T09:46:23Z</time></trkpt><trkpt lat="43.3646053858745" lon="11.979323331161721"><ele>436.5</ele><time>2026-04-11T09:46:25Z</time></trkpt><trkpt lat="43.36453638295448" lon="11.979291241917911"><ele>437.0</ele><time>2026-04-11T09:46:26.999Z</time></trkpt><trkpt lat="43.364462960462404" lon="11.979217470143476"><ele>437.5</ele><time>2026-04-11T09:46:28.999Z</time></trkpt><trkpt lat="43.3644041826989" lon="11.979153749457854"><ele>438.0</ele><time>2026-04-11T09:46:30.999Z</time></trkpt><trkpt lat="43.364359448857186" lon="11.97905376269745"><ele>436.0</ele><time>2026-04-11T09:46:32.999Z</time></trkpt><trkpt lat="43.364311251101924" lon="11.978949563169042"><ele>434.0</ele><time>2026-04-11T09:46:34.999Z</time></trkpt><trkpt lat="43.364256539905305" lon="11.978888677536444"><ele>432.0</ele><time>2026-04-11T09:46:36.999Z</time></trkpt><trkpt lat="43.3641960901906" lon="11.978822396639499"><ele>430.0</ele><time>2026-04-11T09:46:38.999Z</time></trkpt><trkpt lat="43.36415454563338" lon="11.978745856091294"><ele>428.0</ele><time>2026-04-11T09:46:40.999Z</time></trkpt><trkpt lat="43.36412981961286" lon="11.978660935491824"><ele>426.0</ele><time>2026-04-11T09:46:42.999Z</time></trkpt><trkpt lat="43.36414952005025" lon="11.978570517668116"><ele>424.0</ele><time>2026-04-11T09:46:44.999Z</time></trkpt><trkpt lat="43.364221997944604" lon="11.978494277554542"><ele>424.00000000000006</ele><time>2026-04-11T09:46:46.999Z</time></trkpt><trkpt lat="43.36428591716153" lon="11.978419529022732"><ele>424.0</ele><time>2026-04-11T09:46:48.999Z</time></trkpt><trkpt lat="43.364309053569215" lon="11.978318580544006"><ele>424.0</ele><time>2026-04-11T09:46:51.999Z</time></trkpt><trkpt lat="43.364304439541705" lon="11.978210917493852"><ele>424.0</ele><time>2026-04-11T09:46:53.999Z</time></trkpt><trkpt lat="43.36430570044157" lon="11.978081812129219"><ele>424.00000000000006</ele><time>2026-04-11T09:46:55.999Z</time></trkpt><trkpt lat="43.364285510352914" lon="11.977968671099033"><ele>424.0</ele><time>2026-04-11T09:46:57.999Z</time></trkpt><trkpt lat="43.364250325467864" lon="11.977850136399805"><ele>420.83333333333337</ele><time>2026-04-11T09:46:59.999Z</time></trkpt><trkpt lat="43.36418417667761" lon="11.977771562513668"><ele>417.6666666666667</ele><time>2026-04-11T09:47:01.999Z</time></trkpt><trkpt lat="43.36410135879452" lon="11.977684000721608"><ele>414.5</ele><time>2026-04-11T09:47:03.999Z</time></trkpt><trkpt lat="43.36404372419968" lon="11.97761009492403"><ele>411.33333333333337</ele><time>2026-04-11T09:47:05.999Z</time></trkpt><trkpt lat="43.363971349547874" lon="11.97755552471569"><ele>408.1666666666667</ele><time>2026-04-11T09:47:07.999Z</time></trkpt><trkpt lat="43.36389601129736" lon="11.97750962356723"><ele>405.0</ele><time>2026-04-11T09:47:09.999Z</time></trkpt><trkpt lat="43.363819466807044" lon="11.977452313155885"><ele>399.6</ele><time>2026-04-11T09:47:11.999Z</time></trkpt><trkpt lat="43.36375351211804" lon="11.977368028134576"><ele>394.2</ele><time>2026-04-11T09:47:13.999Z</time></trkpt><trkpt lat="43.36369418441044" lon="11.977279695284054"><ele>388.79999999999995</ele><time>2026-04-11T09:47:15.999Z</time></trkpt><trkpt lat="43.36362521335521" lon="11.977212745122117"><ele>383.4</ele><time>2026-04-11T09:47:17.999Z</time></trkpt><trkpt lat="43.36352764779828" lon="11.977146064380971"><ele>378.0</ele><time>2026-04-11T09:47:19.999Z</time></trkpt><trkpt lat="43.363434100446014" lon="11.977123350529077"><ele>378.0</ele><time>2026-04-11T09:47:21.999Z</time></trkpt><trkpt lat="43.36335477749125" lon="11.977129488293869"><ele>378.0</ele><time>2026-04-11T09:47:23.999Z</time></trkpt><trkpt lat="43.363262653169855" lon="11.977059972930068"><ele>378.0</ele><time>2026-04-11T09:47:26.999Z</time></trkpt><trkpt lat="43.36318736057383" lon="11.976995426605855"><ele>378.0</ele><time>2026-04-11T09:47:28.999Z</time></trkpt><trkpt lat="43.36308764147261" lon="11.977017964730877"><ele>378.0</ele><time>2026-04-11T09:47:30.999Z</time></trkpt><trkpt lat="43.36298948777736" lon="11.977042092178307"><ele>375.1666666666667</ele><time>2026-04-11T09:47:32.999Z</time></trkpt><trkpt lat="43.362906108871" lon="11.977012835836028"><ele>372.3333333333333</ele><time>2026-04-11T09:47:35Z</time></trkpt><trkpt lat="43.36281193071038" lon="11.976927069298332"><ele>369.5</ele><time>2026-04-11T09:47:37Z</time></trkpt><trkpt lat="43.362732266545194" lon="11.976875629774314"><ele>366.66666666666663</ele><time>2026-04-11T09:47:39Z</time></trkpt><trkpt lat="43.36263961994175" lon="11.976865392985998"><ele>363.8333333333333</ele><time>2026-04-11T09:47:41Z</time></trkpt><trkpt lat="43.362577275526085" lon="11.976837060961222"><ele>361.0</ele><time>2026-04-11T09:47:43Z</time></trkpt><trkpt lat="43.3624419533187" lon="11.976822210868782"><ele>361.0</ele><time>2026-04-11T09:47:45Z</time></trkpt><trkpt lat="43.36236665726366" lon="11.976850857257821"><ele>361.0</ele><time>2026-04-11T09:47:47Z</time></trkpt><trkpt lat="43.362277623312714" lon="11.97684073812235"><ele>361.0</ele><time>2026-04-11T09:47:49Z</time></trkpt><trkpt lat="43.362199657707464" lon="11.976833657706974"><ele>361.0</ele><time>2026-04-11T09:47:51Z</time></trkpt><trkpt lat="43.362128433312755" lon="11.976819003724342"><ele>361.0</ele><time>2026-04-11T09:47:53Z</time></trkpt><trkpt lat="43.36204965624889" lon="11.976802393402235"><ele>361.0</ele><time>2026-04-11T09:47:55Z</time></trkpt><trkpt lat="43.361959103439936" lon="11.976822258414058"><ele>357.66666666666663</ele><time>2026-04-11T09:47:57Z</time></trkpt><trkpt lat="43.36187792469971" lon="11.9768534349997"><ele>354.3333333333333</ele><time>2026-04-11T09:47:59Z</time></trkpt><trkpt lat="43.361808288468325" lon="11.976880861917406"><ele>351.0</ele><time>2026-04-11T09:48:01Z</time></trkpt><trkpt lat="43.361725675229174" lon="11.976918572671764"><ele>347.6666666666667</ele><time>2026-04-11T09:48:03Z</time></trkpt><trkpt lat="43.361640143474446" lon="11.97693636167739"><ele>344.33333333333337</ele><time>2026-04-11T09:48:05Z</time></trkpt><trkpt lat="43.36154888820865" lon="11.976947930038278"><ele>341.0</ele><time>2026-04-11T09:48:07Z</time></trkpt><trkpt lat="43.36146561016352" lon="11.976995502432546"><ele>341.0</ele><time>2026-04-11T09:48:09Z</time></trkpt><trkpt lat="43.361381752460545" lon="11.97705128191634"><ele>341.0</ele><time>2026-04-11T09:48:11Z</time></trkpt><trkpt lat="43.361295373998466" lon="11.977078811046427"><ele>341.0</ele><time>2026-04-11T09:48:13Z</time></trkpt><trkpt lat="43.36120581732089" lon="11.9770969177787"><ele>341.0</ele><time>2026-04-11T09:48:15Z</time></trkpt><trkpt lat="43.361127289552016" lon="11.97710493676385"><ele>341.0</ele><time>2026-04-11T09:48:17Z</time></trkpt><trkpt lat="43.361059082866674" lon="11.977121987220034"><ele>341.0</ele><time>2026-04-11T09:48:20Z</time></trkpt><trkpt lat="43.36099374770724" lon="11.977130941118965"><ele>338.0</ele><time>2026-04-11T09:48:31Z</time></trkpt><trkpt lat="43.36090623098228" lon="11.977222845457637"><ele>335.0</ele><time>2026-04-11T09:48:33Z</time></trkpt><trkpt lat="43.36083008196169" lon="11.977303630746873"><ele>332.0</ele><time>2026-04-11T09:48:35Z</time></trkpt><trkpt lat="43.36076233967374" lon="11.977369365170057"><ele>329.0</ele><time>2026-04-11T09:48:37Z</time></trkpt><trkpt lat="43.360685719845456" lon="11.977380680005759"><ele>326.0</ele><time>2026-04-11T09:48:39Z</time></trkpt><trkpt lat="43.36060923904318" lon="11.977318524549137"><ele>323.6</ele><time>2026-04-11T09:48:41Z</time></trkpt><trkpt lat="43.36052480752324" lon="11.977278857548553"><ele>321.20000000000005</ele><time>2026-04-11T09:48:42.999Z</time></trkpt><trkpt lat="43.36044007947733" lon="11.977215856202061"><ele>318.79999999999995</ele><time>2026-04-11T09:48:44.999Z</time></trkpt><trkpt lat="43.360348010097525" lon="11.97718170449854"><ele>316.4</ele><time>2026-04-11T09:48:46.999Z</time></trkpt><trkpt lat="43.360270751871056" lon="11.977136724092494"><ele>314.0</ele><time>2026-04-11T09:48:48.999Z</time></trkpt><trkpt lat="43.36019820875148" lon="11.977071105206528"><ele>314.0</ele><time>2026-04-11T09:48:51.999Z</time></trkpt><trkpt lat="43.36012427351862" lon="11.977049728613958"><ele>314.0</ele><time>2026-04-11T09:48:53.999Z</time></trkpt><trkpt lat="43.360041577073" lon="11.977059057291285"><ele>314.0</ele><time>2026-04-11T09:48:55.999Z</time></trkpt><trkpt lat="43.35989196674485" lon="11.97707981995477"><ele>314.0</ele><time>2026-04-11T09:48:58.999Z</time></trkpt><trkpt lat="43.35979662089492" lon="11.977081322650024"><ele>314.0</ele><time>2026-04-11T09:49:00.999Z</time></trkpt><trkpt lat="43.3597004901879" lon="11.97708887236109"><ele>313.0</ele><time>2026-04-11T09:49:02.999Z</time></trkpt><trkpt lat="43.35960453246459" lon="11.97707794059064"><ele>312.0</ele><time>2026-04-11T09:49:04.999Z</time></trkpt><trkpt lat="43.35951728882492" lon="11.977009763164098"><ele>311.0</ele><time>2026-04-11T09:49:06.999Z</time></trkpt><trkpt lat="43.3594569775768" lon="11.976876112643277"><ele>310.0</ele><time>2026-04-11T09:49:08.999Z</time></trkpt><trkpt lat="43.359391419718584" lon="11.976734018856629"><ele>309.0</ele><time>2026-04-11T09:49:10.999Z</time></trkpt><trkpt lat="43.35933674605938" lon="11.976596750905747"><ele>309.0</ele><time>2026-04-11T09:49:12.999Z</time></trkpt><trkpt lat="43.35926436178101" lon="11.97650178691518"><ele>309.0</ele><time>2026-04-11T09:49:14.999Z</time></trkpt><trkpt lat="43.35915158349835" lon="11.976506034300279"><ele>309.0</ele><time>2026-04-11T09:49:16.999Z</time></trkpt><trkpt lat="43.35903728528226" lon="11.976561488691827"><ele>309.0</ele><time>2026-04-11T09:49:18.999Z</time></trkpt><trkpt lat="43.35897825129264" lon="11.976592346716917"><ele>309.0</ele><time>2026-04-11T09:49:19.999Z</time></trkpt><trkpt lat="43.358860116629465" lon="11.976643248733511"><ele>308.5714285714286</ele><time>2026-04-11T09:49:21.999Z</time></trkpt><trkpt lat="43.35879802807605" lon="11.976659087114088"><ele>308.14285714285717</ele><time>2026-04-11T09:49:22.999Z</time></trkpt><trkpt lat="43.35872977988679" lon="11.976667808388878"><ele>307.7142857142857</ele><time>2026-04-11T09:49:23.999Z</time></trkpt><trkpt lat="43.35865973824644" lon="11.976678783405324"><ele>307.28571428571433</ele><time>2026-04-11T09:49:24.999Z</time></trkpt><trkpt lat="43.35859359657665" lon="11.976688090795069"><ele>306.8571428571429</ele><time>2026-04-11T09:49:25.999Z</time></trkpt><trkpt lat="43.35852501742749" lon="11.976698259380502"><ele>306.42857142857144</ele><time>2026-04-11T09:49:26.999Z</time></trkpt><trkpt lat="43.35845250624855" lon="11.976708971318821"><ele>306.0</ele><time>2026-04-11T09:49:27.999Z</time></trkpt><trkpt lat="43.35838090465921" lon="11.976719046829981"><ele>305.57142857142856</ele><time>2026-04-11T09:49:28.999Z</time></trkpt><trkpt lat="43.358307370395934" lon="11.976729191278578"><ele>305.14285714285717</ele><time>2026-04-11T09:49:29.999Z</time></trkpt><trkpt lat="43.358231630271554" lon="11.976737896862808"><ele>304.7142857142857</ele><time>2026-04-11T09:49:30.999Z</time></trkpt><trkpt lat="43.35815721663172" lon="11.976754467246174"><ele>304.2857142857143</ele><time>2026-04-11T09:49:31.999Z</time></trkpt><trkpt lat="43.358080452038045" lon="11.976767265878705"><ele>303.85714285714283</ele><time>2026-04-11T09:49:32.999Z</time></trkpt><trkpt lat="43.35800560020168" lon="11.976780576400879"><ele>303.42857142857144</ele><time>2026-04-11T09:49:33.999Z</time></trkpt><trkpt lat="43.35793500648839" lon="11.97679350112843"><ele>303.0</ele><time>2026-04-11T09:49:34.999Z</time></trkpt><trkpt lat="43.35787056743901" lon="11.976808385780584"><ele>302.5</ele><time>2026-04-11T09:49:35.999Z</time></trkpt><trkpt lat="43.35780854798722" lon="11.976834460969757"><ele>302.0</ele><time>2026-04-11T09:49:36.999Z</time></trkpt><trkpt lat="43.35770257206727" lon="11.976879839613986"><ele>301.5</ele><time>2026-04-11T09:49:38.999Z</time></trkpt><trkpt lat="43.35762042381129" lon="11.976922379503947"><ele>301.0</ele><time>2026-04-11T09:49:41Z</time></trkpt><trkpt lat="43.35756104500596" lon="11.976965995790373"><ele>300.5</ele><time>2026-04-11T09:49:44Z</time></trkpt><trkpt lat="43.357524723846275" lon="11.977071900708127"><ele>300.0</ele><time>2026-04-11T09:49:48Z</time></trkpt><trkpt lat="43.357585844243935" lon="11.977163844647364"><ele>299.99999999999994</ele><time>2026-04-11T09:49:51Z</time></trkpt><trkpt lat="43.35763763875687" lon="11.977239498875267"><ele>300.0</ele><time>2026-04-11T09:49:54Z</time></trkpt><trkpt lat="43.35759988633441" lon="11.977142847863108"><ele>300.0</ele><time>2026-04-11T09:50:01Z</time></trkpt><trkpt lat="43.357562654984626" lon="11.977053416604424"><ele>300.0</ele><time>2026-04-11T09:50:03Z</time></trkpt><trkpt lat="43.3575304509217" lon="11.976977614332908"><ele>300.0</ele><time>2026-04-11T09:50:05Z</time></trkpt><trkpt lat="43.35747378732147" lon="11.976937012457451"><ele>299.99999999999994</ele><time>2026-04-11T09:50:08Z</time></trkpt><trkpt lat="43.35740221234247" lon="11.976911813633073"><ele>300.0</ele><time>2026-04-11T09:50:10Z</time></trkpt><trkpt lat="43.35731226134541" lon="11.976847165001946"><ele>300.0</ele><time>2026-04-11T09:50:12Z</time></trkpt><trkpt lat="43.357249474930704" lon="11.976810608058031"><ele>300.0</ele><time>2026-04-11T09:50:14Z</time></trkpt><trkpt lat="43.35716566379695" lon="11.97675632313669"><ele>300.0</ele><time>2026-04-11T09:50:16Z</time></trkpt><trkpt lat="43.3570864342747" lon="11.976705507194225"><ele>300.0</ele><time>2026-04-11T09:50:18Z</time></trkpt><trkpt lat="43.35699129836015" lon="11.976672569719643"><ele>300.0</ele><time>2026-04-11T09:50:20Z</time></trkpt><trkpt lat="43.356885667473996" lon="11.97665084911198"><ele>300.6</ele><time>2026-04-11T09:50:22Z</time></trkpt><trkpt lat="43.35677976080756" lon="11.976628004487957"><ele>301.2</ele><time>2026-04-11T09:50:24Z</time></trkpt><trkpt lat="43.35669951042671" lon="11.976574030125478"><ele>301.8</ele><time>2026-04-11T09:50:26Z</time></trkpt><trkpt lat="43.356617617786334" lon="11.976481873147216"><ele>302.4</ele><time>2026-04-11T09:50:28Z</time></trkpt><trkpt lat="43.35653274962745" lon="11.976380601927538"><ele>303.0</ele><time>2026-04-11T09:50:30Z</time></trkpt><trkpt lat="43.35644904247427" lon="11.97628699354012"><ele>303.6</ele><time>2026-04-11T09:50:32Z</time></trkpt><trkpt lat="43.35635819583321" lon="11.97625329167157"><ele>304.20000000000005</ele><time>2026-04-11T09:50:34Z</time></trkpt><trkpt lat="43.356241866427624" lon="11.97629780782054"><ele>304.8</ele><time>2026-04-11T09:50:36Z</time></trkpt><trkpt lat="43.35614803653921" lon="11.976329141117114"><ele>305.40000000000003</ele><time>2026-04-11T09:50:38Z</time></trkpt><trkpt lat="43.35605626769696" lon="11.976375284541383"><ele>306.0</ele><time>2026-04-11T09:50:40Z</time></trkpt><trkpt lat="43.35594177183356" lon="11.976399026494324"><ele>306.0</ele><time>2026-04-11T09:50:42Z</time></trkpt><trkpt lat="43.35585279313498" lon="11.97637026978803"><ele>306.0</ele><time>2026-04-11T09:50:44Z</time></trkpt><trkpt lat="43.3557429117329" lon="11.976322554383419"><ele>306.0</ele><time>2026-04-11T09:50:45.999Z</time></trkpt><trkpt lat="43.355685009908" lon="11.976279412847527"><ele>306.0</ele><time>2026-04-11T09:50:46.999Z</time></trkpt><trkpt lat="43.355582934707385" lon="11.97626709660988"><ele>306.0</ele><time>2026-04-11T09:50:48.999Z</time></trkpt><trkpt lat="43.35548146330164" lon="11.976290419085059"><ele>306.6666666666667</ele><time>2026-04-11T09:50:50.999Z</time></trkpt><trkpt lat="43.355410489684985" lon="11.976280383149009"><ele>307.3333333333333</ele><time>2026-04-11T09:50:52.999Z</time></trkpt><trkpt lat="43.35532453457981" lon="11.97629727710254"><ele>308.0</ele><time>2026-04-11T09:50:56.999Z</time></trkpt><trkpt lat="43.355259720742005" lon="11.976343642755351"><ele>308.66666666666663</ele><time>2026-04-11T09:50:58.999Z</time></trkpt><trkpt lat="43.35517443550832" lon="11.976386313754512"><ele>309.3333333333333</ele><time>2026-04-11T09:51:01.999Z</time></trkpt><trkpt lat="43.35511309343502" lon="11.976364779946634"><ele>310.0</ele><time>2026-04-11T09:51:03.999Z</time></trkpt><trkpt lat="43.355060695175354" lon="11.976310633314963"><ele>310.0</ele><time>2026-04-11T09:51:05.999Z</time></trkpt><trkpt lat="43.354991427091186" lon="11.976370964110357"><ele>310.0</ele><time>2026-04-11T09:51:08.999Z</time></trkpt><trkpt lat="43.35491192908768" lon="11.976357188859058"><ele>310.0</ele><time>2026-04-11T09:51:12.999Z</time></trkpt><trkpt lat="43.354898085658014" lon="11.97625229051776"><ele>310.0</ele><time>2026-04-11T09:51:15.999Z</time></trkpt><trkpt lat="43.35494692122678" lon="11.976172517579649"><ele>310.0</ele><time>2026-04-11T09:51:18.999Z</time></trkpt><trkpt lat="43.354997253134805" lon="11.97611072527788"><ele>310.0</ele><time>2026-04-11T09:51:20.999Z</time></trkpt><trkpt lat="43.35503471743288" lon="11.976022362925304"><ele>310.0</ele><time>2026-04-11T09:51:23.999Z</time></trkpt><trkpt lat="43.35506256550911" lon="11.975929620286006"><ele>310.0</ele><time>2026-04-11T09:51:26.999Z</time></trkpt><trkpt lat="43.355104318741404" lon="11.97583950066232"><ele>310.0</ele><time>2026-04-11T09:51:29.999Z</time></trkpt><trkpt lat="43.35507225330049" lon="11.97575161157576"><ele>310.0</ele><time>2026-04-11T09:51:31.999Z</time></trkpt><trkpt lat="43.355069456861365" lon="11.975851630895923"><ele>310.0</ele><time>2026-04-11T09:51:37.999Z</time></trkpt><trkpt lat="43.355105969376915" lon="11.97592494546836"><ele>310.0</ele><time>2026-04-11T09:51:39.999Z</time></trkpt><trkpt lat="43.35516898802957" lon="11.975971984948877"><ele>310.0</ele><time>2026-04-11T09:51:42.999Z</time></trkpt><trkpt lat="43.35524496111384" lon="11.976016033727882"><ele>310.0</ele><time>2026-04-11T09:51:47Z</time></trkpt><trkpt lat="43.35518735822797" lon="11.975963274210416"><ele>310.0</ele><time>2026-04-11T09:52:32Z</time></trkpt><trkpt lat="43.35511573563655" lon="11.975930845978576"><ele>310.0</ele><time>2026-04-11T09:52:34Z</time></trkpt><trkpt lat="43.355075607510194" lon="11.975815806846853"><ele>310.0</ele><time>2026-04-11T09:52:37Z</time></trkpt><trkpt lat="43.355072364553806" lon="11.975722117706436"><ele>310.0</ele><time>2026-04-11T09:52:39Z</time></trkpt><trkpt lat="43.35505390918864" lon="11.975604258375691"><ele>310.0</ele><time>2026-04-11T09:52:42Z</time></trkpt><trkpt lat="43.35502207668428" lon="11.975479860765834"><ele>310.66666666666663</ele><time>2026-04-11T09:52:45Z</time></trkpt><trkpt lat="43.35498771057935" lon="11.975382577057147"><ele>311.3333333333333</ele><time>2026-04-11T09:52:47Z</time></trkpt><trkpt lat="43.35498191760953" lon="11.975250191968156"><ele>312.0</ele><time>2026-04-11T09:52:49Z</time></trkpt><trkpt lat="43.35500526816463" lon="11.975129971905258"><ele>312.6666666666667</ele><time>2026-04-11T09:52:51Z</time></trkpt><trkpt lat="43.35502424847045" lon="11.975030817602352"><ele>313.33333333333337</ele><time>2026-04-11T09:52:53Z</time></trkpt><trkpt lat="43.35503166488612" lon="11.974925569334149"><ele>314.0</ele><time>2026-04-11T09:52:55Z</time></trkpt><trkpt lat="43.355039033210346" lon="11.974829420267914"><ele>314.0</ele><time>2026-04-11T09:52:57Z</time></trkpt><trkpt lat="43.35507394466872" lon="11.97472718665555"><ele>314.0</ele><time>2026-04-11T09:52:59Z</time></trkpt><trkpt lat="43.35503494434148" lon="11.974637850944264"><ele>314.0</ele><time>2026-04-11T09:53:02Z</time></trkpt><trkpt lat="43.3549499088402" lon="11.974606702727845"><ele>314.0</ele><time>2026-04-11T09:53:04Z</time></trkpt><trkpt lat="43.3548752386704" lon="11.974669729811653"><ele>314.0</ele><time>2026-04-11T09:53:06.999Z</time></trkpt><trkpt lat="43.35481941011897" lon="11.974734766731451"><ele>314.0</ele><time>2026-04-11T09:53:08.999Z</time></trkpt><trkpt lat="43.354764392305526" lon="11.974821677877198"><ele>314.0</ele><time>2026-04-11T09:53:10.999Z</time></trkpt><trkpt lat="43.35471757318715" lon="11.974925942878253"><ele>314.0</ele><time>2026-04-11T09:53:12.999Z</time></trkpt><trkpt lat="43.3546855825239" lon="11.975003562101104"><ele>314.0</ele><time>2026-04-11T09:53:14.999Z</time></trkpt><trkpt lat="43.354686013484695" lon="11.975102303825418"><ele>314.0</ele><time>2026-04-11T09:53:16.999Z</time></trkpt><trkpt lat="43.3546985121832" lon="11.97520328363191"><ele>314.0</ele><time>2026-04-11T09:53:18.999Z</time></trkpt><trkpt lat="43.3546557744165" lon="11.975070301112499"><ele>314.0</ele><time>2026-04-11T09:53:29.999Z</time></trkpt><trkpt lat="43.35458572701996" lon="11.97513258692646"><ele>311.5</ele><time>2026-04-11T09:53:31.999Z</time></trkpt><trkpt lat="43.3545384918543" lon="11.975221428336596"><ele>309.0</ele><time>2026-04-11T09:53:33.999Z</time></trkpt><trkpt lat="43.35449275204984" lon="11.97528417391784"><ele>306.5</ele><time>2026-04-11T09:53:35.999Z</time></trkpt><trkpt lat="43.354455240872994" lon="11.975395460397959"><ele>304.0</ele><time>2026-04-11T09:53:38.999Z</time></trkpt><trkpt lat="43.354418235060386" lon="11.975473057142372"><ele>301.5</ele><time>2026-04-11T09:53:40.999Z</time></trkpt><trkpt lat="43.35435407004237" lon="11.97553058997473"><ele>299.0</ele><time>2026-04-11T09:53:42.999Z</time></trkpt><trkpt lat="43.354269050659994" lon="11.975620987623305"><ele>299.0</ele><time>2026-04-11T09:53:44.999Z</time></trkpt><trkpt lat="43.3541718294707" lon="11.975651977219613"><ele>299.0</ele><time>2026-04-11T09:53:46.999Z</time></trkpt><trkpt lat="43.354093155162175" lon="11.975672529544067"><ele>299.0</ele><time>2026-04-11T09:53:48.999Z</time></trkpt><trkpt lat="43.35401406694225" lon="11.975676504157647"><ele>299.0</ele><time>2026-04-11T09:53:52Z</time></trkpt><trkpt lat="43.353942075720624" lon="11.975669153141979"><ele>299.0</ele><time>2026-04-11T09:53:55Z</time></trkpt><trkpt lat="43.35386459463957" lon="11.975663795791496"><ele>299.0</ele><time>2026-04-11T09:53:58Z</time></trkpt><trkpt lat="43.35379837753986" lon="11.975648723601902"><ele>296.83333333333337</ele><time>2026-04-11T09:54:00Z</time></trkpt><trkpt lat="43.35372625163232" lon="11.97561693761685"><ele>294.6666666666667</ele><time>2026-04-11T09:54:02Z</time></trkpt><trkpt lat="43.3536521406829" lon="11.97559029704001"><ele>292.5</ele><time>2026-04-11T09:54:04Z</time></trkpt><trkpt lat="43.353577528963854" lon="11.975574839739851"><ele>290.3333333333333</ele><time>2026-04-11T09:54:06Z</time></trkpt><trkpt lat="43.35349908858528" lon="11.975552804232052"><ele>288.16666666666663</ele><time>2026-04-11T09:54:08Z</time></trkpt><trkpt lat="43.35341229681564" lon="11.975564388768467"><ele>286.0</ele><time>2026-04-11T09:54:10Z</time></trkpt><trkpt lat="43.35332592363337" lon="11.975543096086012"><ele>286.0</ele><time>2026-04-11T09:54:12Z</time></trkpt><trkpt lat="43.35325297858159" lon="11.975530830540182"><ele>286.0</ele><time>2026-04-11T09:54:14Z</time></trkpt><trkpt lat="43.35319182282389" lon="11.975504819118859"><ele>286.0</ele><time>2026-04-11T09:54:17Z</time></trkpt><trkpt lat="43.353101109695714" lon="11.975462078399376"><ele>286.0</ele><time>2026-04-11T09:54:20Z</time></trkpt><trkpt lat="43.35304622350351" lon="11.975346164950068"><ele>286.0</ele><time>2026-04-11T09:54:22Z</time></trkpt><trkpt lat="43.353005094419906" lon="11.975224458137486"><ele>286.0</ele><time>2026-04-11T09:54:24Z</time></trkpt><trkpt lat="43.35296689939394" lon="11.975084463624441"><ele>285.5</ele><time>2026-04-11T09:54:26Z</time></trkpt><trkpt lat="43.35292303582577" lon="11.974950779611106"><ele>285.0</ele><time>2026-04-11T09:54:28Z</time></trkpt><trkpt lat="43.3529134151479" lon="11.974853168147877"><ele>284.5</ele><time>2026-04-11T09:54:30Z</time></trkpt><trkpt lat="43.35286596816535" lon="11.974945673098205"><ele>284.0</ele><time>2026-04-11T09:54:38Z</time></trkpt><trkpt lat="43.35287958845695" lon="11.975034415856388"><ele>283.5</ele><time>2026-04-11T09:54:40Z</time></trkpt><trkpt lat="43.35290550245272" lon="11.975141246279762"><ele>283.0</ele><time>2026-04-11T09:54:42Z</time></trkpt><trkpt lat="43.35295254079423" lon="11.97520711233145"><ele>283.0</ele><time>2026-04-11T09:54:44Z</time></trkpt><trkpt lat="43.352863517841556" lon="11.975251792763054"><ele>283.0</ele><time>2026-04-11T09:54:47Z</time></trkpt><trkpt lat="43.352777919425655" lon="11.975241373457779"><ele>283.0</ele><time>2026-04-11T09:54:51Z</time></trkpt><trkpt lat="43.35268701610687" lon="11.97524459681213"><ele>283.0</ele><time>2026-04-11T09:54:54Z</time></trkpt><trkpt lat="43.35261478178308" lon="11.975205638017897"><ele>283.0</ele><time>2026-04-11T09:54:56Z</time></trkpt><trkpt lat="43.35253050465059" lon="11.975173795107972"><ele>283.0</ele><time>2026-04-11T09:54:58Z</time></trkpt><trkpt lat="43.35244337164252" lon="11.975143373162407"><ele>283.0</ele><time>2026-04-11T09:55:00Z</time></trkpt><trkpt lat="43.35235676754944" lon="11.975125493675334"><ele>283.0</ele><time>2026-04-11T09:55:02Z</time></trkpt><trkpt lat="43.3522603741662" lon="11.975115189425251"><ele>283.0</ele><time>2026-04-11T09:55:04Z</time></trkpt><trkpt lat="43.35215686742808" lon="11.975121123765414"><ele>283.0</ele><time>2026-04-11T09:55:06Z</time></trkpt><trkpt lat="43.35206455130513" lon="11.97509751832914"><ele>283.0</ele><time>2026-04-11T09:55:08Z</time></trkpt><trkpt lat="43.35196484833917" lon="11.975090117176935"><ele>283.2</ele><time>2026-04-11T09:55:10Z</time></trkpt><trkpt lat="43.35186856513052" lon="11.975083928853506"><ele>283.4</ele><time>2026-04-11T09:55:12Z</time></trkpt><trkpt lat="43.35176234604109" lon="11.975096420723016"><ele>283.59999999999997</ele><time>2026-04-11T09:55:14Z</time></trkpt><trkpt lat="43.351659076621395" lon="11.975116249082753"><ele>283.8</ele><time>2026-04-11T09:55:15.999Z</time></trkpt><trkpt lat="43.35156535812702" lon="11.975149294512413"><ele>284.0</ele><time>2026-04-11T09:55:17.999Z</time></trkpt><trkpt lat="43.35146440654434" lon="11.975201878271292"><ele>284.2</ele><time>2026-04-11T09:55:19.999Z</time></trkpt><trkpt lat="43.35135389852032" lon="11.975247690314776"><ele>284.4</ele><time>2026-04-11T09:55:21.999Z</time></trkpt><trkpt lat="43.35124755606739" lon="11.975285405908972"><ele>284.6</ele><time>2026-04-11T09:55:23.999Z</time></trkpt><trkpt lat="43.35116023922784" lon="11.975292649494314"><ele>284.8</ele><time>2026-04-11T09:55:25.999Z</time></trkpt><trkpt lat="43.351060609115784" lon="11.975251132889579"><ele>285.0</ele><time>2026-04-11T09:55:27.999Z</time></trkpt><trkpt lat="43.35095796959842" lon="11.975207029081048"><ele>285.0</ele><time>2026-04-11T09:55:29.999Z</time></trkpt><trkpt lat="43.35090175770471" lon="11.975156823803017"><ele>285.0</ele><time>2026-04-11T09:55:30.999Z</time></trkpt><trkpt lat="43.3508327723184" lon="11.975143517696003"><ele>285.0</ele><time>2026-04-11T09:55:31.999Z</time></trkpt><trkpt lat="43.35077233913904" lon="11.9751057822633"><ele>285.0</ele><time>2026-04-11T09:55:32.999Z</time></trkpt><trkpt lat="43.35071033957976" lon="11.975065888025613"><ele>285.0</ele><time>2026-04-11T09:55:33.999Z</time></trkpt><trkpt lat="43.35064715809504" lon="11.975027451599853"><ele>285.0</ele><time>2026-04-11T09:55:34.999Z</time></trkpt><trkpt lat="43.35058543723344" lon="11.974995654416524"><ele>285.0</ele><time>2026-04-11T09:55:35.999Z</time></trkpt><trkpt lat="43.350523795718956" lon="11.97496388096736"><ele>285.0</ele><time>2026-04-11T09:55:36.999Z</time></trkpt><trkpt lat="43.35047107165567" lon="11.974911792751303"><ele>285.0</ele><time>2026-04-11T09:55:37.999Z</time></trkpt><trkpt lat="43.35041202474651" lon="11.974877231841022"><ele>285.0</ele><time>2026-04-11T09:55:38.999Z</time></trkpt><trkpt lat="43.35034841750864" lon="11.974840001731382"><ele>285.0</ele><time>2026-04-11T09:55:39.999Z</time></trkpt><trkpt lat="43.35023851273677" lon="11.974781159681216"><ele>285.0</ele><time>2026-04-11T09:55:41.999Z</time></trkpt><trkpt lat="43.350140709661" lon="11.974739918917365"><ele>285.0</ele><time>2026-04-11T09:55:43.999Z</time></trkpt><trkpt lat="43.35003703785661" lon="11.97471517923181"><ele>285.0</ele><time>2026-04-11T09:55:45.999Z</time></trkpt><trkpt lat="43.349957254101376" lon="11.97469899872116"><ele>285.0</ele><time>2026-04-11T09:55:47.999Z</time></trkpt><trkpt lat="43.34989292691797" lon="11.97468595292504"><ele>285.0</ele><time>2026-04-11T09:55:49.999Z</time></trkpt><trkpt lat="43.34981412008557" lon="11.974669970636922"><ele>285.0</ele><time>2026-04-11T09:55:51.999Z</time></trkpt><trkpt lat="43.34974489168389" lon="11.974655930879763"><ele>285.0</ele><time>2026-04-11T09:55:59Z</time></trkpt><trkpt lat="43.34975341165298" lon="11.974406059186508"><ele>285.0</ele><time>2026-04-11T09:56:01Z</time></trkpt><trkpt lat="43.34975702058824" lon="11.974258441948066"><ele>285.0</ele><time>2026-04-11T09:56:03Z</time></trkpt><trkpt lat="43.34975711501788" lon="11.974102152284669"><ele>285.0</ele><time>2026-04-11T09:56:05Z</time></trkpt><trkpt lat="43.34976238338885" lon="11.973947538706526"><ele>285.0</ele><time>2026-04-11T09:56:07Z</time></trkpt><trkpt lat="43.34976002638129" lon="11.973777906745715"><ele>284.4</ele><time>2026-04-11T09:56:09Z</time></trkpt><trkpt lat="43.349760355765596" lon="11.973690534934839"><ele>283.8</ele><time>2026-04-11T09:56:10Z</time></trkpt><trkpt lat="43.349759929404016" lon="11.973601303027321"><ele>283.2</ele><time>2026-04-11T09:56:11Z</time></trkpt><trkpt lat="43.349769117456596" lon="11.973441502619805"><ele>282.6</ele><time>2026-04-11T09:56:13Z</time></trkpt><trkpt lat="43.349771970867764" lon="11.973294300136022"><ele>282.0</ele><time>2026-04-11T09:56:15Z</time></trkpt><trkpt lat="43.34977045136095" lon="11.973132574023401"><ele>282.0</ele><time>2026-04-11T09:56:17Z</time></trkpt><trkpt lat="43.349771669997985" lon="11.972961196519309"><ele>282.0</ele><time>2026-04-11T09:56:19Z</time></trkpt><trkpt lat="43.34976685960386" lon="11.972801153986849"><ele>282.0</ele><time>2026-04-11T09:56:21Z</time></trkpt><trkpt lat="43.34976429839564" lon="11.972627997245786"><ele>282.0</ele><time>2026-04-11T09:56:23Z</time></trkpt><trkpt lat="43.34975847477842" lon="11.972451923625533"><ele>282.0</ele><time>2026-04-11T09:56:25Z</time></trkpt><trkpt lat="43.349757397628856" lon="11.972363881083732"><ele>282.0</ele><time>2026-04-11T09:56:26Z</time></trkpt><trkpt lat="43.34975059616345" lon="11.972194667129262"><ele>282.0</ele><time>2026-04-11T09:56:28Z</time></trkpt><trkpt lat="43.34974817715901" lon="11.972034468685496"><ele>282.0</ele><time>2026-04-11T09:56:30Z</time></trkpt><trkpt lat="43.34974290898415" lon="11.971868972830562"><ele>282.0</ele><time>2026-04-11T09:56:32Z</time></trkpt><trkpt lat="43.34973758249627" lon="11.971714141199364"><ele>281.6666666666667</ele><time>2026-04-11T09:56:34Z</time></trkpt><trkpt lat="43.349733022010355" lon="11.971543146041526"><ele>281.3333333333333</ele><time>2026-04-11T09:56:36Z</time></trkpt><trkpt lat="43.34972905574685" lon="11.971452671817698"><ele>281.0</ele><time>2026-04-11T09:56:37Z</time></trkpt><trkpt lat="43.349725464585376" lon="11.971360829156747"><ele>280.66666666666663</ele><time>2026-04-11T09:56:38Z</time></trkpt><trkpt lat="43.3497236048687" lon="11.971268498574293"><ele>280.3333333333333</ele><time>2026-04-11T09:56:39Z</time></trkpt><trkpt lat="43.34972106859313" lon="11.971176783054403"><ele>280.0</ele><time>2026-04-11T09:56:40Z</time></trkpt><trkpt lat="43.34971561199571" lon="11.971002513022745"><ele>280.0</ele><time>2026-04-11T09:56:42Z</time></trkpt><trkpt lat="43.349712681753694" lon="11.970913337277123"><ele>280.0</ele><time>2026-04-11T09:56:43Z</time></trkpt><trkpt lat="43.34971276855954" lon="11.970819641191236"><ele>280.0</ele><time>2026-04-11T09:56:44Z</time></trkpt><trkpt lat="43.3497085485756" lon="11.970730083767162"><ele>280.0</ele><time>2026-04-11T09:56:45Z</time></trkpt><trkpt lat="43.349699369065334" lon="11.970564076909392"><ele>280.0</ele><time>2026-04-11T09:56:47Z</time></trkpt><trkpt lat="43.34969532183581" lon="11.970404103103387"><ele>280.0</ele><time>2026-04-11T09:56:49Z</time></trkpt><trkpt lat="43.349693837533174" lon="11.970239969654907"><ele>279.7142857142857</ele><time>2026-04-11T09:56:51Z</time></trkpt><trkpt lat="43.349692453046885" lon="11.970152411668465"><ele>279.42857142857144</ele><time>2026-04-11T09:56:52Z</time></trkpt><trkpt lat="43.34968649151271" lon="11.970057662042697"><ele>279.1428571428571</ele><time>2026-04-11T09:56:53Z</time></trkpt><trkpt lat="43.34967871393351" lon="11.9699625360628"><ele>278.8571428571429</ele><time>2026-04-11T09:56:54Z</time></trkpt><trkpt lat="43.349666401801976" lon="11.969870292267164"><ele>278.57142857142856</ele><time>2026-04-11T09:56:55Z</time></trkpt><trkpt lat="43.34965398453204" lon="11.969779604025613"><ele>278.2857142857143</ele><time>2026-04-11T09:56:56Z</time></trkpt><trkpt lat="43.349640627152056" lon="11.969691019947339"><ele>278.0</ele><time>2026-04-11T09:56:57Z</time></trkpt><trkpt lat="43.34962666533756" lon="11.969595740648348"><ele>278.0</ele><time>2026-04-11T09:56:58Z</time></trkpt><trkpt lat="43.34961248657079" lon="11.96948945979052"><ele>278.0</ele><time>2026-04-11T09:56:59Z</time></trkpt><trkpt lat="43.34959796588829" lon="11.969377610814812"><ele>278.0</ele><time>2026-04-11T09:57:00Z</time></trkpt><trkpt lat="43.34958901731001" lon="11.969264281454446"><ele>278.0</ele><time>2026-04-11T09:57:01Z</time></trkpt><trkpt lat="43.3495684027455" lon="11.96914684617986"><ele>278.0</ele><time>2026-04-11T09:57:02Z</time></trkpt><trkpt lat="43.349549144173004" lon="11.96903481806546"><ele>278.0</ele><time>2026-04-11T09:57:03Z</time></trkpt><trkpt lat="43.349534779833554" lon="11.968927191939928"><ele>278.0</ele><time>2026-04-11T09:57:04Z</time></trkpt><trkpt lat="43.34951986654555" lon="11.96882835588896"><ele>278.0</ele><time>2026-04-11T09:57:05Z</time></trkpt><trkpt lat="43.349505344151886" lon="11.968721826344195"><ele>278.0</ele><time>2026-04-11T09:57:06Z</time></trkpt><trkpt lat="43.34949118553848" lon="11.968619585578931"><ele>278.0</ele><time>2026-04-11T09:57:07Z</time></trkpt><trkpt lat="43.34947426203578" lon="11.968511215697935"><ele>278.0</ele><time>2026-04-11T09:57:08Z</time></trkpt><trkpt lat="43.34945829231454" lon="11.968403854125278"><ele>278.0</ele><time>2026-04-11T09:57:09Z</time></trkpt><trkpt lat="43.34944289013115" lon="11.968301331488593"><ele>278.0</ele><time>2026-04-11T09:57:10Z</time></trkpt><trkpt lat="43.349428482056986" lon="11.968206553871429"><ele>278.0</ele><time>2026-04-11T09:57:11Z</time></trkpt><trkpt lat="43.34940509573134" lon="11.968045807898768"><ele>278.0</ele><time>2026-04-11T09:57:13Z</time></trkpt><trkpt lat="43.349388425363806" lon="11.967884007903908"><ele>278.0</ele><time>2026-04-11T09:57:15Z</time></trkpt><trkpt lat="43.3493651243005" lon="11.967738099647821"><ele>278.0</ele><time>2026-04-11T09:57:17Z</time></trkpt><trkpt lat="43.3493385223097" lon="11.96763688369718"><ele>278.0</ele><time>2026-04-11T09:57:19Z</time></trkpt><trkpt lat="43.34930444751927" lon="11.967535397897814"><ele>278.0</ele><time>2026-04-11T09:57:22Z</time></trkpt><trkpt lat="43.349278298459055" lon="11.967443907217799"><ele>278.0</ele><time>2026-04-11T09:57:26Z</time></trkpt><trkpt lat="43.34931598064114" lon="11.96735367931715"><ele>278.0</ele><time>2026-04-11T09:57:32Z</time></trkpt><trkpt lat="43.34941484440413" lon="11.967337918014502"><ele>278.0</ele><time>2026-04-11T09:57:33.999Z</time></trkpt><trkpt lat="43.34949232553437" lon="11.96731393507916"><ele>278.0</ele><time>2026-04-11T09:57:35.999Z</time></trkpt><trkpt lat="43.34957350711887" lon="11.96728839051981"><ele>278.0</ele><time>2026-04-11T09:57:37.999Z</time></trkpt><trkpt lat="43.349659667461964" lon="11.967251909875623"><ele>278.0</ele><time>2026-04-11T09:57:39.999Z</time></trkpt><trkpt lat="43.349763698740055" lon="11.967213122453975"><ele>278.0</ele><time>2026-04-11T09:57:41.999Z</time></trkpt><trkpt lat="43.34987995332667" lon="11.967177398187056"><ele>278.0</ele><time>2026-04-11T09:57:43.999Z</time></trkpt><trkpt lat="43.34998086630735" lon="11.967148011678866"><ele>278.0</ele><time>2026-04-11T09:57:45.999Z</time></trkpt><trkpt lat="43.35007748262634" lon="11.967125451724412"><ele>278.0</ele><time>2026-04-11T09:57:47.999Z</time></trkpt><trkpt lat="43.35017398315363" lon="11.967099488101944"><ele>278.0</ele><time>2026-04-11T09:57:49.999Z</time></trkpt><trkpt lat="43.35026878964952" lon="11.96706754004213"><ele>278.0</ele><time>2026-04-11T09:57:51.999Z</time></trkpt><trkpt lat="43.35035700653379" lon="11.967037683000342"><ele>278.0</ele><time>2026-04-11T09:57:53.999Z</time></trkpt><trkpt lat="43.35045651101765" lon="11.967015162365087"><ele>278.0</ele><time>2026-04-11T09:57:55.999Z</time></trkpt><trkpt lat="43.3505603302338" lon="11.967057910015557"><ele>278.0</ele><time>2026-04-11T09:57:57.999Z</time></trkpt><trkpt lat="43.350648743151574" lon="11.967060979111114"><ele>278.0</ele><time>2026-04-11T09:57:59.999Z</time></trkpt><trkpt lat="43.35073325190386" lon="11.967065283926832"><ele>278.0</ele><time>2026-04-11T09:58:01.999Z</time></trkpt><trkpt lat="43.35081340276909" lon="11.967072617396164"><ele>278.0</ele><time>2026-04-11T09:58:04Z</time></trkpt><trkpt lat="43.35088077505582" lon="11.967078781678875"><ele>278.0</ele><time>2026-04-11T09:58:06Z</time></trkpt><trkpt lat="43.350952519213635" lon="11.967085345969037"><ele>278.0</ele><time>2026-04-11T09:58:08Z</time></trkpt><trkpt lat="43.35102672415987" lon="11.967089629957648"><ele>278.0</ele><time>2026-04-11T09:58:12Z</time></trkpt><trkpt lat="43.35110111868685" lon="11.967058506768415"><ele>278.0</ele><time>2026-04-11T09:58:16Z</time></trkpt><trkpt lat="43.35114812159994" lon="11.966982098393302"><ele>278.0</ele><time>2026-04-11T09:59:38Z</time></trkpt><trkpt lat="43.35116052303727" lon="11.966875215707246"><ele>278.0</ele><time>2026-04-11T09:59:40Z</time></trkpt><trkpt lat="43.351155811061965" lon="11.966712008635238"><ele>278.0</ele><time>2026-04-11T09:59:42Z</time></trkpt><trkpt lat="43.351159450001205" lon="11.966607524055867"><ele>278.0</ele><time>2026-04-11T09:59:43Z</time></trkpt><trkpt lat="43.35116434472859" lon="11.96648985325244"><ele>278.0</ele><time>2026-04-11T09:59:44Z</time></trkpt><trkpt lat="43.3511541894557" lon="11.966389274879903"><ele>278.0</ele><time>2026-04-11T09:59:45Z</time></trkpt><trkpt lat="43.35115189649648" lon="11.96629233728048"><ele>278.0</ele><time>2026-04-11T09:59:45.999Z</time></trkpt><trkpt lat="43.35115907331171" lon="11.966184909664388"><ele>278.0</ele><time>2026-04-11T09:59:46.999Z</time></trkpt><trkpt lat="43.35117662303195" lon="11.966092755857952"><ele>278.0</ele><time>2026-04-11T09:59:47.999Z</time></trkpt><trkpt lat="43.35119024602565" lon="11.965999964576081"><ele>278.0</ele><time>2026-04-11T09:59:48.999Z</time></trkpt><trkpt lat="43.35122471041374" lon="11.965831601106435"><ele>278.1666666666667</ele><time>2026-04-11T09:59:50.999Z</time></trkpt><trkpt lat="43.351252091874564" lon="11.965735587102118"><ele>278.33333333333337</ele><time>2026-04-11T09:59:51.999Z</time></trkpt><trkpt lat="43.35128215610652" lon="11.965643017371647"><ele>278.5</ele><time>2026-04-11T09:59:52.999Z</time></trkpt><trkpt lat="43.35133974999748" lon="11.965497737452223"><ele>278.6666666666667</ele><time>2026-04-11T09:59:54.999Z</time></trkpt><trkpt lat="43.35140079524034" lon="11.965394921970239"><ele>278.8333333333333</ele><time>2026-04-11T09:59:56.999Z</time></trkpt><trkpt lat="43.351435441445545" lon="11.965306610353391"><ele>279.0</ele><time>2026-04-11T09:59:59.999Z</time></trkpt><trkpt lat="43.351369590685756" lon="11.965368426336973"><ele>279.0</ele><time>2026-04-11T10:00:03.999Z</time></trkpt><trkpt lat="43.35134191363404" lon="11.965446440360209"><ele>279.0</ele><time>2026-04-11T10:00:05.999Z</time></trkpt><trkpt lat="43.35130705095965" lon="11.965544708579086"><ele>279.0</ele><time>2026-04-11T10:00:07.999Z</time></trkpt><trkpt lat="43.35126879338649" lon="11.965649207374842"><ele>279.0</ele><time>2026-04-11T10:00:10Z</time></trkpt><trkpt lat="43.3511937184816" lon="11.965769564240741"><ele>279.0</ele><time>2026-04-11T10:00:12Z</time></trkpt><trkpt lat="43.35116696076862" lon="11.965853621287486"><ele>279.0</ele><time>2026-04-11T10:00:13Z</time></trkpt><trkpt lat="43.351151818548715" lon="11.965940632284207"><ele>278.8333333333333</ele><time>2026-04-11T10:00:14Z</time></trkpt><trkpt lat="43.35113884783073" lon="11.966108312490423"><ele>278.6666666666667</ele><time>2026-04-11T10:00:16Z</time></trkpt><trkpt lat="43.351144380817054" lon="11.966199887314053"><ele>278.5</ele><time>2026-04-11T10:00:17Z</time></trkpt><trkpt lat="43.351144392445896" lon="11.966302705469792"><ele>278.33333333333337</ele><time>2026-04-11T10:00:18Z</time></trkpt><trkpt lat="43.35114693307518" lon="11.96642257566536"><ele>278.1666666666667</ele><time>2026-04-11T10:00:19Z</time></trkpt><trkpt lat="43.35114659205118" lon="11.966540104866137"><ele>278.0</ele><time>2026-04-11T10:00:20Z</time></trkpt><trkpt lat="43.351131882146205" lon="11.966677542363275"><ele>278.0</ele><time>2026-04-11T10:00:21Z</time></trkpt><trkpt lat="43.351127422326634" lon="11.966813536169726"><ele>278.0</ele><time>2026-04-11T10:00:22Z</time></trkpt><trkpt lat="43.35111985375687" lon="11.96693639955833"><ele>278.0</ele><time>2026-04-11T10:00:23Z</time></trkpt><trkpt lat="43.351123942200914" lon="11.967050635404652"><ele>278.0</ele><time>2026-04-11T10:00:24Z</time></trkpt><trkpt lat="43.351139135407436" lon="11.967167061635047"><ele>278.0</ele><time>2026-04-11T10:00:25Z</time></trkpt><trkpt lat="43.35116853441548" lon="11.967279612471206"><ele>278.0</ele><time>2026-04-11T10:00:26Z</time></trkpt><trkpt lat="43.35120638437499" lon="11.967387870207896"><ele>278.0</ele><time>2026-04-11T10:00:27Z</time></trkpt><trkpt lat="43.35123959306342" lon="11.967498485212191"><ele>278.0</ele><time>2026-04-11T10:00:28Z</time></trkpt><trkpt lat="43.35127069176749" lon="11.967609120215906"><ele>278.0</ele><time>2026-04-11T10:00:29Z</time></trkpt><trkpt lat="43.35130695552787" lon="11.967719589323188"><ele>278.0</ele><time>2026-04-11T10:00:30Z</time></trkpt><trkpt lat="43.351344781516715" lon="11.967828114522325"><ele>278.0</ele><time>2026-04-11T10:00:31Z</time></trkpt><trkpt lat="43.35137704724235" lon="11.967936094856537"><ele>278.0</ele><time>2026-04-11T10:00:32Z</time></trkpt><trkpt lat="43.351410233508986" lon="11.968045512639115"><ele>278.1666666666667</ele><time>2026-04-11T10:00:33Z</time></trkpt><trkpt lat="43.35144680462116" lon="11.968145855736683"><ele>278.33333333333337</ele><time>2026-04-11T10:00:34Z</time></trkpt><trkpt lat="43.35148390053167" lon="11.968249224729915"><ele>278.5</ele><time>2026-04-11T10:00:35Z</time></trkpt><trkpt lat="43.351519529085465" lon="11.96835565469865"><ele>278.6666666666667</ele><time>2026-04-11T10:00:36Z</time></trkpt><trkpt lat="43.351556761531306" lon="11.968462750548195"><ele>278.8333333333333</ele><time>2026-04-11T10:00:37Z</time></trkpt><trkpt lat="43.35159333788067" lon="11.968571771596888"><ele>279.0</ele><time>2026-04-11T10:00:38Z</time></trkpt><trkpt lat="43.3516308223988" lon="11.968669538549475"><ele>279.0</ele><time>2026-04-11T10:00:39Z</time></trkpt><trkpt lat="43.35165629670914" lon="11.968780359930083"><ele>279.0</ele><time>2026-04-11T10:00:40Z</time></trkpt><trkpt lat="43.35169489901238" lon="11.968891647326785"><ele>279.0</ele><time>2026-04-11T10:00:41Z</time></trkpt><trkpt lat="43.35173145870054" lon="11.968997443967217"><ele>279.0</ele><time>2026-04-11T10:00:42Z</time></trkpt><trkpt lat="43.351782940880874" lon="11.969094727778558"><ele>279.0</ele><time>2026-04-11T10:00:43Z</time></trkpt><trkpt lat="43.35182000516816" lon="11.969201845479036"><ele>279.0</ele><time>2026-04-11T10:00:44Z</time></trkpt><trkpt lat="43.351856975717006" lon="11.969310153508435"><ele>279.1666666666667</ele><time>2026-04-11T10:00:45Z</time></trkpt><trkpt lat="43.35189644467138" lon="11.96942336388606"><ele>279.3333333333333</ele><time>2026-04-11T10:00:46Z</time></trkpt><trkpt lat="43.35193130362819" lon="11.969539118651836"><ele>279.5</ele><time>2026-04-11T10:00:47Z</time></trkpt><trkpt lat="43.351968871804026" lon="11.969653010279346"><ele>279.66666666666663</ele><time>2026-04-11T10:00:48Z</time></trkpt><trkpt lat="43.35200791834737" lon="11.969762040028279"><ele>279.8333333333333</ele><time>2026-04-11T10:00:49Z</time></trkpt><trkpt lat="43.35204345830878" lon="11.969867397315111"><ele>280.0</ele><time>2026-04-11T10:00:50Z</time></trkpt><trkpt lat="43.35207030117274" lon="11.969959512533134"><ele>280.0</ele><time>2026-04-11T10:00:51Z</time></trkpt><trkpt lat="43.35210114398958" lon="11.97004633458155"><ele>280.0</ele><time>2026-04-11T10:00:52Z</time></trkpt><trkpt lat="43.3521323350289" lon="11.970144609797424"><ele>280.0</ele><time>2026-04-11T10:00:53Z</time></trkpt><trkpt lat="43.35217057902528" lon="11.970242937599835"><ele>280.0</ele><time>2026-04-11T10:00:54Z</time></trkpt><trkpt lat="43.352198534257994" lon="11.970354857432795"><ele>280.0</ele><time>2026-04-11T10:00:55Z</time></trkpt><trkpt lat="43.35223662550106" lon="11.970466236735662"><ele>280.0</ele><time>2026-04-11T10:00:56Z</time></trkpt><trkpt lat="43.35229173188988" lon="11.970577483605007"><ele>280.2</ele><time>2026-04-11T10:00:57Z</time></trkpt><trkpt lat="43.35233019420935" lon="11.970702653538352"><ele>280.4</ele><time>2026-04-11T10:00:58Z</time></trkpt><trkpt lat="43.35237130371864" lon="11.970833621334158"><ele>280.6</ele><time>2026-04-11T10:00:59Z</time></trkpt><trkpt lat="43.352417161709" lon="11.970965794529924"><ele>280.8</ele><time>2026-04-11T10:01:00Z</time></trkpt><trkpt lat="43.352464071118526" lon="11.971099731765277"><ele>281.0</ele><time>2026-04-11T10:01:01Z</time></trkpt><trkpt lat="43.35250752363692" lon="11.971236958950403"><ele>281.0</ele><time>2026-04-11T10:01:02Z</time></trkpt><trkpt lat="43.35254847448717" lon="11.971376113173442"><ele>281.0</ele><time>2026-04-11T10:01:03Z</time></trkpt><trkpt lat="43.35258569262282" lon="11.971517146927182"><ele>281.0</ele><time>2026-04-11T10:01:04Z</time></trkpt><trkpt lat="43.352608954635045" lon="11.971661328680787"><ele>281.0</ele><time>2026-04-11T10:01:05Z</time></trkpt><trkpt lat="43.35261962222001" lon="11.971809436709098"><ele>281.0</ele><time>2026-04-11T10:01:06Z</time></trkpt><trkpt lat="43.35262425197175" lon="11.971958471677228"><ele>281.0</ele><time>2026-04-11T10:01:07Z</time></trkpt><trkpt lat="43.35262718796111" lon="11.972106285589451"><ele>281.0</ele><time>2026-04-11T10:01:08Z</time></trkpt><trkpt lat="43.35262909059969" lon="11.97225019234236"><ele>281.0</ele><time>2026-04-11T10:01:09Z</time></trkpt><trkpt lat="43.3526290727939" lon="11.97239431498881"><ele>281.0</ele><time>2026-04-11T10:01:10Z</time></trkpt><trkpt lat="43.35263527353898" lon="11.972538401520033"><ele>281.0</ele><time>2026-04-11T10:01:11Z</time></trkpt><trkpt lat="43.352642100515666" lon="11.97268433409561"><ele>281.0</ele><time>2026-04-11T10:01:12Z</time></trkpt><trkpt lat="43.352646161491045" lon="11.972832225252953"><ele>281.0</ele><time>2026-04-11T10:01:13Z</time></trkpt><trkpt lat="43.35265364783766" lon="11.972969396420144"><ele>281.0</ele><time>2026-04-11T10:01:14Z</time></trkpt><trkpt lat="43.352657429535455" lon="11.973108638568734"><ele>281.0</ele><time>2026-04-11T10:01:15Z</time></trkpt><trkpt lat="43.35265950469703" lon="11.973245853300021"><ele>281.0</ele><time>2026-04-11T10:01:16Z</time></trkpt><trkpt lat="43.35266303467194" lon="11.973379037308167"><ele>281.0</ele><time>2026-04-11T10:01:17Z</time></trkpt><trkpt lat="43.352669261822314" lon="11.97351229664892"><ele>281.0</ele><time>2026-04-11T10:01:18Z</time></trkpt><trkpt lat="43.35267407055001" lon="11.973640987854418"><ele>281.0</ele><time>2026-04-11T10:01:19Z</time></trkpt><trkpt lat="43.35267748189813" lon="11.973770780255508"><ele>281.0</ele><time>2026-04-11T10:01:20Z</time></trkpt><trkpt lat="43.35268411687882" lon="11.973900547197031"><ele>281.0</ele><time>2026-04-11T10:01:21Z</time></trkpt><trkpt lat="43.35268756174369" lon="11.974029344949777"><ele>281.0</ele><time>2026-04-11T10:01:22Z</time></trkpt><trkpt lat="43.35269070469958" lon="11.97415787343232"><ele>281.0</ele><time>2026-04-11T10:01:23Z</time></trkpt><trkpt lat="43.35269746401616" lon="11.97426973595865"><ele>281.0</ele><time>2026-04-11T10:01:24Z</time></trkpt><trkpt lat="43.352709269144576" lon="11.974373916391064"><ele>281.0</ele><time>2026-04-11T10:01:25Z</time></trkpt><trkpt lat="43.352730248319894" lon="11.974482093283278"><ele>281.0</ele><time>2026-04-11T10:01:26Z</time></trkpt><trkpt lat="43.35275576271151" lon="11.974599718192215"><ele>281.0</ele><time>2026-04-11T10:01:27Z</time></trkpt><trkpt lat="43.35278497183807" lon="11.974710693326148"><ele>281.40000000000003</ele><time>2026-04-11T10:01:28Z</time></trkpt><trkpt lat="43.35282131876607" lon="11.974825088160037"><ele>281.8</ele><time>2026-04-11T10:01:29Z</time></trkpt><trkpt lat="43.35285788964644" lon="11.97494321459465"><ele>282.20000000000005</ele><time>2026-04-11T10:01:30Z</time></trkpt><trkpt lat="43.352896363504925" lon="11.975057944816523"><ele>282.6</ele><time>2026-04-11T10:01:31Z</time></trkpt><trkpt lat="43.35293202038425" lon="11.975176371428267"><ele>283.0</ele><time>2026-04-11T10:01:32Z</time></trkpt><trkpt lat="43.352970805657506" lon="11.975291669839413"><ele>283.0</ele><time>2026-04-11T10:01:33Z</time></trkpt><trkpt lat="43.35299987097244" lon="11.975408442104158"><ele>283.0</ele><time>2026-04-11T10:01:34Z</time></trkpt><trkpt lat="43.353035986206066" lon="11.975525243821052"><ele>283.0</ele><time>2026-04-11T10:01:35Z</time></trkpt><trkpt lat="43.35307181653288" lon="11.975644530985521"><ele>283.0</ele><time>2026-04-11T10:01:36Z</time></trkpt><trkpt lat="43.3531169572955" lon="11.975758960019288"><ele>283.0</ele><time>2026-04-11T10:01:37Z</time></trkpt><trkpt lat="43.35313901853915" lon="11.975893408948984"><ele>284.4</ele><time>2026-04-11T10:01:38Z</time></trkpt><trkpt lat="43.353159139716944" lon="11.976032055793308"><ele>285.8</ele><time>2026-04-11T10:01:39Z</time></trkpt><trkpt lat="43.353176747045644" lon="11.976169376193932"><ele>287.2</ele><time>2026-04-11T10:01:40Z</time></trkpt><trkpt lat="43.35318976231857" lon="11.97630490896881"><ele>288.6</ele><time>2026-04-11T10:01:41Z</time></trkpt><trkpt lat="43.353200211957514" lon="11.976444877668625"><ele>290.0</ele><time>2026-04-11T10:01:42Z</time></trkpt><trkpt lat="43.35321202337697" lon="11.976584872662503"><ele>290.4</ele><time>2026-04-11T10:01:43Z</time></trkpt><trkpt lat="43.35322279268934" lon="11.976729553623265"><ele>290.8</ele><time>2026-04-11T10:01:44Z</time></trkpt><trkpt lat="43.353233095288886" lon="11.976879553282721"><ele>291.2</ele><time>2026-04-11T10:01:45Z</time></trkpt><trkpt lat="43.353244156022306" lon="11.977026798189685"><ele>291.6</ele><time>2026-04-11T10:01:46Z</time></trkpt><trkpt lat="43.35325560613405" lon="11.977150040914188"><ele>292.0</ele><time>2026-04-11T10:01:47Z</time></trkpt><trkpt lat="43.353251081719826" lon="11.977258906225948"><ele>292.0</ele><time>2026-04-11T10:01:48Z</time></trkpt><trkpt lat="43.353272830951795" lon="11.977352122181184"><ele>292.0</ele><time>2026-04-11T10:01:49Z</time></trkpt><trkpt lat="43.35328056042125" lon="11.977446363324706"><ele>292.0</ele><time>2026-04-11T10:01:50Z</time></trkpt><trkpt lat="43.35329515973945" lon="11.977536885989945"><ele>292.0</ele><time>2026-04-11T10:01:51Z</time></trkpt><trkpt lat="43.35331554809422" lon="11.9776344071104"><ele>292.0</ele><time>2026-04-11T10:01:52Z</time></trkpt><trkpt lat="43.353338923546495" lon="11.977737573027605"><ele>292.0</ele><time>2026-04-11T10:01:53Z</time></trkpt><trkpt lat="43.35336738447982" lon="11.977845879771177"><ele>292.0</ele><time>2026-04-11T10:01:54Z</time></trkpt><trkpt lat="43.35337948056372" lon="11.977966262122713"><ele>291.6</ele><time>2026-04-11T10:01:55Z</time></trkpt><trkpt lat="43.3534247828731" lon="11.978072421824825"><ele>291.2</ele><time>2026-04-11T10:01:56Z</time></trkpt><trkpt lat="43.35346076888225" lon="11.9781838892721"><ele>290.8</ele><time>2026-04-11T10:01:57Z</time></trkpt><trkpt lat="43.35348555949764" lon="11.978302161259117"><ele>290.4</ele><time>2026-04-11T10:01:58Z</time></trkpt><trkpt lat="43.35354039164921" lon="11.978409310056954"><ele>290.0</ele><time>2026-04-11T10:01:58.999Z</time></trkpt><trkpt lat="43.3535869588834" lon="11.978513976031776"><ele>289.83333333333337</ele><time>2026-04-11T10:01:59.999Z</time></trkpt><trkpt lat="43.353626900291424" lon="11.97862094697969"><ele>289.6666666666667</ele><time>2026-04-11T10:02:00.999Z</time></trkpt><trkpt lat="43.3536340600036" lon="11.978728769565086"><ele>289.5</ele><time>2026-04-11T10:02:01.999Z</time></trkpt><trkpt lat="43.3536717185862" lon="11.978846356965125"><ele>289.3333333333333</ele><time>2026-04-11T10:02:02.999Z</time></trkpt><trkpt lat="43.353702452314494" lon="11.9789622233953"><ele>289.16666666666663</ele><time>2026-04-11T10:02:03.999Z</time></trkpt><trkpt lat="43.353739920535745" lon="11.979068373218269"><ele>289.0</ele><time>2026-04-11T10:02:04.999Z</time></trkpt><trkpt lat="43.35378854102121" lon="11.979168801978792"><ele>289.16666666666663</ele><time>2026-04-11T10:02:05.999Z</time></trkpt><trkpt lat="43.35385024107667" lon="11.979259601068463"><ele>289.3333333333333</ele><time>2026-04-11T10:02:06.999Z</time></trkpt><trkpt lat="43.35392155891884" lon="11.979330934747786"><ele>289.5</ele><time>2026-04-11T10:02:07.999Z</time></trkpt><trkpt lat="43.35399957725847" lon="11.979387998039243"><ele>289.6666666666667</ele><time>2026-04-11T10:02:08.999Z</time></trkpt><trkpt lat="43.354073405550565" lon="11.979447768663166"><ele>289.83333333333337</ele><time>2026-04-11T10:02:09.999Z</time></trkpt><trkpt lat="43.35414720519747" lon="11.979513371502"><ele>290.0</ele><time>2026-04-11T10:02:10.999Z</time></trkpt><trkpt lat="43.35421926443461" lon="11.979588255050045"><ele>290.0</ele><time>2026-04-11T10:02:11.999Z</time></trkpt><trkpt lat="43.354287682381376" lon="11.979673109477995"><ele>290.0</ele><time>2026-04-11T10:02:12.999Z</time></trkpt><trkpt lat="43.3543464104605" lon="11.979775748954934"><ele>290.0</ele><time>2026-04-11T10:02:13.999Z</time></trkpt><trkpt lat="43.35438889374359" lon="11.979890193883634"><ele>290.0</ele><time>2026-04-11T10:02:14.999Z</time></trkpt><trkpt lat="43.354414448773255" lon="11.980013115759732"><ele>290.0</ele><time>2026-04-11T10:02:16Z</time></trkpt><trkpt lat="43.35442508488925" lon="11.980139033009078"><ele>290.0</ele><time>2026-04-11T10:02:17Z</time></trkpt><trkpt lat="43.35441355405579" lon="11.98026132156824"><ele>290.0</ele><time>2026-04-11T10:02:18Z</time></trkpt><trkpt lat="43.35439554352431" lon="11.98038227140455"><ele>290.0</ele><time>2026-04-11T10:02:19Z</time></trkpt><trkpt lat="43.354384916264735" lon="11.980489001934684"><ele>290.0</ele><time>2026-04-11T10:02:20Z</time></trkpt><trkpt lat="43.354384500308704" lon="11.98058973109257"><ele>290.0</ele><time>2026-04-11T10:02:21Z</time></trkpt><trkpt lat="43.35438088320672" lon="11.980686969997818"><ele>290.0</ele><time>2026-04-11T10:02:22Z</time></trkpt><trkpt lat="43.35437678266374" lon="11.980775358907135"><ele>290.6666666666667</ele><time>2026-04-11T10:02:23Z</time></trkpt><trkpt lat="43.3543710177309" lon="11.980928477292936"><ele>291.33333333333337</ele><time>2026-04-11T10:02:25Z</time></trkpt><trkpt lat="43.35436748769246" lon="11.981056735738894"><ele>292.0</ele><time>2026-04-11T10:02:27Z</time></trkpt><trkpt lat="43.35435810689035" lon="11.981168305198386"><ele>292.6666666666667</ele><time>2026-04-11T10:02:29Z</time></trkpt><trkpt lat="43.3543555171099" lon="11.98126035195477"><ele>293.3333333333333</ele><time>2026-04-11T10:02:31Z</time></trkpt><trkpt lat="43.35435888785894" lon="11.981150058189257"><ele>294.0</ele><time>2026-04-11T10:03:06Z</time></trkpt><trkpt lat="43.35436859282077" lon="11.981263095720944"><ele>294.0</ele><time>2026-04-11T10:03:09Z</time></trkpt><trkpt lat="43.354404469799285" lon="11.98133973593317"><ele>294.0</ele><time>2026-04-11T10:03:13Z</time></trkpt><trkpt lat="43.354474842764134" lon="11.981334858308626"><ele>294.0</ele><time>2026-04-11T10:03:48Z</time></trkpt><trkpt lat="43.35451500514232" lon="11.981239794159444"><ele>294.0</ele><time>2026-04-11T10:04:48.999Z</time></trkpt><trkpt lat="43.35474721588529" lon="11.981223013596216"><ele>294.0</ele><time>2026-04-11T10:07:37.011Z</time></trkpt><trkpt lat="43.35471225289631" lon="11.981110669446226"><ele>292.0</ele><time>2026-04-11T10:08:46.008Z</time></trkpt><trkpt lat="43.35451973960211" lon="11.981364942839832"><ele>294.0</ele><time>2026-04-11T10:11:35.996Z</time></trkpt><trkpt lat="43.35451973960211" lon="11.981364942839832"><ele>294.0</ele><time>2026-04-11T10:11:35.996Z</time></trkpt><trkpt lat="43.35451973960211" lon="11.981364942839832"><ele>294.0</ele><time>2026-04-11T10:11:35.996Z</time></trkpt></trkseg></trk></gpx>